<?xml version="1.0" encoding="UTF-8" standalone="no" ?>
<gpx xmlns="http://www.topografix.com/GPX/1/1" xmlns:xsi="http://www.w3.org/2001/XMLSchema-instance" xsi:schemaLocation="http://www.topografix.com/GPX/1/1 http://www.topografix.com/GPX/1/1/gpx.xsd" version="1.1" creator="VisuGPX - https://www.visugpx.com">
  <metadata>
    <name>Sortie du 15-12-14 - Circuit des Eygaux</name>
    <desc><![CDATA[Distance: 11,450Km
Dénivelé: 232m
Durée: 3H]]></desc>
  </metadata>
  <trk>
    <name><![CDATA[Tracé actuel: 15 DEC 2014 12:52 001]]></name>
    <trkseg>
      <trkpt lat="44.50872" lon="5.76394">
        <ele>835.52</ele>
        <time>2014-12-15T12:52:51Z</time>
      </trkpt>
      <trkpt lat="44.50873" lon="5.76395">
        <ele>839.37</ele>
        <time>2014-12-15T12:52:53Z</time>
      </trkpt>
      <trkpt lat="44.50877" lon="5.76395">
        <ele>838.89</ele>
        <time>2014-12-15T12:52:57Z</time>
      </trkpt>
      <trkpt lat="44.5089" lon="5.76402">
        <ele>839.85</ele>
        <time>2014-12-15T12:53:10Z</time>
      </trkpt>
      <trkpt lat="44.50908" lon="5.76406">
        <ele>841.29</ele>
        <time>2014-12-15T12:53:24Z</time>
      </trkpt>
      <trkpt lat="44.50921" lon="5.76407">
        <ele>843.21</ele>
        <time>2014-12-15T12:53:36Z</time>
      </trkpt>
      <trkpt lat="44.50936" lon="5.76405">
        <ele>844.18</ele>
        <time>2014-12-15T12:53:51Z</time>
      </trkpt>
      <trkpt lat="44.5094" lon="5.76403">
        <ele>844.18</ele>
        <time>2014-12-15T12:53:55Z</time>
      </trkpt>
      <trkpt lat="44.5095" lon="5.764">
        <ele>844.66</ele>
        <time>2014-12-15T12:54:06Z</time>
      </trkpt>
      <trkpt lat="44.50961" lon="5.76398">
        <ele>845.62</ele>
        <time>2014-12-15T12:54:19Z</time>
      </trkpt>
      <trkpt lat="44.50974" lon="5.76395">
        <ele>846.1</ele>
        <time>2014-12-15T12:54:33Z</time>
      </trkpt>
      <trkpt lat="44.50987" lon="5.76394">
        <ele>847.06</ele>
        <time>2014-12-15T12:54:48Z</time>
      </trkpt>
      <trkpt lat="44.50991" lon="5.76394">
        <ele>847.54</ele>
        <time>2014-12-15T12:54:51Z</time>
      </trkpt>
      <trkpt lat="44.51" lon="5.76393">
        <ele>848.5</ele>
        <time>2014-12-15T12:55:05Z</time>
      </trkpt>
      <trkpt lat="44.51005" lon="5.76392">
        <ele>848.5</ele>
        <time>2014-12-15T12:55:20Z</time>
      </trkpt>
      <trkpt lat="44.51013" lon="5.76393">
        <ele>849.46</ele>
        <time>2014-12-15T12:55:35Z</time>
      </trkpt>
      <trkpt lat="44.51027" lon="5.76394">
        <ele>848.02</ele>
        <time>2014-12-15T12:55:47Z</time>
      </trkpt>
      <trkpt lat="44.51035" lon="5.76394">
        <ele>848.98</ele>
        <time>2014-12-15T12:55:53Z</time>
      </trkpt>
      <trkpt lat="44.51053" lon="5.76394">
        <ele>850.42</ele>
        <time>2014-12-15T12:56:08Z</time>
      </trkpt>
      <trkpt lat="44.5107" lon="5.76394">
        <ele>852.83</ele>
        <time>2014-12-15T12:56:23Z</time>
      </trkpt>
      <trkpt lat="44.5108" lon="5.76393">
        <ele>852.83</ele>
        <time>2014-12-15T12:56:35Z</time>
      </trkpt>
      <trkpt lat="44.51092" lon="5.76393">
        <ele>854.75</ele>
        <time>2014-12-15T12:56:48Z</time>
      </trkpt>
      <trkpt lat="44.51108" lon="5.76391">
        <ele>855.71</ele>
        <time>2014-12-15T12:57:04Z</time>
      </trkpt>
      <trkpt lat="44.51119" lon="5.76387">
        <ele>857.15</ele>
        <time>2014-12-15T12:57:17Z</time>
      </trkpt>
      <trkpt lat="44.51129" lon="5.76384">
        <ele>858.11</ele>
        <time>2014-12-15T12:57:30Z</time>
      </trkpt>
      <trkpt lat="44.51141" lon="5.76381">
        <ele>859.56</ele>
        <time>2014-12-15T12:57:44Z</time>
      </trkpt>
      <trkpt lat="44.51152" lon="5.76377">
        <ele>860.52</ele>
        <time>2014-12-15T12:57:58Z</time>
      </trkpt>
      <trkpt lat="44.51163" lon="5.76371">
        <ele>861.96</ele>
        <time>2014-12-15T12:58:12Z</time>
      </trkpt>
      <trkpt lat="44.51173" lon="5.76365">
        <ele>862.92</ele>
        <time>2014-12-15T12:58:25Z</time>
      </trkpt>
      <trkpt lat="44.51182" lon="5.76362">
        <ele>864.36</ele>
        <time>2014-12-15T12:58:37Z</time>
      </trkpt>
      <trkpt lat="44.51192" lon="5.76362">
        <ele>865.8</ele>
        <time>2014-12-15T12:58:51Z</time>
      </trkpt>
      <trkpt lat="44.51202" lon="5.76363">
        <ele>866.77</ele>
        <time>2014-12-15T12:59:06Z</time>
      </trkpt>
      <trkpt lat="44.51206" lon="5.76364">
        <ele>867.25</ele>
        <time>2014-12-15T12:59:10Z</time>
      </trkpt>
      <trkpt lat="44.51209" lon="5.76365">
        <ele>867.25</ele>
        <time>2014-12-15T12:59:15Z</time>
      </trkpt>
      <trkpt lat="44.51215" lon="5.76364">
        <ele>868.21</ele>
        <time>2014-12-15T12:59:21Z</time>
      </trkpt>
      <trkpt lat="44.51223" lon="5.76362">
        <ele>868.69</ele>
        <time>2014-12-15T12:59:33Z</time>
      </trkpt>
      <trkpt lat="44.51233" lon="5.76364">
        <ele>870.61</ele>
        <time>2014-12-15T12:59:46Z</time>
      </trkpt>
      <trkpt lat="44.51244" lon="5.76365">
        <ele>871.09</ele>
        <time>2014-12-15T13:00:01Z</time>
      </trkpt>
      <trkpt lat="44.51256" lon="5.76364">
        <ele>872.53</ele>
        <time>2014-12-15T13:00:14Z</time>
      </trkpt>
      <trkpt lat="44.51261" lon="5.76363">
        <ele>873.5</ele>
        <time>2014-12-15T13:00:25Z</time>
      </trkpt>
      <trkpt lat="44.51271" lon="5.76363">
        <ele>873.98</ele>
        <time>2014-12-15T13:00:38Z</time>
      </trkpt>
      <trkpt lat="44.51283" lon="5.76358">
        <ele>874.94</ele>
        <time>2014-12-15T13:00:51Z</time>
      </trkpt>
      <trkpt lat="44.51296" lon="5.76353">
        <ele>875.9</ele>
        <time>2014-12-15T13:01:05Z</time>
      </trkpt>
      <trkpt lat="44.51306" lon="5.76346">
        <ele>877.82</ele>
        <time>2014-12-15T13:01:19Z</time>
      </trkpt>
      <trkpt lat="44.51312" lon="5.76345">
        <ele>878.3</ele>
        <time>2014-12-15T13:01:26Z</time>
      </trkpt>
      <trkpt lat="44.5132" lon="5.76342">
        <ele>879.74</ele>
        <time>2014-12-15T13:01:37Z</time>
      </trkpt>
      <trkpt lat="44.51329" lon="5.76339">
        <ele>880.22</ele>
        <time>2014-12-15T13:01:50Z</time>
      </trkpt>
      <trkpt lat="44.51337" lon="5.76337">
        <ele>881.67</ele>
        <time>2014-12-15T13:02:04Z</time>
      </trkpt>
      <trkpt lat="44.51348" lon="5.7634">
        <ele>881.67</ele>
        <time>2014-12-15T13:02:16Z</time>
      </trkpt>
      <trkpt lat="44.51358" lon="5.7635">
        <ele>883.59</ele>
        <time>2014-12-15T13:02:31Z</time>
      </trkpt>
      <trkpt lat="44.51364" lon="5.76362">
        <ele>884.55</ele>
        <time>2014-12-15T13:02:44Z</time>
      </trkpt>
      <trkpt lat="44.5137" lon="5.76377">
        <ele>885.99</ele>
        <time>2014-12-15T13:03:00Z</time>
      </trkpt>
      <trkpt lat="44.51381" lon="5.76394">
        <ele>886.95</ele>
        <time>2014-12-15T13:03:17Z</time>
      </trkpt>
      <trkpt lat="44.5139" lon="5.76406">
        <ele>888.88</ele>
        <time>2014-12-15T13:03:32Z</time>
      </trkpt>
      <trkpt lat="44.51398" lon="5.76412">
        <ele>890.32</ele>
        <time>2014-12-15T13:03:46Z</time>
      </trkpt>
      <trkpt lat="44.51409" lon="5.76413">
        <ele>891.28</ele>
        <time>2014-12-15T13:04:00Z</time>
      </trkpt>
      <trkpt lat="44.51418" lon="5.76418">
        <ele>892.24</ele>
        <time>2014-12-15T13:04:15Z</time>
      </trkpt>
      <trkpt lat="44.51428" lon="5.76423">
        <ele>894.16</ele>
        <time>2014-12-15T13:04:30Z</time>
      </trkpt>
      <trkpt lat="44.5143" lon="5.76424">
        <ele>893.68</ele>
        <time>2014-12-15T13:04:32Z</time>
      </trkpt>
      <trkpt lat="44.51436" lon="5.76432">
        <ele>895.12</ele>
        <time>2014-12-15T13:04:45Z</time>
      </trkpt>
      <trkpt lat="44.51441" lon="5.76436">
        <ele>895.61</ele>
        <time>2014-12-15T13:04:59Z</time>
      </trkpt>
      <trkpt lat="44.5145" lon="5.76442">
        <ele>896.57</ele>
        <time>2014-12-15T13:05:08Z</time>
      </trkpt>
      <trkpt lat="44.51462" lon="5.76451">
        <ele>898.49</ele>
        <time>2014-12-15T13:05:21Z</time>
      </trkpt>
      <trkpt lat="44.51472" lon="5.76463">
        <ele>899.45</ele>
        <time>2014-12-15T13:05:36Z</time>
      </trkpt>
      <trkpt lat="44.51477" lon="5.76475">
        <ele>898.97</ele>
        <time>2014-12-15T13:05:49Z</time>
      </trkpt>
      <trkpt lat="44.51483" lon="5.76485">
        <ele>900.41</ele>
        <time>2014-12-15T13:06:01Z</time>
      </trkpt>
      <trkpt lat="44.5149" lon="5.76502">
        <ele>902.82</ele>
        <time>2014-12-15T13:06:16Z</time>
      </trkpt>
      <trkpt lat="44.51494" lon="5.76518">
        <ele>902.82</ele>
        <time>2014-12-15T13:06:29Z</time>
      </trkpt>
      <trkpt lat="44.51501" lon="5.76513">
        <ele>901.37</ele>
        <time>2014-12-15T13:06:40Z</time>
      </trkpt>
      <trkpt lat="44.51504" lon="5.76509">
        <ele>901.85</ele>
        <time>2014-12-15T13:06:44Z</time>
      </trkpt>
      <trkpt lat="44.51507" lon="5.76505">
        <ele>903.3</ele>
        <time>2014-12-15T13:06:48Z</time>
      </trkpt>
      <trkpt lat="44.51514" lon="5.76491">
        <ele>902.33</ele>
        <time>2014-12-15T13:07:02Z</time>
      </trkpt>
      <trkpt lat="44.51523" lon="5.76477">
        <ele>903.78</ele>
        <time>2014-12-15T13:07:15Z</time>
      </trkpt>
      <trkpt lat="44.51528" lon="5.76466">
        <ele>904.74</ele>
        <time>2014-12-15T13:07:27Z</time>
      </trkpt>
      <trkpt lat="44.51533" lon="5.76455">
        <ele>905.22</ele>
        <time>2014-12-15T13:07:38Z</time>
      </trkpt>
      <trkpt lat="44.51535" lon="5.76435">
        <ele>906.18</ele>
        <time>2014-12-15T13:07:52Z</time>
      </trkpt>
      <trkpt lat="44.51538" lon="5.76421">
        <ele>906.18</ele>
        <time>2014-12-15T13:08:04Z</time>
      </trkpt>
      <trkpt lat="44.51542" lon="5.76407">
        <ele>907.14</ele>
        <time>2014-12-15T13:08:17Z</time>
      </trkpt>
      <trkpt lat="44.51543" lon="5.76407">
        <ele>906.66</ele>
        <time>2014-12-15T13:09:09Z</time>
      </trkpt>
      <trkpt lat="44.51543" lon="5.76407">
        <ele>903.3</ele>
        <time>2014-12-15T13:09:18Z</time>
      </trkpt>
      <trkpt lat="44.51543" lon="5.76407">
        <ele>904.74</ele>
        <time>2014-12-15T13:09:19Z</time>
      </trkpt>
      <trkpt lat="44.51543" lon="5.76407">
        <ele>908.58</ele>
        <time>2014-12-15T13:09:32Z</time>
      </trkpt>
      <trkpt lat="44.51543" lon="5.76407">
        <ele>908.58</ele>
        <time>2014-12-15T13:09:33Z</time>
      </trkpt>
      <trkpt lat="44.51543" lon="5.76407">
        <ele>904.26</ele>
        <time>2014-12-15T13:09:34Z</time>
      </trkpt>
      <trkpt lat="44.51543" lon="5.76407">
        <ele>909.54</ele>
        <time>2014-12-15T13:09:35Z</time>
      </trkpt>
      <trkpt lat="44.51543" lon="5.76407">
        <ele>905.7</ele>
        <time>2014-12-15T13:09:37Z</time>
      </trkpt>
      <trkpt lat="44.51543" lon="5.76407">
        <ele>902.33</ele>
        <time>2014-12-15T13:09:58Z</time>
      </trkpt>
      <trkpt lat="44.51543" lon="5.76407">
        <ele>909.54</ele>
        <time>2014-12-15T13:09:59Z</time>
      </trkpt>
      <trkpt lat="44.51543" lon="5.76407">
        <ele>907.62</ele>
        <time>2014-12-15T13:10:00Z</time>
      </trkpt>
      <trkpt lat="44.51543" lon="5.76407">
        <ele>903.3</ele>
        <time>2014-12-15T13:10:07Z</time>
      </trkpt>
      <trkpt lat="44.51543" lon="5.76407">
        <ele>910.51</ele>
        <time>2014-12-15T13:10:09Z</time>
      </trkpt>
      <trkpt lat="44.51543" lon="5.76407">
        <ele>907.62</ele>
        <time>2014-12-15T13:10:10Z</time>
      </trkpt>
      <trkpt lat="44.51543" lon="5.76407">
        <ele>906.66</ele>
        <time>2014-12-15T13:10:12Z</time>
      </trkpt>
      <trkpt lat="44.51543" lon="5.76407">
        <ele>907.14</ele>
        <time>2014-12-15T13:10:59Z</time>
      </trkpt>
      <trkpt lat="44.51545" lon="5.76408">
        <ele>906.18</ele>
        <time>2014-12-15T13:11:05Z</time>
      </trkpt>
      <trkpt lat="44.51548" lon="5.76413">
        <ele>909.06</ele>
        <time>2014-12-15T13:11:08Z</time>
      </trkpt>
      <trkpt lat="44.5155" lon="5.76417">
        <ele>908.1</ele>
        <time>2014-12-15T13:11:10Z</time>
      </trkpt>
      <trkpt lat="44.51552" lon="5.76421">
        <ele>905.22</ele>
        <time>2014-12-15T13:11:12Z</time>
      </trkpt>
      <trkpt lat="44.5155" lon="5.76429">
        <ele>907.14</ele>
        <time>2014-12-15T13:11:19Z</time>
      </trkpt>
      <trkpt lat="44.51548" lon="5.76438">
        <ele>907.62</ele>
        <time>2014-12-15T13:11:24Z</time>
      </trkpt>
      <trkpt lat="44.51546" lon="5.76446">
        <ele>909.06</ele>
        <time>2014-12-15T13:11:31Z</time>
      </trkpt>
      <trkpt lat="44.51543" lon="5.76454">
        <ele>910.99</ele>
        <time>2014-12-15T13:11:36Z</time>
      </trkpt>
      <trkpt lat="44.51543" lon="5.76461">
        <ele>910.99</ele>
        <time>2014-12-15T13:11:41Z</time>
      </trkpt>
      <trkpt lat="44.51543" lon="5.76462">
        <ele>911.47</ele>
        <time>2014-12-15T13:11:42Z</time>
      </trkpt>
      <trkpt lat="44.51541" lon="5.76469">
        <ele>913.39</ele>
        <time>2014-12-15T13:11:46Z</time>
      </trkpt>
      <trkpt lat="44.5154" lon="5.76472">
        <ele>912.43</ele>
        <time>2014-12-15T13:11:47Z</time>
      </trkpt>
      <trkpt lat="44.5154" lon="5.76478">
        <ele>909.54</ele>
        <time>2014-12-15T13:11:51Z</time>
      </trkpt>
      <trkpt lat="44.5154" lon="5.76479">
        <ele>909.54</ele>
        <time>2014-12-15T13:11:52Z</time>
      </trkpt>
      <trkpt lat="44.51539" lon="5.76483">
        <ele>910.51</ele>
        <time>2014-12-15T13:11:55Z</time>
      </trkpt>
      <trkpt lat="44.51537" lon="5.76495">
        <ele>912.43</ele>
        <time>2014-12-15T13:12:03Z</time>
      </trkpt>
      <trkpt lat="44.51536" lon="5.76501">
        <ele>911.95</ele>
        <time>2014-12-15T13:12:06Z</time>
      </trkpt>
      <trkpt lat="44.51533" lon="5.7651">
        <ele>912.91</ele>
        <time>2014-12-15T13:12:12Z</time>
      </trkpt>
      <trkpt lat="44.51532" lon="5.76514">
        <ele>913.39</ele>
        <time>2014-12-15T13:12:15Z</time>
      </trkpt>
      <trkpt lat="44.5153" lon="5.7652">
        <ele>911.47</ele>
        <time>2014-12-15T13:12:18Z</time>
      </trkpt>
      <trkpt lat="44.51528" lon="5.76524">
        <ele>910.03</ele>
        <time>2014-12-15T13:12:20Z</time>
      </trkpt>
      <trkpt lat="44.51528" lon="5.76526">
        <ele>910.03</ele>
        <time>2014-12-15T13:12:23Z</time>
      </trkpt>
      <trkpt lat="44.51527" lon="5.76528">
        <ele>913.39</ele>
        <time>2014-12-15T13:12:25Z</time>
      </trkpt>
      <trkpt lat="44.51524" lon="5.76538">
        <ele>913.87</ele>
        <time>2014-12-15T13:12:31Z</time>
      </trkpt>
      <trkpt lat="44.51521" lon="5.76544">
        <ele>917.24</ele>
        <time>2014-12-15T13:12:36Z</time>
      </trkpt>
      <trkpt lat="44.5152" lon="5.76547">
        <ele>913.39</ele>
        <time>2014-12-15T13:12:38Z</time>
      </trkpt>
      <trkpt lat="44.51519" lon="5.76547">
        <ele>910.51</ele>
        <time>2014-12-15T13:12:39Z</time>
      </trkpt>
      <trkpt lat="44.51519" lon="5.76548">
        <ele>911.47</ele>
        <time>2014-12-15T13:12:40Z</time>
      </trkpt>
      <trkpt lat="44.51518" lon="5.76551">
        <ele>915.31</ele>
        <time>2014-12-15T13:12:42Z</time>
      </trkpt>
      <trkpt lat="44.51517" lon="5.76556">
        <ele>917.24</ele>
        <time>2014-12-15T13:12:45Z</time>
      </trkpt>
      <trkpt lat="44.51515" lon="5.76559">
        <ele>915.31</ele>
        <time>2014-12-15T13:12:48Z</time>
      </trkpt>
      <trkpt lat="44.51514" lon="5.76564">
        <ele>918.2</ele>
        <time>2014-12-15T13:12:52Z</time>
      </trkpt>
      <trkpt lat="44.51512" lon="5.76568">
        <ele>919.16</ele>
        <time>2014-12-15T13:12:54Z</time>
      </trkpt>
      <trkpt lat="44.51511" lon="5.76571">
        <ele>912.43</ele>
        <time>2014-12-15T13:12:57Z</time>
      </trkpt>
      <trkpt lat="44.51511" lon="5.76572">
        <ele>916.27</ele>
        <time>2014-12-15T13:12:58Z</time>
      </trkpt>
      <trkpt lat="44.51508" lon="5.76579">
        <ele>918.68</ele>
        <time>2014-12-15T13:13:02Z</time>
      </trkpt>
      <trkpt lat="44.51504" lon="5.76592">
        <ele>915.31</ele>
        <time>2014-12-15T13:13:13Z</time>
      </trkpt>
      <trkpt lat="44.51504" lon="5.76593">
        <ele>915.31</ele>
        <time>2014-12-15T13:13:14Z</time>
      </trkpt>
      <trkpt lat="44.51502" lon="5.76597">
        <ele>918.2</ele>
        <time>2014-12-15T13:13:17Z</time>
      </trkpt>
      <trkpt lat="44.515" lon="5.76601">
        <ele>914.83</ele>
        <time>2014-12-15T13:13:20Z</time>
      </trkpt>
      <trkpt lat="44.51497" lon="5.76609">
        <ele>921.08</ele>
        <time>2014-12-15T13:13:26Z</time>
      </trkpt>
      <trkpt lat="44.51497" lon="5.76611">
        <ele>921.08</ele>
        <time>2014-12-15T13:13:27Z</time>
      </trkpt>
      <trkpt lat="44.51493" lon="5.76628">
        <ele>919.16</ele>
        <time>2014-12-15T13:13:38Z</time>
      </trkpt>
      <trkpt lat="44.51492" lon="5.76636">
        <ele>921.08</ele>
        <time>2014-12-15T13:13:44Z</time>
      </trkpt>
      <trkpt lat="44.5149" lon="5.76648">
        <ele>921.08</ele>
        <time>2014-12-15T13:13:53Z</time>
      </trkpt>
      <trkpt lat="44.51489" lon="5.76652">
        <ele>923.96</ele>
        <time>2014-12-15T13:13:55Z</time>
      </trkpt>
      <trkpt lat="44.51487" lon="5.76661">
        <ele>922.52</ele>
        <time>2014-12-15T13:14:00Z</time>
      </trkpt>
      <trkpt lat="44.51487" lon="5.76664">
        <ele>923.96</ele>
        <time>2014-12-15T13:14:02Z</time>
      </trkpt>
      <trkpt lat="44.51488" lon="5.76676">
        <ele>923.48</ele>
        <time>2014-12-15T13:14:10Z</time>
      </trkpt>
      <trkpt lat="44.51491" lon="5.76696">
        <ele>926.85</ele>
        <time>2014-12-15T13:14:23Z</time>
      </trkpt>
      <trkpt lat="44.51492" lon="5.76708">
        <ele>924.93</ele>
        <time>2014-12-15T13:14:31Z</time>
      </trkpt>
      <trkpt lat="44.51492" lon="5.76711">
        <ele>920.12</ele>
        <time>2014-12-15T13:14:33Z</time>
      </trkpt>
      <trkpt lat="44.51492" lon="5.76714">
        <ele>922.52</ele>
        <time>2014-12-15T13:14:34Z</time>
      </trkpt>
      <trkpt lat="44.51491" lon="5.76719">
        <ele>926.37</ele>
        <time>2014-12-15T13:14:38Z</time>
      </trkpt>
      <trkpt lat="44.5149" lon="5.76726">
        <ele>929.73</ele>
        <time>2014-12-15T13:14:41Z</time>
      </trkpt>
      <trkpt lat="44.5149" lon="5.76728">
        <ele>929.25</ele>
        <time>2014-12-15T13:14:42Z</time>
      </trkpt>
      <trkpt lat="44.5149" lon="5.76731">
        <ele>926.37</ele>
        <time>2014-12-15T13:14:44Z</time>
      </trkpt>
      <trkpt lat="44.51493" lon="5.76738">
        <ele>923.96</ele>
        <time>2014-12-15T13:14:50Z</time>
      </trkpt>
      <trkpt lat="44.51494" lon="5.76741">
        <ele>928.29</ele>
        <time>2014-12-15T13:14:53Z</time>
      </trkpt>
      <trkpt lat="44.51496" lon="5.76745">
        <ele>931.65</ele>
        <time>2014-12-15T13:14:56Z</time>
      </trkpt>
      <trkpt lat="44.51498" lon="5.76751">
        <ele>931.17</ele>
        <time>2014-12-15T13:15:02Z</time>
      </trkpt>
      <trkpt lat="44.51499" lon="5.76756">
        <ele>930.21</ele>
        <time>2014-12-15T13:15:05Z</time>
      </trkpt>
      <trkpt lat="44.51501" lon="5.76761">
        <ele>933.58</ele>
        <time>2014-12-15T13:15:08Z</time>
      </trkpt>
      <trkpt lat="44.51501" lon="5.76764">
        <ele>925.89</ele>
        <time>2014-12-15T13:15:10Z</time>
      </trkpt>
      <trkpt lat="44.51502" lon="5.76765">
        <ele>930.21</ele>
        <time>2014-12-15T13:15:11Z</time>
      </trkpt>
      <trkpt lat="44.51506" lon="5.76774">
        <ele>927.33</ele>
        <time>2014-12-15T13:15:17Z</time>
      </trkpt>
      <trkpt lat="44.51506" lon="5.76774">
        <ele>927.81</ele>
        <time>2014-12-15T13:15:18Z</time>
      </trkpt>
      <trkpt lat="44.51508" lon="5.76776">
        <ele>929.73</ele>
        <time>2014-12-15T13:15:20Z</time>
      </trkpt>
      <trkpt lat="44.51509" lon="5.7678">
        <ele>933.58</ele>
        <time>2014-12-15T13:15:23Z</time>
      </trkpt>
      <trkpt lat="44.51509" lon="5.76782">
        <ele>933.58</ele>
        <time>2014-12-15T13:15:24Z</time>
      </trkpt>
      <trkpt lat="44.5151" lon="5.76789">
        <ele>933.58</ele>
        <time>2014-12-15T13:15:29Z</time>
      </trkpt>
      <trkpt lat="44.51511" lon="5.76803">
        <ele>929.73</ele>
        <time>2014-12-15T13:15:38Z</time>
      </trkpt>
      <trkpt lat="44.51513" lon="5.76806">
        <ele>932.62</ele>
        <time>2014-12-15T13:15:41Z</time>
      </trkpt>
      <trkpt lat="44.51519" lon="5.76815">
        <ele>936.46</ele>
        <time>2014-12-15T13:15:50Z</time>
      </trkpt>
      <trkpt lat="44.51521" lon="5.76817">
        <ele>937.42</ele>
        <time>2014-12-15T13:15:52Z</time>
      </trkpt>
      <trkpt lat="44.51527" lon="5.76821">
        <ele>935.5</ele>
        <time>2014-12-15T13:15:57Z</time>
      </trkpt>
      <trkpt lat="44.5153" lon="5.76824">
        <ele>935.5</ele>
        <time>2014-12-15T13:16:00Z</time>
      </trkpt>
      <trkpt lat="44.51535" lon="5.76832">
        <ele>935.5</ele>
        <time>2014-12-15T13:16:10Z</time>
      </trkpt>
      <trkpt lat="44.51539" lon="5.76836">
        <ele>932.14</ele>
        <time>2014-12-15T13:16:14Z</time>
      </trkpt>
      <trkpt lat="44.51541" lon="5.76839">
        <ele>936.46</ele>
        <time>2014-12-15T13:16:17Z</time>
      </trkpt>
      <trkpt lat="44.51543" lon="5.76841">
        <ele>938.38</ele>
        <time>2014-12-15T13:16:19Z</time>
      </trkpt>
      <trkpt lat="44.51547" lon="5.76847">
        <ele>940.31</ele>
        <time>2014-12-15T13:16:22Z</time>
      </trkpt>
      <trkpt lat="44.51549" lon="5.76851">
        <ele>937.42</ele>
        <time>2014-12-15T13:16:26Z</time>
      </trkpt>
      <trkpt lat="44.51552" lon="5.76855">
        <ele>933.58</ele>
        <time>2014-12-15T13:16:29Z</time>
      </trkpt>
      <trkpt lat="44.51553" lon="5.76856">
        <ele>934.54</ele>
        <time>2014-12-15T13:16:30Z</time>
      </trkpt>
      <trkpt lat="44.51556" lon="5.76861">
        <ele>938.38</ele>
        <time>2014-12-15T13:16:35Z</time>
      </trkpt>
      <trkpt lat="44.51557" lon="5.76862">
        <ele>938.86</ele>
        <time>2014-12-15T13:16:36Z</time>
      </trkpt>
      <trkpt lat="44.51564" lon="5.76869">
        <ele>937.9</ele>
        <time>2014-12-15T13:16:42Z</time>
      </trkpt>
      <trkpt lat="44.51572" lon="5.76875">
        <ele>941.27</ele>
        <time>2014-12-15T13:16:49Z</time>
      </trkpt>
      <trkpt lat="44.51577" lon="5.7688">
        <ele>940.31</ele>
        <time>2014-12-15T13:16:59Z</time>
      </trkpt>
      <trkpt lat="44.51581" lon="5.76884">
        <ele>935.98</ele>
        <time>2014-12-15T13:17:09Z</time>
      </trkpt>
      <trkpt lat="44.51581" lon="5.76884">
        <ele>941.27</ele>
        <time>2014-12-15T13:17:10Z</time>
      </trkpt>
      <trkpt lat="44.51589" lon="5.76889">
        <ele>940.31</ele>
        <time>2014-12-15T13:17:29Z</time>
      </trkpt>
      <trkpt lat="44.51592" lon="5.7689">
        <ele>941.75</ele>
        <time>2014-12-15T13:17:44Z</time>
      </trkpt>
      <trkpt lat="44.51602" lon="5.76895">
        <ele>938.38</ele>
        <time>2014-12-15T13:18:05Z</time>
      </trkpt>
      <trkpt lat="44.51605" lon="5.76898">
        <ele>941.27</ele>
        <time>2014-12-15T13:18:10Z</time>
      </trkpt>
      <trkpt lat="44.51607" lon="5.76898">
        <ele>942.23</ele>
        <time>2014-12-15T13:18:12Z</time>
      </trkpt>
      <trkpt lat="44.5161" lon="5.76899">
        <ele>942.71</ele>
        <time>2014-12-15T13:18:14Z</time>
      </trkpt>
      <trkpt lat="44.51626" lon="5.76904">
        <ele>942.71</ele>
        <time>2014-12-15T13:18:30Z</time>
      </trkpt>
      <trkpt lat="44.51635" lon="5.76911">
        <ele>943.19</ele>
        <time>2014-12-15T13:18:42Z</time>
      </trkpt>
      <trkpt lat="44.51637" lon="5.76914">
        <ele>940.31</ele>
        <time>2014-12-15T13:18:45Z</time>
      </trkpt>
      <trkpt lat="44.5164" lon="5.76916">
        <ele>944.63</ele>
        <time>2014-12-15T13:18:49Z</time>
      </trkpt>
      <trkpt lat="44.51645" lon="5.76919">
        <ele>940.79</ele>
        <time>2014-12-15T13:18:53Z</time>
      </trkpt>
      <trkpt lat="44.51647" lon="5.76921">
        <ele>942.23</ele>
        <time>2014-12-15T13:18:56Z</time>
      </trkpt>
      <trkpt lat="44.51652" lon="5.76932">
        <ele>945.59</ele>
        <time>2014-12-15T13:19:05Z</time>
      </trkpt>
      <trkpt lat="44.51658" lon="5.76938">
        <ele>942.23</ele>
        <time>2014-12-15T13:19:11Z</time>
      </trkpt>
      <trkpt lat="44.51664" lon="5.76948">
        <ele>944.15</ele>
        <time>2014-12-15T13:19:21Z</time>
      </trkpt>
      <trkpt lat="44.51665" lon="5.7695">
        <ele>940.31</ele>
        <time>2014-12-15T13:19:23Z</time>
      </trkpt>
      <trkpt lat="44.51666" lon="5.76951">
        <ele>941.75</ele>
        <time>2014-12-15T13:19:24Z</time>
      </trkpt>
      <trkpt lat="44.51668" lon="5.76953">
        <ele>945.11</ele>
        <time>2014-12-15T13:19:27Z</time>
      </trkpt>
      <trkpt lat="44.51669" lon="5.76955">
        <ele>941.27</ele>
        <time>2014-12-15T13:19:30Z</time>
      </trkpt>
      <trkpt lat="44.5167" lon="5.76957">
        <ele>945.11</ele>
        <time>2014-12-15T13:19:32Z</time>
      </trkpt>
      <trkpt lat="44.51671" lon="5.76958">
        <ele>945.11</ele>
        <time>2014-12-15T13:19:33Z</time>
      </trkpt>
      <trkpt lat="44.51672" lon="5.76959">
        <ele>942.23</ele>
        <time>2014-12-15T13:19:35Z</time>
      </trkpt>
      <trkpt lat="44.51674" lon="5.7696">
        <ele>944.15</ele>
        <time>2014-12-15T13:19:38Z</time>
      </trkpt>
      <trkpt lat="44.51676" lon="5.76961">
        <ele>941.27</ele>
        <time>2014-12-15T13:19:40Z</time>
      </trkpt>
      <trkpt lat="44.51677" lon="5.76962">
        <ele>944.63</ele>
        <time>2014-12-15T13:19:42Z</time>
      </trkpt>
      <trkpt lat="44.51677" lon="5.76963">
        <ele>945.11</ele>
        <time>2014-12-15T13:19:43Z</time>
      </trkpt>
      <trkpt lat="44.51682" lon="5.76972">
        <ele>943.19</ele>
        <time>2014-12-15T13:19:51Z</time>
      </trkpt>
      <trkpt lat="44.51683" lon="5.76973">
        <ele>945.11</ele>
        <time>2014-12-15T13:19:53Z</time>
      </trkpt>
      <trkpt lat="44.51686" lon="5.7698">
        <ele>944.63</ele>
        <time>2014-12-15T13:19:59Z</time>
      </trkpt>
      <trkpt lat="44.51688" lon="5.76983">
        <ele>942.23</ele>
        <time>2014-12-15T13:20:05Z</time>
      </trkpt>
      <trkpt lat="44.51689" lon="5.76986">
        <ele>945.59</ele>
        <time>2014-12-15T13:20:07Z</time>
      </trkpt>
      <trkpt lat="44.5169" lon="5.76987">
        <ele>946.07</ele>
        <time>2014-12-15T13:20:08Z</time>
      </trkpt>
      <trkpt lat="44.51691" lon="5.7699">
        <ele>947.04</ele>
        <time>2014-12-15T13:20:10Z</time>
      </trkpt>
      <trkpt lat="44.51693" lon="5.76996">
        <ele>945.59</ele>
        <time>2014-12-15T13:20:14Z</time>
      </trkpt>
      <trkpt lat="44.51693" lon="5.76998">
        <ele>945.11</ele>
        <time>2014-12-15T13:20:15Z</time>
      </trkpt>
      <trkpt lat="44.51698" lon="5.7701">
        <ele>943.19</ele>
        <time>2014-12-15T13:20:25Z</time>
      </trkpt>
      <trkpt lat="44.51699" lon="5.77012">
        <ele>945.59</ele>
        <time>2014-12-15T13:20:28Z</time>
      </trkpt>
      <trkpt lat="44.517" lon="5.77014">
        <ele>944.15</ele>
        <time>2014-12-15T13:20:30Z</time>
      </trkpt>
      <trkpt lat="44.51701" lon="5.77015">
        <ele>946.56</ele>
        <time>2014-12-15T13:20:32Z</time>
      </trkpt>
      <trkpt lat="44.51707" lon="5.77028">
        <ele>946.56</ele>
        <time>2014-12-15T13:20:44Z</time>
      </trkpt>
      <trkpt lat="44.51709" lon="5.7703">
        <ele>942.71</ele>
        <time>2014-12-15T13:20:46Z</time>
      </trkpt>
      <trkpt lat="44.51709" lon="5.77031">
        <ele>943.19</ele>
        <time>2014-12-15T13:20:47Z</time>
      </trkpt>
      <trkpt lat="44.51712" lon="5.77036">
        <ele>946.56</ele>
        <time>2014-12-15T13:20:52Z</time>
      </trkpt>
      <trkpt lat="44.51713" lon="5.7704">
        <ele>947.52</ele>
        <time>2014-12-15T13:20:54Z</time>
      </trkpt>
      <trkpt lat="44.51719" lon="5.77052">
        <ele>943.67</ele>
        <time>2014-12-15T13:21:05Z</time>
      </trkpt>
      <trkpt lat="44.5172" lon="5.77053">
        <ele>945.59</ele>
        <time>2014-12-15T13:21:08Z</time>
      </trkpt>
      <trkpt lat="44.51722" lon="5.77059">
        <ele>948.48</ele>
        <time>2014-12-15T13:21:13Z</time>
      </trkpt>
      <trkpt lat="44.51727" lon="5.77066">
        <ele>944.15</ele>
        <time>2014-12-15T13:21:20Z</time>
      </trkpt>
      <trkpt lat="44.51729" lon="5.77071">
        <ele>948</ele>
        <time>2014-12-15T13:21:24Z</time>
      </trkpt>
      <trkpt lat="44.51729" lon="5.77075">
        <ele>948.48</ele>
        <time>2014-12-15T13:21:26Z</time>
      </trkpt>
      <trkpt lat="44.51732" lon="5.77078">
        <ele>946.07</ele>
        <time>2014-12-15T13:21:30Z</time>
      </trkpt>
      <trkpt lat="44.51738" lon="5.77091">
        <ele>947.04</ele>
        <time>2014-12-15T13:21:41Z</time>
      </trkpt>
      <trkpt lat="44.51739" lon="5.77093">
        <ele>944.15</ele>
        <time>2014-12-15T13:21:42Z</time>
      </trkpt>
      <trkpt lat="44.5174" lon="5.77094">
        <ele>945.11</ele>
        <time>2014-12-15T13:21:43Z</time>
      </trkpt>
      <trkpt lat="44.51741" lon="5.77098">
        <ele>947.04</ele>
        <time>2014-12-15T13:21:46Z</time>
      </trkpt>
      <trkpt lat="44.51742" lon="5.77101">
        <ele>950.4</ele>
        <time>2014-12-15T13:21:48Z</time>
      </trkpt>
      <trkpt lat="44.51744" lon="5.77105">
        <ele>946.56</ele>
        <time>2014-12-15T13:21:51Z</time>
      </trkpt>
      <trkpt lat="44.51745" lon="5.77106">
        <ele>947.04</ele>
        <time>2014-12-15T13:21:52Z</time>
      </trkpt>
      <trkpt lat="44.51749" lon="5.7712">
        <ele>948</ele>
        <time>2014-12-15T13:22:03Z</time>
      </trkpt>
      <trkpt lat="44.51751" lon="5.77125">
        <ele>945.11</ele>
        <time>2014-12-15T13:22:06Z</time>
      </trkpt>
      <trkpt lat="44.51754" lon="5.77129">
        <ele>949.44</ele>
        <time>2014-12-15T13:22:10Z</time>
      </trkpt>
      <trkpt lat="44.51754" lon="5.7713">
        <ele>948.96</ele>
        <time>2014-12-15T13:22:11Z</time>
      </trkpt>
      <trkpt lat="44.51755" lon="5.77131">
        <ele>945.59</ele>
        <time>2014-12-15T13:22:14Z</time>
      </trkpt>
      <trkpt lat="44.51755" lon="5.77132">
        <ele>948</ele>
        <time>2014-12-15T13:22:15Z</time>
      </trkpt>
      <trkpt lat="44.51756" lon="5.77135">
        <ele>949.92</ele>
        <time>2014-12-15T13:22:17Z</time>
      </trkpt>
      <trkpt lat="44.51765" lon="5.77147">
        <ele>948</ele>
        <time>2014-12-15T13:22:29Z</time>
      </trkpt>
      <trkpt lat="44.51766" lon="5.77151">
        <ele>949.92</ele>
        <time>2014-12-15T13:22:32Z</time>
      </trkpt>
      <trkpt lat="44.51771" lon="5.77161">
        <ele>948.96</ele>
        <time>2014-12-15T13:22:38Z</time>
      </trkpt>
      <trkpt lat="44.51777" lon="5.77172">
        <ele>949.44</ele>
        <time>2014-12-15T13:22:48Z</time>
      </trkpt>
      <trkpt lat="44.51778" lon="5.77177">
        <ele>946.07</ele>
        <time>2014-12-15T13:22:51Z</time>
      </trkpt>
      <trkpt lat="44.5178" lon="5.77181">
        <ele>948.96</ele>
        <time>2014-12-15T13:22:55Z</time>
      </trkpt>
      <trkpt lat="44.51782" lon="5.77186">
        <ele>950.88</ele>
        <time>2014-12-15T13:22:58Z</time>
      </trkpt>
      <trkpt lat="44.51789" lon="5.772">
        <ele>948</ele>
        <time>2014-12-15T13:23:11Z</time>
      </trkpt>
      <trkpt lat="44.51789" lon="5.77201">
        <ele>948</ele>
        <time>2014-12-15T13:23:12Z</time>
      </trkpt>
      <trkpt lat="44.5179" lon="5.77207">
        <ele>951.36</ele>
        <time>2014-12-15T13:23:17Z</time>
      </trkpt>
      <trkpt lat="44.51791" lon="5.7721">
        <ele>951.84</ele>
        <time>2014-12-15T13:23:19Z</time>
      </trkpt>
      <trkpt lat="44.51795" lon="5.77217">
        <ele>948.48</ele>
        <time>2014-12-15T13:23:24Z</time>
      </trkpt>
      <trkpt lat="44.51801" lon="5.7723">
        <ele>946.56</ele>
        <time>2014-12-15T13:23:35Z</time>
      </trkpt>
      <trkpt lat="44.51802" lon="5.77232">
        <ele>949.92</ele>
        <time>2014-12-15T13:23:37Z</time>
      </trkpt>
      <trkpt lat="44.51802" lon="5.77233">
        <ele>950.4</ele>
        <time>2014-12-15T13:23:38Z</time>
      </trkpt>
      <trkpt lat="44.51804" lon="5.77235">
        <ele>951.36</ele>
        <time>2014-12-15T13:23:40Z</time>
      </trkpt>
      <trkpt lat="44.51805" lon="5.77238">
        <ele>948.48</ele>
        <time>2014-12-15T13:23:42Z</time>
      </trkpt>
      <trkpt lat="44.51806" lon="5.7724">
        <ele>949.92</ele>
        <time>2014-12-15T13:23:46Z</time>
      </trkpt>
      <trkpt lat="44.51807" lon="5.77247">
        <ele>949.92</ele>
        <time>2014-12-15T13:23:51Z</time>
      </trkpt>
      <trkpt lat="44.51813" lon="5.77253">
        <ele>948.48</ele>
        <time>2014-12-15T13:23:57Z</time>
      </trkpt>
      <trkpt lat="44.51815" lon="5.77258">
        <ele>951.84</ele>
        <time>2014-12-15T13:24:02Z</time>
      </trkpt>
      <trkpt lat="44.51816" lon="5.77259">
        <ele>951.84</ele>
        <time>2014-12-15T13:24:03Z</time>
      </trkpt>
      <trkpt lat="44.51819" lon="5.77263">
        <ele>949.92</ele>
        <time>2014-12-15T13:24:07Z</time>
      </trkpt>
      <trkpt lat="44.51819" lon="5.77266">
        <ele>949.44</ele>
        <time>2014-12-15T13:24:08Z</time>
      </trkpt>
      <trkpt lat="44.51825" lon="5.77281">
        <ele>946.56</ele>
        <time>2014-12-15T13:24:19Z</time>
      </trkpt>
      <trkpt lat="44.51826" lon="5.77286">
        <ele>950.88</ele>
        <time>2014-12-15T13:24:23Z</time>
      </trkpt>
      <trkpt lat="44.51829" lon="5.77292">
        <ele>950.88</ele>
        <time>2014-12-15T13:24:30Z</time>
      </trkpt>
      <trkpt lat="44.5183" lon="5.77294">
        <ele>949.44</ele>
        <time>2014-12-15T13:24:32Z</time>
      </trkpt>
      <trkpt lat="44.51835" lon="5.77302">
        <ele>951.36</ele>
        <time>2014-12-15T13:24:41Z</time>
      </trkpt>
      <trkpt lat="44.51839" lon="5.77306">
        <ele>950.88</ele>
        <time>2014-12-15T13:24:47Z</time>
      </trkpt>
      <trkpt lat="44.5184" lon="5.77307">
        <ele>951.36</ele>
        <time>2014-12-15T13:24:49Z</time>
      </trkpt>
      <trkpt lat="44.51845" lon="5.77313">
        <ele>948</ele>
        <time>2014-12-15T13:24:55Z</time>
      </trkpt>
      <trkpt lat="44.51847" lon="5.77316">
        <ele>950.88</ele>
        <time>2014-12-15T13:24:58Z</time>
      </trkpt>
      <trkpt lat="44.51847" lon="5.77318">
        <ele>950.88</ele>
        <time>2014-12-15T13:24:59Z</time>
      </trkpt>
      <trkpt lat="44.51848" lon="5.77325">
        <ele>951.36</ele>
        <time>2014-12-15T13:25:04Z</time>
      </trkpt>
      <trkpt lat="44.51848" lon="5.77329">
        <ele>951.36</ele>
        <time>2014-12-15T13:25:06Z</time>
      </trkpt>
      <trkpt lat="44.51849" lon="5.77334">
        <ele>952.8</ele>
        <time>2014-12-15T13:25:09Z</time>
      </trkpt>
      <trkpt lat="44.5185" lon="5.77335">
        <ele>949.44</ele>
        <time>2014-12-15T13:25:10Z</time>
      </trkpt>
      <trkpt lat="44.51852" lon="5.7734">
        <ele>950.4</ele>
        <time>2014-12-15T13:25:14Z</time>
      </trkpt>
      <trkpt lat="44.51855" lon="5.77346">
        <ele>954.25</ele>
        <time>2014-12-15T13:25:19Z</time>
      </trkpt>
      <trkpt lat="44.51856" lon="5.77351">
        <ele>950.4</ele>
        <time>2014-12-15T13:25:22Z</time>
      </trkpt>
      <trkpt lat="44.51857" lon="5.77353">
        <ele>950.4</ele>
        <time>2014-12-15T13:25:23Z</time>
      </trkpt>
      <trkpt lat="44.51859" lon="5.77359">
        <ele>948.96</ele>
        <time>2014-12-15T13:25:26Z</time>
      </trkpt>
      <trkpt lat="44.51861" lon="5.77366">
        <ele>953.77</ele>
        <time>2014-12-15T13:25:31Z</time>
      </trkpt>
      <trkpt lat="44.51865" lon="5.77369">
        <ele>949.44</ele>
        <time>2014-12-15T13:25:35Z</time>
      </trkpt>
      <trkpt lat="44.51864" lon="5.77372">
        <ele>950.88</ele>
        <time>2014-12-15T13:25:36Z</time>
      </trkpt>
      <trkpt lat="44.51865" lon="5.77377">
        <ele>952.32</ele>
        <time>2014-12-15T13:25:40Z</time>
      </trkpt>
      <trkpt lat="44.51868" lon="5.77384">
        <ele>948.48</ele>
        <time>2014-12-15T13:25:47Z</time>
      </trkpt>
      <trkpt lat="44.51869" lon="5.77385">
        <ele>952.32</ele>
        <time>2014-12-15T13:25:52Z</time>
      </trkpt>
      <trkpt lat="44.51869" lon="5.77386">
        <ele>949.44</ele>
        <time>2014-12-15T13:25:55Z</time>
      </trkpt>
      <trkpt lat="44.5187" lon="5.77392">
        <ele>950.88</ele>
        <time>2014-12-15T13:26:07Z</time>
      </trkpt>
      <trkpt lat="44.51876" lon="5.77402">
        <ele>949.44</ele>
        <time>2014-12-15T13:26:22Z</time>
      </trkpt>
      <trkpt lat="44.51877" lon="5.77405">
        <ele>950.4</ele>
        <time>2014-12-15T13:26:24Z</time>
      </trkpt>
      <trkpt lat="44.51878" lon="5.7741">
        <ele>953.28</ele>
        <time>2014-12-15T13:26:27Z</time>
      </trkpt>
      <trkpt lat="44.51879" lon="5.77412">
        <ele>953.28</ele>
        <time>2014-12-15T13:26:28Z</time>
      </trkpt>
      <trkpt lat="44.51882" lon="5.77413">
        <ele>950.4</ele>
        <time>2014-12-15T13:26:30Z</time>
      </trkpt>
      <trkpt lat="44.51885" lon="5.7742">
        <ele>951.36</ele>
        <time>2014-12-15T13:26:34Z</time>
      </trkpt>
      <trkpt lat="44.51887" lon="5.77423">
        <ele>953.28</ele>
        <time>2014-12-15T13:26:37Z</time>
      </trkpt>
      <trkpt lat="44.51894" lon="5.77432">
        <ele>949.92</ele>
        <time>2014-12-15T13:26:45Z</time>
      </trkpt>
      <trkpt lat="44.51897" lon="5.77434">
        <ele>946.07</ele>
        <time>2014-12-15T13:26:48Z</time>
      </trkpt>
      <trkpt lat="44.51896" lon="5.77437">
        <ele>949.92</ele>
        <time>2014-12-15T13:26:49Z</time>
      </trkpt>
      <trkpt lat="44.51896" lon="5.77443">
        <ele>951.36</ele>
        <time>2014-12-15T13:26:52Z</time>
      </trkpt>
      <trkpt lat="44.51898" lon="5.77448">
        <ele>949.92</ele>
        <time>2014-12-15T13:26:55Z</time>
      </trkpt>
      <trkpt lat="44.51899" lon="5.77449">
        <ele>950.4</ele>
        <time>2014-12-15T13:26:57Z</time>
      </trkpt>
      <trkpt lat="44.51901" lon="5.77455">
        <ele>953.77</ele>
        <time>2014-12-15T13:27:02Z</time>
      </trkpt>
      <trkpt lat="44.51903" lon="5.77459">
        <ele>951.84</ele>
        <time>2014-12-15T13:27:06Z</time>
      </trkpt>
      <trkpt lat="44.51909" lon="5.77466">
        <ele>948</ele>
        <time>2014-12-15T13:27:12Z</time>
      </trkpt>
      <trkpt lat="44.5191" lon="5.77466">
        <ele>948.96</ele>
        <time>2014-12-15T13:27:13Z</time>
      </trkpt>
      <trkpt lat="44.51913" lon="5.77472">
        <ele>951.84</ele>
        <time>2014-12-15T13:27:18Z</time>
      </trkpt>
      <trkpt lat="44.5192" lon="5.77489">
        <ele>953.77</ele>
        <time>2014-12-15T13:27:29Z</time>
      </trkpt>
      <trkpt lat="44.51921" lon="5.77496">
        <ele>950.4</ele>
        <time>2014-12-15T13:27:35Z</time>
      </trkpt>
      <trkpt lat="44.51927" lon="5.77511">
        <ele>952.32</ele>
        <time>2014-12-15T13:27:47Z</time>
      </trkpt>
      <trkpt lat="44.51929" lon="5.77515">
        <ele>948</ele>
        <time>2014-12-15T13:27:50Z</time>
      </trkpt>
      <trkpt lat="44.51929" lon="5.77517">
        <ele>948.96</ele>
        <time>2014-12-15T13:27:51Z</time>
      </trkpt>
      <trkpt lat="44.51931" lon="5.77522">
        <ele>952.32</ele>
        <time>2014-12-15T13:27:56Z</time>
      </trkpt>
      <trkpt lat="44.51932" lon="5.77523">
        <ele>952.8</ele>
        <time>2014-12-15T13:27:57Z</time>
      </trkpt>
      <trkpt lat="44.51934" lon="5.77529">
        <ele>947.52</ele>
        <time>2014-12-15T13:28:01Z</time>
      </trkpt>
      <trkpt lat="44.51933" lon="5.77531">
        <ele>948.48</ele>
        <time>2014-12-15T13:28:02Z</time>
      </trkpt>
      <trkpt lat="44.51933" lon="5.77532">
        <ele>949.44</ele>
        <time>2014-12-15T13:28:04Z</time>
      </trkpt>
      <trkpt lat="44.51935" lon="5.77537">
        <ele>952.32</ele>
        <time>2014-12-15T13:28:07Z</time>
      </trkpt>
      <trkpt lat="44.51941" lon="5.77547">
        <ele>950.4</ele>
        <time>2014-12-15T13:28:14Z</time>
      </trkpt>
      <trkpt lat="44.51949" lon="5.77563">
        <ele>947.04</ele>
        <time>2014-12-15T13:28:26Z</time>
      </trkpt>
      <trkpt lat="44.51949" lon="5.77565">
        <ele>948.48</ele>
        <time>2014-12-15T13:28:27Z</time>
      </trkpt>
      <trkpt lat="44.51951" lon="5.77567">
        <ele>952.8</ele>
        <time>2014-12-15T13:28:29Z</time>
      </trkpt>
      <trkpt lat="44.51952" lon="5.77568">
        <ele>952.8</ele>
        <time>2014-12-15T13:28:30Z</time>
      </trkpt>
      <trkpt lat="44.51955" lon="5.77572">
        <ele>948.48</ele>
        <time>2014-12-15T13:28:33Z</time>
      </trkpt>
      <trkpt lat="44.51956" lon="5.77573">
        <ele>951.36</ele>
        <time>2014-12-15T13:28:35Z</time>
      </trkpt>
      <trkpt lat="44.51958" lon="5.77577">
        <ele>954.73</ele>
        <time>2014-12-15T13:28:39Z</time>
      </trkpt>
      <trkpt lat="44.51959" lon="5.77579">
        <ele>951.36</ele>
        <time>2014-12-15T13:28:42Z</time>
      </trkpt>
      <trkpt lat="44.51959" lon="5.7758">
        <ele>951.36</ele>
        <time>2014-12-15T13:28:43Z</time>
      </trkpt>
      <trkpt lat="44.51963" lon="5.77586">
        <ele>951.36</ele>
        <time>2014-12-15T13:28:49Z</time>
      </trkpt>
      <trkpt lat="44.51965" lon="5.77589">
        <ele>954.25</ele>
        <time>2014-12-15T13:28:52Z</time>
      </trkpt>
      <trkpt lat="44.51965" lon="5.77591">
        <ele>950.88</ele>
        <time>2014-12-15T13:28:53Z</time>
      </trkpt>
      <trkpt lat="44.51965" lon="5.77598">
        <ele>948</ele>
        <time>2014-12-15T13:28:56Z</time>
      </trkpt>
      <trkpt lat="44.51966" lon="5.77599">
        <ele>951.84</ele>
        <time>2014-12-15T13:28:58Z</time>
      </trkpt>
      <trkpt lat="44.51978" lon="5.77603">
        <ele>952.32</ele>
        <time>2014-12-15T13:29:07Z</time>
      </trkpt>
      <trkpt lat="44.51984" lon="5.77606">
        <ele>948.96</ele>
        <time>2014-12-15T13:29:12Z</time>
      </trkpt>
      <trkpt lat="44.51985" lon="5.77606">
        <ele>948.96</ele>
        <time>2014-12-15T13:29:13Z</time>
      </trkpt>
      <trkpt lat="44.51987" lon="5.77609">
        <ele>950.88</ele>
        <time>2014-12-15T13:29:15Z</time>
      </trkpt>
      <trkpt lat="44.51987" lon="5.77612">
        <ele>951.36</ele>
        <time>2014-12-15T13:29:16Z</time>
      </trkpt>
      <trkpt lat="44.5199" lon="5.77618">
        <ele>951.36</ele>
        <time>2014-12-15T13:29:22Z</time>
      </trkpt>
      <trkpt lat="44.5199" lon="5.77621">
        <ele>951.36</ele>
        <time>2014-12-15T13:29:24Z</time>
      </trkpt>
      <trkpt lat="44.51992" lon="5.77624">
        <ele>952.8</ele>
        <time>2014-12-15T13:29:26Z</time>
      </trkpt>
      <trkpt lat="44.51994" lon="5.77626">
        <ele>950.4</ele>
        <time>2014-12-15T13:29:28Z</time>
      </trkpt>
      <trkpt lat="44.52005" lon="5.77641">
        <ele>950.4</ele>
        <time>2014-12-15T13:29:41Z</time>
      </trkpt>
      <trkpt lat="44.52007" lon="5.77645">
        <ele>951.36</ele>
        <time>2014-12-15T13:29:46Z</time>
      </trkpt>
      <trkpt lat="44.52007" lon="5.77652">
        <ele>947.52</ele>
        <time>2014-12-15T13:29:50Z</time>
      </trkpt>
      <trkpt lat="44.52007" lon="5.77658">
        <ele>951.36</ele>
        <time>2014-12-15T13:29:53Z</time>
      </trkpt>
      <trkpt lat="44.52008" lon="5.77662">
        <ele>952.32</ele>
        <time>2014-12-15T13:29:55Z</time>
      </trkpt>
      <trkpt lat="44.52016" lon="5.77675">
        <ele>948.96</ele>
        <time>2014-12-15T13:30:05Z</time>
      </trkpt>
      <trkpt lat="44.52019" lon="5.77679">
        <ele>949.92</ele>
        <time>2014-12-15T13:30:10Z</time>
      </trkpt>
      <trkpt lat="44.52023" lon="5.77686">
        <ele>948.48</ele>
        <time>2014-12-15T13:30:16Z</time>
      </trkpt>
      <trkpt lat="44.52025" lon="5.7769">
        <ele>949.92</ele>
        <time>2014-12-15T13:30:19Z</time>
      </trkpt>
      <trkpt lat="44.52025" lon="5.77692">
        <ele>952.32</ele>
        <time>2014-12-15T13:30:21Z</time>
      </trkpt>
      <trkpt lat="44.52027" lon="5.77698">
        <ele>949.92</ele>
        <time>2014-12-15T13:30:27Z</time>
      </trkpt>
      <trkpt lat="44.52028" lon="5.77708">
        <ele>946.07</ele>
        <time>2014-12-15T13:30:32Z</time>
      </trkpt>
      <trkpt lat="44.52027" lon="5.77716">
        <ele>949.44</ele>
        <time>2014-12-15T13:30:37Z</time>
      </trkpt>
      <trkpt lat="44.52028" lon="5.77717">
        <ele>949.44</ele>
        <time>2014-12-15T13:30:38Z</time>
      </trkpt>
      <trkpt lat="44.52028" lon="5.77719">
        <ele>948.96</ele>
        <time>2014-12-15T13:30:39Z</time>
      </trkpt>
      <trkpt lat="44.52032" lon="5.77726">
        <ele>947.52</ele>
        <time>2014-12-15T13:30:44Z</time>
      </trkpt>
      <trkpt lat="44.52036" lon="5.77733">
        <ele>951.36</ele>
        <time>2014-12-15T13:30:49Z</time>
      </trkpt>
      <trkpt lat="44.52037" lon="5.77735">
        <ele>950.88</ele>
        <time>2014-12-15T13:30:50Z</time>
      </trkpt>
      <trkpt lat="44.52037" lon="5.77745">
        <ele>949.92</ele>
        <time>2014-12-15T13:30:55Z</time>
      </trkpt>
      <trkpt lat="44.52037" lon="5.77747">
        <ele>949.44</ele>
        <time>2014-12-15T13:30:56Z</time>
      </trkpt>
      <trkpt lat="44.52036" lon="5.77758">
        <ele>949.44</ele>
        <time>2014-12-15T13:31:02Z</time>
      </trkpt>
      <trkpt lat="44.52038" lon="5.77771">
        <ele>949.44</ele>
        <time>2014-12-15T13:31:13Z</time>
      </trkpt>
      <trkpt lat="44.52043" lon="5.77784">
        <ele>948.48</ele>
        <time>2014-12-15T13:31:20Z</time>
      </trkpt>
      <trkpt lat="44.52047" lon="5.77788">
        <ele>946.56</ele>
        <time>2014-12-15T13:31:24Z</time>
      </trkpt>
      <trkpt lat="44.5205" lon="5.7779">
        <ele>949.44</ele>
        <time>2014-12-15T13:31:27Z</time>
      </trkpt>
      <trkpt lat="44.52051" lon="5.77794">
        <ele>950.4</ele>
        <time>2014-12-15T13:31:29Z</time>
      </trkpt>
      <trkpt lat="44.5205" lon="5.778">
        <ele>951.36</ele>
        <time>2014-12-15T13:31:33Z</time>
      </trkpt>
      <trkpt lat="44.5205" lon="5.77804">
        <ele>947.52</ele>
        <time>2014-12-15T13:31:36Z</time>
      </trkpt>
      <trkpt lat="44.52054" lon="5.77817">
        <ele>948.48</ele>
        <time>2014-12-15T13:31:47Z</time>
      </trkpt>
      <trkpt lat="44.52057" lon="5.77824">
        <ele>950.4</ele>
        <time>2014-12-15T13:31:52Z</time>
      </trkpt>
      <trkpt lat="44.5206" lon="5.77829">
        <ele>948</ele>
        <time>2014-12-15T13:31:57Z</time>
      </trkpt>
      <trkpt lat="44.5206" lon="5.77838">
        <ele>949.44</ele>
        <time>2014-12-15T13:32:06Z</time>
      </trkpt>
      <trkpt lat="44.52067" lon="5.77854">
        <ele>947.52</ele>
        <time>2014-12-15T13:32:18Z</time>
      </trkpt>
      <trkpt lat="44.52073" lon="5.77864">
        <ele>945.59</ele>
        <time>2014-12-15T13:32:26Z</time>
      </trkpt>
      <trkpt lat="44.52073" lon="5.77865">
        <ele>946.07</ele>
        <time>2014-12-15T13:32:27Z</time>
      </trkpt>
      <trkpt lat="44.52075" lon="5.77868">
        <ele>948.48</ele>
        <time>2014-12-15T13:32:30Z</time>
      </trkpt>
      <trkpt lat="44.52075" lon="5.7788">
        <ele>948.48</ele>
        <time>2014-12-15T13:32:35Z</time>
      </trkpt>
      <trkpt lat="44.52076" lon="5.7789">
        <ele>945.11</ele>
        <time>2014-12-15T13:32:41Z</time>
      </trkpt>
      <trkpt lat="44.52078" lon="5.77895">
        <ele>948</ele>
        <time>2014-12-15T13:32:45Z</time>
      </trkpt>
      <trkpt lat="44.52079" lon="5.77898">
        <ele>950.4</ele>
        <time>2014-12-15T13:32:47Z</time>
      </trkpt>
      <trkpt lat="44.52081" lon="5.779">
        <ele>945.59</ele>
        <time>2014-12-15T13:32:50Z</time>
      </trkpt>
      <trkpt lat="44.52082" lon="5.779">
        <ele>948.48</ele>
        <time>2014-12-15T13:32:51Z</time>
      </trkpt>
      <trkpt lat="44.52085" lon="5.77904">
        <ele>948.48</ele>
        <time>2014-12-15T13:33:01Z</time>
      </trkpt>
      <trkpt lat="44.52088" lon="5.77905">
        <ele>945.59</ele>
        <time>2014-12-15T13:33:03Z</time>
      </trkpt>
      <trkpt lat="44.52091" lon="5.77908">
        <ele>947.04</ele>
        <time>2014-12-15T13:33:06Z</time>
      </trkpt>
      <trkpt lat="44.52091" lon="5.77912">
        <ele>948.96</ele>
        <time>2014-12-15T13:33:08Z</time>
      </trkpt>
      <trkpt lat="44.5209" lon="5.77937">
        <ele>948.48</ele>
        <time>2014-12-15T13:33:21Z</time>
      </trkpt>
      <trkpt lat="44.52092" lon="5.7795">
        <ele>945.59</ele>
        <time>2014-12-15T13:33:28Z</time>
      </trkpt>
      <trkpt lat="44.52093" lon="5.77955">
        <ele>947.52</ele>
        <time>2014-12-15T13:33:31Z</time>
      </trkpt>
      <trkpt lat="44.52097" lon="5.77975">
        <ele>945.11</ele>
        <time>2014-12-15T13:33:44Z</time>
      </trkpt>
      <trkpt lat="44.52099" lon="5.77979">
        <ele>949.44</ele>
        <time>2014-12-15T13:33:47Z</time>
      </trkpt>
      <trkpt lat="44.52099" lon="5.7798">
        <ele>948.48</ele>
        <time>2014-12-15T13:33:48Z</time>
      </trkpt>
      <trkpt lat="44.52101" lon="5.77985">
        <ele>949.92</ele>
        <time>2014-12-15T13:33:51Z</time>
      </trkpt>
      <trkpt lat="44.52105" lon="5.77998">
        <ele>945.59</ele>
        <time>2014-12-15T13:34:01Z</time>
      </trkpt>
      <trkpt lat="44.52106" lon="5.78003">
        <ele>948.96</ele>
        <time>2014-12-15T13:34:05Z</time>
      </trkpt>
      <trkpt lat="44.52108" lon="5.78014">
        <ele>949.44</ele>
        <time>2014-12-15T13:34:12Z</time>
      </trkpt>
      <trkpt lat="44.52108" lon="5.78021">
        <ele>944.15</ele>
        <time>2014-12-15T13:34:16Z</time>
      </trkpt>
      <trkpt lat="44.52109" lon="5.78024">
        <ele>948</ele>
        <time>2014-12-15T13:34:18Z</time>
      </trkpt>
      <trkpt lat="44.52111" lon="5.78027">
        <ele>949.92</ele>
        <time>2014-12-15T13:34:21Z</time>
      </trkpt>
      <trkpt lat="44.52117" lon="5.78034">
        <ele>948</ele>
        <time>2014-12-15T13:34:29Z</time>
      </trkpt>
      <trkpt lat="44.52119" lon="5.78039">
        <ele>947.04</ele>
        <time>2014-12-15T13:34:33Z</time>
      </trkpt>
      <trkpt lat="44.52122" lon="5.78044">
        <ele>949.92</ele>
        <time>2014-12-15T13:34:37Z</time>
      </trkpt>
      <trkpt lat="44.52125" lon="5.78053">
        <ele>947.04</ele>
        <time>2014-12-15T13:34:44Z</time>
      </trkpt>
      <trkpt lat="44.52128" lon="5.78064">
        <ele>948.96</ele>
        <time>2014-12-15T13:34:52Z</time>
      </trkpt>
      <trkpt lat="44.52128" lon="5.78069">
        <ele>945.11</ele>
        <time>2014-12-15T13:34:55Z</time>
      </trkpt>
      <trkpt lat="44.52128" lon="5.78071">
        <ele>947.04</ele>
        <time>2014-12-15T13:34:58Z</time>
      </trkpt>
      <trkpt lat="44.52128" lon="5.78075">
        <ele>949.92</ele>
        <time>2014-12-15T13:35:00Z</time>
      </trkpt>
      <trkpt lat="44.52128" lon="5.78079">
        <ele>950.88</ele>
        <time>2014-12-15T13:35:02Z</time>
      </trkpt>
      <trkpt lat="44.5213" lon="5.78082">
        <ele>947.52</ele>
        <time>2014-12-15T13:35:06Z</time>
      </trkpt>
      <trkpt lat="44.5213" lon="5.78083">
        <ele>948</ele>
        <time>2014-12-15T13:35:07Z</time>
      </trkpt>
      <trkpt lat="44.52133" lon="5.78095">
        <ele>948.96</ele>
        <time>2014-12-15T13:35:14Z</time>
      </trkpt>
      <trkpt lat="44.52134" lon="5.78103">
        <ele>944.63</ele>
        <time>2014-12-15T13:35:18Z</time>
      </trkpt>
      <trkpt lat="44.52134" lon="5.78104">
        <ele>944.15</ele>
        <time>2014-12-15T13:35:19Z</time>
      </trkpt>
      <trkpt lat="44.52133" lon="5.78108">
        <ele>948.96</ele>
        <time>2014-12-15T13:35:22Z</time>
      </trkpt>
      <trkpt lat="44.52134" lon="5.7811">
        <ele>948.96</ele>
        <time>2014-12-15T13:35:23Z</time>
      </trkpt>
      <trkpt lat="44.52135" lon="5.7812">
        <ele>947.52</ele>
        <time>2014-12-15T13:35:30Z</time>
      </trkpt>
      <trkpt lat="44.52135" lon="5.78128">
        <ele>948.48</ele>
        <time>2014-12-15T13:35:36Z</time>
      </trkpt>
      <trkpt lat="44.52137" lon="5.78135">
        <ele>951.36</ele>
        <time>2014-12-15T13:35:40Z</time>
      </trkpt>
      <trkpt lat="44.52142" lon="5.78148">
        <ele>948.96</ele>
        <time>2014-12-15T13:35:50Z</time>
      </trkpt>
      <trkpt lat="44.52144" lon="5.78152">
        <ele>945.59</ele>
        <time>2014-12-15T13:35:53Z</time>
      </trkpt>
      <trkpt lat="44.52145" lon="5.78155">
        <ele>949.44</ele>
        <time>2014-12-15T13:35:55Z</time>
      </trkpt>
      <trkpt lat="44.52145" lon="5.78157">
        <ele>948.96</ele>
        <time>2014-12-15T13:35:56Z</time>
      </trkpt>
      <trkpt lat="44.52147" lon="5.78168">
        <ele>947.04</ele>
        <time>2014-12-15T13:36:05Z</time>
      </trkpt>
      <trkpt lat="44.52148" lon="5.78173">
        <ele>946.07</ele>
        <time>2014-12-15T13:36:08Z</time>
      </trkpt>
      <trkpt lat="44.52148" lon="5.78175">
        <ele>948.48</ele>
        <time>2014-12-15T13:36:09Z</time>
      </trkpt>
      <trkpt lat="44.52148" lon="5.78178">
        <ele>948.96</ele>
        <time>2014-12-15T13:36:11Z</time>
      </trkpt>
      <trkpt lat="44.52148" lon="5.7818">
        <ele>949.44</ele>
        <time>2014-12-15T13:36:33Z</time>
      </trkpt>
      <trkpt lat="44.52149" lon="5.78182">
        <ele>948.48</ele>
        <time>2014-12-15T13:37:28Z</time>
      </trkpt>
      <trkpt lat="44.52144" lon="5.78185">
        <ele>948.96</ele>
        <time>2014-12-15T13:37:36Z</time>
      </trkpt>
      <trkpt lat="44.52138" lon="5.78189">
        <ele>946.56</ele>
        <time>2014-12-15T13:37:41Z</time>
      </trkpt>
      <trkpt lat="44.52135" lon="5.7819">
        <ele>946.07</ele>
        <time>2014-12-15T13:37:43Z</time>
      </trkpt>
      <trkpt lat="44.52134" lon="5.7819">
        <ele>947.04</ele>
        <time>2014-12-15T13:37:44Z</time>
      </trkpt>
      <trkpt lat="44.52128" lon="5.78192">
        <ele>950.88</ele>
        <time>2014-12-15T13:37:48Z</time>
      </trkpt>
      <trkpt lat="44.52127" lon="5.78193">
        <ele>947.04</ele>
        <time>2014-12-15T13:37:49Z</time>
      </trkpt>
      <trkpt lat="44.52126" lon="5.78194">
        <ele>947.04</ele>
        <time>2014-12-15T13:37:50Z</time>
      </trkpt>
      <trkpt lat="44.52125" lon="5.78194">
        <ele>947.52</ele>
        <time>2014-12-15T13:37:51Z</time>
      </trkpt>
      <trkpt lat="44.52122" lon="5.78194">
        <ele>945.59</ele>
        <time>2014-12-15T13:37:54Z</time>
      </trkpt>
      <trkpt lat="44.52119" lon="5.78196">
        <ele>948.48</ele>
        <time>2014-12-15T13:37:57Z</time>
      </trkpt>
      <trkpt lat="44.52114" lon="5.78195">
        <ele>947.04</ele>
        <time>2014-12-15T13:38:01Z</time>
      </trkpt>
      <trkpt lat="44.52111" lon="5.78195">
        <ele>948.96</ele>
        <time>2014-12-15T13:38:04Z</time>
      </trkpt>
      <trkpt lat="44.52102" lon="5.78195">
        <ele>948.48</ele>
        <time>2014-12-15T13:38:13Z</time>
      </trkpt>
      <trkpt lat="44.52098" lon="5.78194">
        <ele>946.07</ele>
        <time>2014-12-15T13:38:17Z</time>
      </trkpt>
      <trkpt lat="44.52097" lon="5.78194">
        <ele>949.44</ele>
        <time>2014-12-15T13:38:20Z</time>
      </trkpt>
      <trkpt lat="44.52096" lon="5.78194">
        <ele>950.4</ele>
        <time>2014-12-15T13:38:22Z</time>
      </trkpt>
      <trkpt lat="44.52092" lon="5.78196">
        <ele>948.48</ele>
        <time>2014-12-15T13:38:27Z</time>
      </trkpt>
      <trkpt lat="44.52077" lon="5.78198">
        <ele>948.96</ele>
        <time>2014-12-15T13:38:39Z</time>
      </trkpt>
      <trkpt lat="44.52067" lon="5.78199">
        <ele>946.07</ele>
        <time>2014-12-15T13:38:49Z</time>
      </trkpt>
      <trkpt lat="44.52064" lon="5.782">
        <ele>948.96</ele>
        <time>2014-12-15T13:38:52Z</time>
      </trkpt>
      <trkpt lat="44.52062" lon="5.782">
        <ele>950.88</ele>
        <time>2014-12-15T13:38:54Z</time>
      </trkpt>
      <trkpt lat="44.52059" lon="5.78201">
        <ele>948.96</ele>
        <time>2014-12-15T13:38:59Z</time>
      </trkpt>
      <trkpt lat="44.52051" lon="5.78205">
        <ele>948</ele>
        <time>2014-12-15T13:39:05Z</time>
      </trkpt>
      <trkpt lat="44.52042" lon="5.78208">
        <ele>946.56</ele>
        <time>2014-12-15T13:39:12Z</time>
      </trkpt>
      <trkpt lat="44.52039" lon="5.78209">
        <ele>948.96</ele>
        <time>2014-12-15T13:39:15Z</time>
      </trkpt>
      <trkpt lat="44.52035" lon="5.78212">
        <ele>946.56</ele>
        <time>2014-12-15T13:39:20Z</time>
      </trkpt>
      <trkpt lat="44.52033" lon="5.78212">
        <ele>948.96</ele>
        <time>2014-12-15T13:39:22Z</time>
      </trkpt>
      <trkpt lat="44.52025" lon="5.78214">
        <ele>948.96</ele>
        <time>2014-12-15T13:39:31Z</time>
      </trkpt>
      <trkpt lat="44.52015" lon="5.78216">
        <ele>946.07</ele>
        <time>2014-12-15T13:39:39Z</time>
      </trkpt>
      <trkpt lat="44.5201" lon="5.78217">
        <ele>949.44</ele>
        <time>2014-12-15T13:39:43Z</time>
      </trkpt>
      <trkpt lat="44.52007" lon="5.78218">
        <ele>950.88</ele>
        <time>2014-12-15T13:39:45Z</time>
      </trkpt>
      <trkpt lat="44.51995" lon="5.78218">
        <ele>947.04</ele>
        <time>2014-12-15T13:39:55Z</time>
      </trkpt>
      <trkpt lat="44.51994" lon="5.78218">
        <ele>948</ele>
        <time>2014-12-15T13:39:56Z</time>
      </trkpt>
      <trkpt lat="44.51989" lon="5.78218">
        <ele>949.44</ele>
        <time>2014-12-15T13:40:01Z</time>
      </trkpt>
      <trkpt lat="44.51976" lon="5.78227">
        <ele>945.59</ele>
        <time>2014-12-15T13:40:17Z</time>
      </trkpt>
      <trkpt lat="44.51974" lon="5.78228">
        <ele>949.44</ele>
        <time>2014-12-15T13:40:20Z</time>
      </trkpt>
      <trkpt lat="44.51971" lon="5.7823">
        <ele>945.11</ele>
        <time>2014-12-15T13:40:23Z</time>
      </trkpt>
      <trkpt lat="44.5197" lon="5.7823">
        <ele>945.11</ele>
        <time>2014-12-15T13:40:24Z</time>
      </trkpt>
      <trkpt lat="44.51968" lon="5.7823">
        <ele>949.92</ele>
        <time>2014-12-15T13:40:28Z</time>
      </trkpt>
      <trkpt lat="44.51966" lon="5.7823">
        <ele>950.4</ele>
        <time>2014-12-15T13:40:30Z</time>
      </trkpt>
      <trkpt lat="44.51963" lon="5.78232">
        <ele>947.52</ele>
        <time>2014-12-15T13:40:32Z</time>
      </trkpt>
      <trkpt lat="44.51952" lon="5.7824">
        <ele>947.52</ele>
        <time>2014-12-15T13:40:44Z</time>
      </trkpt>
      <trkpt lat="44.51944" lon="5.78246">
        <ele>948</ele>
        <time>2014-12-15T13:40:54Z</time>
      </trkpt>
      <trkpt lat="44.51943" lon="5.7825">
        <ele>944.15</ele>
        <time>2014-12-15T13:40:57Z</time>
      </trkpt>
      <trkpt lat="44.51943" lon="5.78252">
        <ele>944.63</ele>
        <time>2014-12-15T13:40:58Z</time>
      </trkpt>
      <trkpt lat="44.51943" lon="5.78255">
        <ele>948.48</ele>
        <time>2014-12-15T13:41:01Z</time>
      </trkpt>
      <trkpt lat="44.51944" lon="5.78258">
        <ele>949.44</ele>
        <time>2014-12-15T13:41:03Z</time>
      </trkpt>
      <trkpt lat="44.51945" lon="5.78259">
        <ele>944.63</ele>
        <time>2014-12-15T13:41:04Z</time>
      </trkpt>
      <trkpt lat="44.51945" lon="5.78261">
        <ele>945.59</ele>
        <time>2014-12-15T13:41:05Z</time>
      </trkpt>
      <trkpt lat="44.51945" lon="5.78262">
        <ele>947.52</ele>
        <time>2014-12-15T13:41:06Z</time>
      </trkpt>
      <trkpt lat="44.51946" lon="5.78267">
        <ele>946.07</ele>
        <time>2014-12-15T13:41:09Z</time>
      </trkpt>
      <trkpt lat="44.51947" lon="5.7827">
        <ele>949.44</ele>
        <time>2014-12-15T13:41:12Z</time>
      </trkpt>
      <trkpt lat="44.51949" lon="5.78277">
        <ele>946.07</ele>
        <time>2014-12-15T13:41:19Z</time>
      </trkpt>
      <trkpt lat="44.51954" lon="5.78287">
        <ele>948</ele>
        <time>2014-12-15T13:41:28Z</time>
      </trkpt>
      <trkpt lat="44.51956" lon="5.78289">
        <ele>947.04</ele>
        <time>2014-12-15T13:41:32Z</time>
      </trkpt>
      <trkpt lat="44.51961" lon="5.78296">
        <ele>945.59</ele>
        <time>2014-12-15T13:41:38Z</time>
      </trkpt>
      <trkpt lat="44.51965" lon="5.78303">
        <ele>949.92</ele>
        <time>2014-12-15T13:41:45Z</time>
      </trkpt>
      <trkpt lat="44.51966" lon="5.78304">
        <ele>949.92</ele>
        <time>2014-12-15T13:41:46Z</time>
      </trkpt>
      <trkpt lat="44.51968" lon="5.78307">
        <ele>948.48</ele>
        <time>2014-12-15T13:41:49Z</time>
      </trkpt>
      <trkpt lat="44.51972" lon="5.78317">
        <ele>948.96</ele>
        <time>2014-12-15T13:41:57Z</time>
      </trkpt>
      <trkpt lat="44.51975" lon="5.78322">
        <ele>945.59</ele>
        <time>2014-12-15T13:42:01Z</time>
      </trkpt>
      <trkpt lat="44.51976" lon="5.78323">
        <ele>945.59</ele>
        <time>2014-12-15T13:42:02Z</time>
      </trkpt>
      <trkpt lat="44.51977" lon="5.78325">
        <ele>948.48</ele>
        <time>2014-12-15T13:42:04Z</time>
      </trkpt>
      <trkpt lat="44.51977" lon="5.78326">
        <ele>951.84</ele>
        <time>2014-12-15T13:42:06Z</time>
      </trkpt>
      <trkpt lat="44.51977" lon="5.78326">
        <ele>951.84</ele>
        <time>2014-12-15T13:42:07Z</time>
      </trkpt>
      <trkpt lat="44.51977" lon="5.78326">
        <ele>948.48</ele>
        <time>2014-12-15T13:42:09Z</time>
      </trkpt>
      <trkpt lat="44.51977" lon="5.78328">
        <ele>951.84</ele>
        <time>2014-12-15T13:42:11Z</time>
      </trkpt>
      <trkpt lat="44.51977" lon="5.78328">
        <ele>948</ele>
        <time>2014-12-15T13:42:12Z</time>
      </trkpt>
      <trkpt lat="44.51977" lon="5.78329">
        <ele>946.07</ele>
        <time>2014-12-15T13:42:18Z</time>
      </trkpt>
      <trkpt lat="44.51979" lon="5.7833">
        <ele>951.36</ele>
        <time>2014-12-15T13:42:20Z</time>
      </trkpt>
      <trkpt lat="44.51979" lon="5.78331">
        <ele>948.48</ele>
        <time>2014-12-15T13:42:21Z</time>
      </trkpt>
      <trkpt lat="44.51984" lon="5.78339">
        <ele>951.36</ele>
        <time>2014-12-15T13:42:27Z</time>
      </trkpt>
      <trkpt lat="44.51985" lon="5.78341">
        <ele>945.11</ele>
        <time>2014-12-15T13:42:28Z</time>
      </trkpt>
      <trkpt lat="44.51986" lon="5.78342">
        <ele>946.07</ele>
        <time>2014-12-15T13:42:29Z</time>
      </trkpt>
      <trkpt lat="44.51988" lon="5.78346">
        <ele>949.92</ele>
        <time>2014-12-15T13:42:31Z</time>
      </trkpt>
      <trkpt lat="44.51991" lon="5.78351">
        <ele>948</ele>
        <time>2014-12-15T13:42:34Z</time>
      </trkpt>
      <trkpt lat="44.51994" lon="5.78354">
        <ele>951.36</ele>
        <time>2014-12-15T13:42:37Z</time>
      </trkpt>
      <trkpt lat="44.51995" lon="5.78357">
        <ele>946.07</ele>
        <time>2014-12-15T13:42:40Z</time>
      </trkpt>
      <trkpt lat="44.51996" lon="5.78358">
        <ele>948.48</ele>
        <time>2014-12-15T13:42:42Z</time>
      </trkpt>
      <trkpt lat="44.51997" lon="5.78362">
        <ele>951.36</ele>
        <time>2014-12-15T13:42:46Z</time>
      </trkpt>
      <trkpt lat="44.51998" lon="5.78363">
        <ele>949.92</ele>
        <time>2014-12-15T13:42:48Z</time>
      </trkpt>
      <trkpt lat="44.5201" lon="5.78376">
        <ele>949.92</ele>
        <time>2014-12-15T13:42:58Z</time>
      </trkpt>
      <trkpt lat="44.52011" lon="5.78377">
        <ele>948.48</ele>
        <time>2014-12-15T13:43:00Z</time>
      </trkpt>
      <trkpt lat="44.52018" lon="5.78391">
        <ele>948.96</ele>
        <time>2014-12-15T13:43:13Z</time>
      </trkpt>
      <trkpt lat="44.52019" lon="5.78396">
        <ele>950.4</ele>
        <time>2014-12-15T13:43:16Z</time>
      </trkpt>
      <trkpt lat="44.52021" lon="5.784">
        <ele>948.48</ele>
        <time>2014-12-15T13:43:21Z</time>
      </trkpt>
      <trkpt lat="44.52024" lon="5.78411">
        <ele>946.56</ele>
        <time>2014-12-15T13:43:28Z</time>
      </trkpt>
      <trkpt lat="44.52024" lon="5.78415">
        <ele>949.92</ele>
        <time>2014-12-15T13:43:32Z</time>
      </trkpt>
      <trkpt lat="44.52027" lon="5.78426">
        <ele>948</ele>
        <time>2014-12-15T13:43:40Z</time>
      </trkpt>
      <trkpt lat="44.5203" lon="5.78435">
        <ele>948.48</ele>
        <time>2014-12-15T13:43:47Z</time>
      </trkpt>
      <trkpt lat="44.52036" lon="5.78445">
        <ele>949.44</ele>
        <time>2014-12-15T13:43:57Z</time>
      </trkpt>
      <trkpt lat="44.52041" lon="5.78451">
        <ele>950.4</ele>
        <time>2014-12-15T13:44:03Z</time>
      </trkpt>
      <trkpt lat="44.52042" lon="5.78455">
        <ele>947.04</ele>
        <time>2014-12-15T13:44:06Z</time>
      </trkpt>
      <trkpt lat="44.52043" lon="5.78455">
        <ele>947.52</ele>
        <time>2014-12-15T13:44:07Z</time>
      </trkpt>
      <trkpt lat="44.52046" lon="5.7846">
        <ele>949.44</ele>
        <time>2014-12-15T13:44:12Z</time>
      </trkpt>
      <trkpt lat="44.52045" lon="5.78472">
        <ele>948.96</ele>
        <time>2014-12-15T13:44:18Z</time>
      </trkpt>
      <trkpt lat="44.52051" lon="5.78481">
        <ele>947.52</ele>
        <time>2014-12-15T13:44:25Z</time>
      </trkpt>
      <trkpt lat="44.52053" lon="5.78484">
        <ele>952.32</ele>
        <time>2014-12-15T13:44:29Z</time>
      </trkpt>
      <trkpt lat="44.52054" lon="5.78485">
        <ele>951.36</ele>
        <time>2014-12-15T13:44:30Z</time>
      </trkpt>
      <trkpt lat="44.52054" lon="5.78487">
        <ele>947.04</ele>
        <time>2014-12-15T13:44:32Z</time>
      </trkpt>
      <trkpt lat="44.52055" lon="5.78488">
        <ele>948.96</ele>
        <time>2014-12-15T13:44:33Z</time>
      </trkpt>
      <trkpt lat="44.52059" lon="5.78498">
        <ele>951.84</ele>
        <time>2014-12-15T13:44:42Z</time>
      </trkpt>
      <trkpt lat="44.52062" lon="5.78502">
        <ele>950.4</ele>
        <time>2014-12-15T13:44:46Z</time>
      </trkpt>
      <trkpt lat="44.52064" lon="5.78505">
        <ele>950.88</ele>
        <time>2014-12-15T13:44:49Z</time>
      </trkpt>
      <trkpt lat="44.52067" lon="5.78508">
        <ele>949.92</ele>
        <time>2014-12-15T13:44:52Z</time>
      </trkpt>
      <trkpt lat="44.52067" lon="5.7851">
        <ele>950.88</ele>
        <time>2014-12-15T13:44:54Z</time>
      </trkpt>
      <trkpt lat="44.5207" lon="5.78515">
        <ele>948.48</ele>
        <time>2014-12-15T13:44:58Z</time>
      </trkpt>
      <trkpt lat="44.52071" lon="5.78516">
        <ele>948</ele>
        <time>2014-12-15T13:44:59Z</time>
      </trkpt>
      <trkpt lat="44.52074" lon="5.78525">
        <ele>947.52</ele>
        <time>2014-12-15T13:45:08Z</time>
      </trkpt>
      <trkpt lat="44.52078" lon="5.78528">
        <ele>950.4</ele>
        <time>2014-12-15T13:45:12Z</time>
      </trkpt>
      <trkpt lat="44.52079" lon="5.7853">
        <ele>953.77</ele>
        <time>2014-12-15T13:45:14Z</time>
      </trkpt>
      <trkpt lat="44.5208" lon="5.78531">
        <ele>953.77</ele>
        <time>2014-12-15T13:45:15Z</time>
      </trkpt>
      <trkpt lat="44.52081" lon="5.78533">
        <ele>948.96</ele>
        <time>2014-12-15T13:45:17Z</time>
      </trkpt>
      <trkpt lat="44.52082" lon="5.78534">
        <ele>950.4</ele>
        <time>2014-12-15T13:45:18Z</time>
      </trkpt>
      <trkpt lat="44.52083" lon="5.78535">
        <ele>951.84</ele>
        <time>2014-12-15T13:45:19Z</time>
      </trkpt>
      <trkpt lat="44.52085" lon="5.7854">
        <ele>953.28</ele>
        <time>2014-12-15T13:45:22Z</time>
      </trkpt>
      <trkpt lat="44.52088" lon="5.78542">
        <ele>947.04</ele>
        <time>2014-12-15T13:45:29Z</time>
      </trkpt>
      <trkpt lat="44.52089" lon="5.78543">
        <ele>949.44</ele>
        <time>2014-12-15T13:45:30Z</time>
      </trkpt>
      <trkpt lat="44.52093" lon="5.78544">
        <ele>953.28</ele>
        <time>2014-12-15T13:45:33Z</time>
      </trkpt>
      <trkpt lat="44.52094" lon="5.78545">
        <ele>952.8</ele>
        <time>2014-12-15T13:45:34Z</time>
      </trkpt>
      <trkpt lat="44.52098" lon="5.78548">
        <ele>948</ele>
        <time>2014-12-15T13:45:39Z</time>
      </trkpt>
      <trkpt lat="44.52099" lon="5.7855">
        <ele>951.36</ele>
        <time>2014-12-15T13:45:40Z</time>
      </trkpt>
      <trkpt lat="44.52101" lon="5.78551">
        <ele>951.84</ele>
        <time>2014-12-15T13:45:41Z</time>
      </trkpt>
      <trkpt lat="44.52108" lon="5.7856">
        <ele>952.32</ele>
        <time>2014-12-15T13:45:47Z</time>
      </trkpt>
      <trkpt lat="44.52112" lon="5.78576">
        <ele>950.4</ele>
        <time>2014-12-15T13:45:59Z</time>
      </trkpt>
      <trkpt lat="44.52113" lon="5.7858">
        <ele>952.8</ele>
        <time>2014-12-15T13:46:02Z</time>
      </trkpt>
      <trkpt lat="44.52113" lon="5.78585">
        <ele>948</ele>
        <time>2014-12-15T13:46:05Z</time>
      </trkpt>
      <trkpt lat="44.52113" lon="5.78587">
        <ele>951.36</ele>
        <time>2014-12-15T13:46:07Z</time>
      </trkpt>
      <trkpt lat="44.52113" lon="5.78588">
        <ele>954.25</ele>
        <time>2014-12-15T13:46:08Z</time>
      </trkpt>
      <trkpt lat="44.52113" lon="5.7859">
        <ele>954.25</ele>
        <time>2014-12-15T13:46:09Z</time>
      </trkpt>
      <trkpt lat="44.52116" lon="5.78595">
        <ele>950.88</ele>
        <time>2014-12-15T13:46:13Z</time>
      </trkpt>
      <trkpt lat="44.52117" lon="5.78596">
        <ele>951.36</ele>
        <time>2014-12-15T13:46:14Z</time>
      </trkpt>
      <trkpt lat="44.52119" lon="5.78602">
        <ele>955.21</ele>
        <time>2014-12-15T13:46:19Z</time>
      </trkpt>
      <trkpt lat="44.52121" lon="5.78606">
        <ele>952.8</ele>
        <time>2014-12-15T13:46:22Z</time>
      </trkpt>
      <trkpt lat="44.52122" lon="5.78611">
        <ele>948.48</ele>
        <time>2014-12-15T13:46:25Z</time>
      </trkpt>
      <trkpt lat="44.52123" lon="5.78612">
        <ele>948.96</ele>
        <time>2014-12-15T13:46:26Z</time>
      </trkpt>
      <trkpt lat="44.52125" lon="5.78615">
        <ele>951.84</ele>
        <time>2014-12-15T13:46:29Z</time>
      </trkpt>
      <trkpt lat="44.52128" lon="5.78618">
        <ele>955.21</ele>
        <time>2014-12-15T13:46:32Z</time>
      </trkpt>
      <trkpt lat="44.52132" lon="5.78623">
        <ele>952.8</ele>
        <time>2014-12-15T13:46:37Z</time>
      </trkpt>
      <trkpt lat="44.52135" lon="5.7863">
        <ele>951.36</ele>
        <time>2014-12-15T13:46:43Z</time>
      </trkpt>
      <trkpt lat="44.52135" lon="5.78632">
        <ele>952.32</ele>
        <time>2014-12-15T13:46:44Z</time>
      </trkpt>
      <trkpt lat="44.52139" lon="5.78637">
        <ele>956.17</ele>
        <time>2014-12-15T13:46:48Z</time>
      </trkpt>
      <trkpt lat="44.52141" lon="5.78638">
        <ele>956.17</ele>
        <time>2014-12-15T13:46:49Z</time>
      </trkpt>
      <trkpt lat="44.52143" lon="5.78642">
        <ele>951.84</ele>
        <time>2014-12-15T13:46:52Z</time>
      </trkpt>
      <trkpt lat="44.52146" lon="5.78648">
        <ele>956.17</ele>
        <time>2014-12-15T13:46:58Z</time>
      </trkpt>
      <trkpt lat="44.5215" lon="5.7865">
        <ele>952.32</ele>
        <time>2014-12-15T13:47:03Z</time>
      </trkpt>
      <trkpt lat="44.5215" lon="5.78651">
        <ele>949.44</ele>
        <time>2014-12-15T13:47:04Z</time>
      </trkpt>
      <trkpt lat="44.5215" lon="5.78652">
        <ele>950.88</ele>
        <time>2014-12-15T13:47:05Z</time>
      </trkpt>
      <trkpt lat="44.52149" lon="5.78656">
        <ele>954.25</ele>
        <time>2014-12-15T13:47:10Z</time>
      </trkpt>
      <trkpt lat="44.52151" lon="5.78658">
        <ele>953.77</ele>
        <time>2014-12-15T13:47:11Z</time>
      </trkpt>
      <trkpt lat="44.52155" lon="5.78664">
        <ele>953.77</ele>
        <time>2014-12-15T13:47:16Z</time>
      </trkpt>
      <trkpt lat="44.5216" lon="5.78669">
        <ele>949.92</ele>
        <time>2014-12-15T13:47:21Z</time>
      </trkpt>
      <trkpt lat="44.52161" lon="5.7867">
        <ele>950.4</ele>
        <time>2014-12-15T13:47:22Z</time>
      </trkpt>
      <trkpt lat="44.52164" lon="5.78675">
        <ele>955.69</ele>
        <time>2014-12-15T13:47:27Z</time>
      </trkpt>
      <trkpt lat="44.52165" lon="5.78676">
        <ele>955.69</ele>
        <time>2014-12-15T13:47:28Z</time>
      </trkpt>
      <trkpt lat="44.52167" lon="5.78678">
        <ele>950.88</ele>
        <time>2014-12-15T13:47:31Z</time>
      </trkpt>
      <trkpt lat="44.52168" lon="5.78678">
        <ele>952.32</ele>
        <time>2014-12-15T13:47:32Z</time>
      </trkpt>
      <trkpt lat="44.5217" lon="5.78682">
        <ele>955.69</ele>
        <time>2014-12-15T13:47:36Z</time>
      </trkpt>
      <trkpt lat="44.5217" lon="5.78682">
        <ele>955.69</ele>
        <time>2014-12-15T13:47:37Z</time>
      </trkpt>
      <trkpt lat="44.52171" lon="5.78685">
        <ele>954.25</ele>
        <time>2014-12-15T13:47:39Z</time>
      </trkpt>
      <trkpt lat="44.52184" lon="5.78702">
        <ele>953.77</ele>
        <time>2014-12-15T13:47:50Z</time>
      </trkpt>
      <trkpt lat="44.52185" lon="5.78705">
        <ele>956.17</ele>
        <time>2014-12-15T13:47:53Z</time>
      </trkpt>
      <trkpt lat="44.52187" lon="5.78707">
        <ele>953.28</ele>
        <time>2014-12-15T13:47:55Z</time>
      </trkpt>
      <trkpt lat="44.52189" lon="5.78723">
        <ele>949.92</ele>
        <time>2014-12-15T13:48:05Z</time>
      </trkpt>
      <trkpt lat="44.5219" lon="5.78725">
        <ele>953.77</ele>
        <time>2014-12-15T13:48:08Z</time>
      </trkpt>
      <trkpt lat="44.52194" lon="5.78731">
        <ele>951.36</ele>
        <time>2014-12-15T13:48:14Z</time>
      </trkpt>
      <trkpt lat="44.52195" lon="5.78734">
        <ele>954.73</ele>
        <time>2014-12-15T13:48:17Z</time>
      </trkpt>
      <trkpt lat="44.522" lon="5.7874">
        <ele>953.28</ele>
        <time>2014-12-15T13:48:23Z</time>
      </trkpt>
      <trkpt lat="44.52201" lon="5.78742">
        <ele>954.73</ele>
        <time>2014-12-15T13:48:25Z</time>
      </trkpt>
      <trkpt lat="44.52202" lon="5.78745">
        <ele>953.77</ele>
        <time>2014-12-15T13:48:29Z</time>
      </trkpt>
      <trkpt lat="44.52202" lon="5.78746">
        <ele>952.8</ele>
        <time>2014-12-15T13:48:31Z</time>
      </trkpt>
      <trkpt lat="44.52203" lon="5.78749">
        <ele>950.4</ele>
        <time>2014-12-15T13:48:33Z</time>
      </trkpt>
      <trkpt lat="44.52205" lon="5.78752">
        <ele>954.25</ele>
        <time>2014-12-15T13:48:36Z</time>
      </trkpt>
      <trkpt lat="44.52205" lon="5.78756">
        <ele>957.13</ele>
        <time>2014-12-15T13:48:39Z</time>
      </trkpt>
      <trkpt lat="44.52206" lon="5.78757">
        <ele>957.13</ele>
        <time>2014-12-15T13:48:40Z</time>
      </trkpt>
      <trkpt lat="44.5221" lon="5.7876">
        <ele>950.88</ele>
        <time>2014-12-15T13:48:42Z</time>
      </trkpt>
      <trkpt lat="44.52212" lon="5.78764">
        <ele>954.25</ele>
        <time>2014-12-15T13:48:45Z</time>
      </trkpt>
      <trkpt lat="44.52218" lon="5.78769">
        <ele>956.17</ele>
        <time>2014-12-15T13:48:48Z</time>
      </trkpt>
      <trkpt lat="44.5222" lon="5.78771">
        <ele>954.73</ele>
        <time>2014-12-15T13:48:50Z</time>
      </trkpt>
      <trkpt lat="44.52225" lon="5.78784">
        <ele>956.65</ele>
        <time>2014-12-15T13:49:01Z</time>
      </trkpt>
      <trkpt lat="44.52226" lon="5.78786">
        <ele>954.25</ele>
        <time>2014-12-15T13:49:03Z</time>
      </trkpt>
      <trkpt lat="44.52228" lon="5.78788">
        <ele>955.21</ele>
        <time>2014-12-15T13:49:05Z</time>
      </trkpt>
      <trkpt lat="44.52228" lon="5.78794">
        <ele>953.77</ele>
        <time>2014-12-15T13:49:10Z</time>
      </trkpt>
      <trkpt lat="44.52232" lon="5.78806">
        <ele>952.32</ele>
        <time>2014-12-15T13:49:22Z</time>
      </trkpt>
      <trkpt lat="44.5223" lon="5.78809">
        <ele>954.73</ele>
        <time>2014-12-15T13:49:23Z</time>
      </trkpt>
      <trkpt lat="44.52225" lon="5.78818">
        <ele>955.69</ele>
        <time>2014-12-15T13:49:29Z</time>
      </trkpt>
      <trkpt lat="44.52219" lon="5.78832">
        <ele>954.73</ele>
        <time>2014-12-15T13:49:40Z</time>
      </trkpt>
      <trkpt lat="44.52217" lon="5.78836">
        <ele>957.13</ele>
        <time>2014-12-15T13:49:42Z</time>
      </trkpt>
      <trkpt lat="44.52212" lon="5.78843">
        <ele>953.28</ele>
        <time>2014-12-15T13:49:48Z</time>
      </trkpt>
      <trkpt lat="44.52206" lon="5.78856">
        <ele>954.73</ele>
        <time>2014-12-15T13:49:58Z</time>
      </trkpt>
      <trkpt lat="44.52202" lon="5.78862">
        <ele>951.84</ele>
        <time>2014-12-15T13:50:02Z</time>
      </trkpt>
      <trkpt lat="44.52199" lon="5.78868">
        <ele>954.73</ele>
        <time>2014-12-15T13:50:06Z</time>
      </trkpt>
      <trkpt lat="44.52191" lon="5.78881">
        <ele>950.88</ele>
        <time>2014-12-15T13:50:18Z</time>
      </trkpt>
      <trkpt lat="44.52189" lon="5.78885">
        <ele>954.25</ele>
        <time>2014-12-15T13:50:21Z</time>
      </trkpt>
      <trkpt lat="44.52188" lon="5.78886">
        <ele>954.73</ele>
        <time>2014-12-15T13:50:22Z</time>
      </trkpt>
      <trkpt lat="44.52185" lon="5.78892">
        <ele>952.8</ele>
        <time>2014-12-15T13:50:27Z</time>
      </trkpt>
      <trkpt lat="44.52186" lon="5.78909">
        <ele>949.92</ele>
        <time>2014-12-15T13:50:37Z</time>
      </trkpt>
      <trkpt lat="44.52186" lon="5.78913">
        <ele>953.28</ele>
        <time>2014-12-15T13:50:41Z</time>
      </trkpt>
      <trkpt lat="44.52187" lon="5.78917">
        <ele>955.69</ele>
        <time>2014-12-15T13:50:43Z</time>
      </trkpt>
      <trkpt lat="44.52188" lon="5.7892">
        <ele>948.96</ele>
        <time>2014-12-15T13:50:45Z</time>
      </trkpt>
      <trkpt lat="44.52188" lon="5.78921">
        <ele>951.36</ele>
        <time>2014-12-15T13:50:46Z</time>
      </trkpt>
      <trkpt lat="44.52188" lon="5.78924">
        <ele>954.73</ele>
        <time>2014-12-15T13:50:48Z</time>
      </trkpt>
      <trkpt lat="44.52188" lon="5.78928">
        <ele>956.17</ele>
        <time>2014-12-15T13:50:51Z</time>
      </trkpt>
      <trkpt lat="44.52188" lon="5.78929">
        <ele>952.8</ele>
        <time>2014-12-15T13:50:52Z</time>
      </trkpt>
      <trkpt lat="44.52188" lon="5.7893">
        <ele>953.28</ele>
        <time>2014-12-15T13:50:53Z</time>
      </trkpt>
      <trkpt lat="44.52192" lon="5.78949">
        <ele>950.4</ele>
        <time>2014-12-15T13:51:05Z</time>
      </trkpt>
      <trkpt lat="44.52193" lon="5.7895">
        <ele>950.88</ele>
        <time>2014-12-15T13:51:06Z</time>
      </trkpt>
      <trkpt lat="44.52193" lon="5.78954">
        <ele>954.25</ele>
        <time>2014-12-15T13:51:09Z</time>
      </trkpt>
      <trkpt lat="44.52193" lon="5.78958">
        <ele>955.69</ele>
        <time>2014-12-15T13:51:11Z</time>
      </trkpt>
      <trkpt lat="44.52196" lon="5.78963">
        <ele>954.25</ele>
        <time>2014-12-15T13:51:16Z</time>
      </trkpt>
      <trkpt lat="44.52196" lon="5.78979">
        <ele>951.36</ele>
        <time>2014-12-15T13:51:27Z</time>
      </trkpt>
      <trkpt lat="44.52196" lon="5.7898">
        <ele>951.36</ele>
        <time>2014-12-15T13:51:28Z</time>
      </trkpt>
      <trkpt lat="44.52196" lon="5.78983">
        <ele>953.28</ele>
        <time>2014-12-15T13:51:31Z</time>
      </trkpt>
      <trkpt lat="44.52196" lon="5.78985">
        <ele>956.65</ele>
        <time>2014-12-15T13:51:32Z</time>
      </trkpt>
      <trkpt lat="44.52196" lon="5.78987">
        <ele>954.73</ele>
        <time>2014-12-15T13:51:33Z</time>
      </trkpt>
      <trkpt lat="44.52197" lon="5.7899">
        <ele>953.28</ele>
        <time>2014-12-15T13:51:35Z</time>
      </trkpt>
      <trkpt lat="44.52197" lon="5.78992">
        <ele>956.65</ele>
        <time>2014-12-15T13:51:37Z</time>
      </trkpt>
      <trkpt lat="44.52197" lon="5.78993">
        <ele>956.17</ele>
        <time>2014-12-15T13:51:38Z</time>
      </trkpt>
      <trkpt lat="44.52197" lon="5.78994">
        <ele>952.8</ele>
        <time>2014-12-15T13:51:39Z</time>
      </trkpt>
      <trkpt lat="44.52197" lon="5.78996">
        <ele>953.28</ele>
        <time>2014-12-15T13:51:40Z</time>
      </trkpt>
      <trkpt lat="44.52196" lon="5.78998">
        <ele>954.25</ele>
        <time>2014-12-15T13:51:42Z</time>
      </trkpt>
      <trkpt lat="44.52197" lon="5.79">
        <ele>953.28</ele>
        <time>2014-12-15T13:51:44Z</time>
      </trkpt>
      <trkpt lat="44.52196" lon="5.79002">
        <ele>954.73</ele>
        <time>2014-12-15T13:52:01Z</time>
      </trkpt>
      <trkpt lat="44.52196" lon="5.79002">
        <ele>955.21</ele>
        <time>2014-12-15T13:52:11Z</time>
      </trkpt>
      <trkpt lat="44.52196" lon="5.79001">
        <ele>953.28</ele>
        <time>2014-12-15T13:53:00Z</time>
      </trkpt>
      <trkpt lat="44.52195" lon="5.79002">
        <ele>954.73</ele>
        <time>2014-12-15T13:54:02Z</time>
      </trkpt>
      <trkpt lat="44.52195" lon="5.79002">
        <ele>954.73</ele>
        <time>2014-12-15T13:55:58Z</time>
      </trkpt>
      <trkpt lat="44.52195" lon="5.79001">
        <ele>953.77</ele>
        <time>2014-12-15T13:56:36Z</time>
      </trkpt>
      <trkpt lat="44.52196" lon="5.79003">
        <ele>954.73</ele>
        <time>2014-12-15T13:57:03Z</time>
      </trkpt>
      <trkpt lat="44.52199" lon="5.79009">
        <ele>953.77</ele>
        <time>2014-12-15T13:57:18Z</time>
      </trkpt>
      <trkpt lat="44.52204" lon="5.79018">
        <ele>955.21</ele>
        <time>2014-12-15T13:57:28Z</time>
      </trkpt>
      <trkpt lat="44.52205" lon="5.79019">
        <ele>952.32</ele>
        <time>2014-12-15T13:57:30Z</time>
      </trkpt>
      <trkpt lat="44.52206" lon="5.7902">
        <ele>953.77</ele>
        <time>2014-12-15T13:57:31Z</time>
      </trkpt>
      <trkpt lat="44.52208" lon="5.79023">
        <ele>955.21</ele>
        <time>2014-12-15T13:57:34Z</time>
      </trkpt>
      <trkpt lat="44.52213" lon="5.79029">
        <ele>955.69</ele>
        <time>2014-12-15T13:57:42Z</time>
      </trkpt>
      <trkpt lat="44.52213" lon="5.79029">
        <ele>954.25</ele>
        <time>2014-12-15T13:57:44Z</time>
      </trkpt>
      <trkpt lat="44.52222" lon="5.79037">
        <ele>951.84</ele>
        <time>2014-12-15T13:57:57Z</time>
      </trkpt>
      <trkpt lat="44.52223" lon="5.79037">
        <ele>953.77</ele>
        <time>2014-12-15T13:57:58Z</time>
      </trkpt>
      <trkpt lat="44.52233" lon="5.79042">
        <ele>957.13</ele>
        <time>2014-12-15T13:58:09Z</time>
      </trkpt>
      <trkpt lat="44.52234" lon="5.79043">
        <ele>957.13</ele>
        <time>2014-12-15T13:58:10Z</time>
      </trkpt>
      <trkpt lat="44.52235" lon="5.79044">
        <ele>952.32</ele>
        <time>2014-12-15T13:58:12Z</time>
      </trkpt>
      <trkpt lat="44.52236" lon="5.79044">
        <ele>954.73</ele>
        <time>2014-12-15T13:58:13Z</time>
      </trkpt>
      <trkpt lat="44.52238" lon="5.79046">
        <ele>956.17</ele>
        <time>2014-12-15T13:58:15Z</time>
      </trkpt>
      <trkpt lat="44.52245" lon="5.79054">
        <ele>955.69</ele>
        <time>2014-12-15T13:58:22Z</time>
      </trkpt>
      <trkpt lat="44.52248" lon="5.79057">
        <ele>953.77</ele>
        <time>2014-12-15T13:58:25Z</time>
      </trkpt>
      <trkpt lat="44.52249" lon="5.79058">
        <ele>957.13</ele>
        <time>2014-12-15T13:58:27Z</time>
      </trkpt>
      <trkpt lat="44.52249" lon="5.79058">
        <ele>956.17</ele>
        <time>2014-12-15T13:58:28Z</time>
      </trkpt>
      <trkpt lat="44.52258" lon="5.79062">
        <ele>956.65</ele>
        <time>2014-12-15T13:58:42Z</time>
      </trkpt>
      <trkpt lat="44.52258" lon="5.79062">
        <ele>956.17</ele>
        <time>2014-12-15T13:59:01Z</time>
      </trkpt>
      <trkpt lat="44.52261" lon="5.79063">
        <ele>954.25</ele>
        <time>2014-12-15T13:59:05Z</time>
      </trkpt>
      <trkpt lat="44.52263" lon="5.79065">
        <ele>957.61</ele>
        <time>2014-12-15T13:59:07Z</time>
      </trkpt>
      <trkpt lat="44.52274" lon="5.79072">
        <ele>957.13</ele>
        <time>2014-12-15T13:59:21Z</time>
      </trkpt>
      <trkpt lat="44.52274" lon="5.79072">
        <ele>953.77</ele>
        <time>2014-12-15T13:59:27Z</time>
      </trkpt>
      <trkpt lat="44.52274" lon="5.79072">
        <ele>957.13</ele>
        <time>2014-12-15T13:59:28Z</time>
      </trkpt>
      <trkpt lat="44.52279" lon="5.79077">
        <ele>957.61</ele>
        <time>2014-12-15T13:59:34Z</time>
      </trkpt>
      <trkpt lat="44.52282" lon="5.79083">
        <ele>953.77</ele>
        <time>2014-12-15T13:59:38Z</time>
      </trkpt>
      <trkpt lat="44.52282" lon="5.79085">
        <ele>954.73</ele>
        <time>2014-12-15T13:59:39Z</time>
      </trkpt>
      <trkpt lat="44.52283" lon="5.79087">
        <ele>955.69</ele>
        <time>2014-12-15T13:59:42Z</time>
      </trkpt>
      <trkpt lat="44.52284" lon="5.7909">
        <ele>959.53</ele>
        <time>2014-12-15T13:59:44Z</time>
      </trkpt>
      <trkpt lat="44.52286" lon="5.79096">
        <ele>957.61</ele>
        <time>2014-12-15T13:59:49Z</time>
      </trkpt>
      <trkpt lat="44.52288" lon="5.79098">
        <ele>958.57</ele>
        <time>2014-12-15T13:59:52Z</time>
      </trkpt>
      <trkpt lat="44.52292" lon="5.79101">
        <ele>954.25</ele>
        <time>2014-12-15T13:59:55Z</time>
      </trkpt>
      <trkpt lat="44.52294" lon="5.79105">
        <ele>955.21</ele>
        <time>2014-12-15T13:59:58Z</time>
      </trkpt>
      <trkpt lat="44.52295" lon="5.79106">
        <ele>959.05</ele>
        <time>2014-12-15T14:00:00Z</time>
      </trkpt>
      <trkpt lat="44.52303" lon="5.79117">
        <ele>959.53</ele>
        <time>2014-12-15T14:00:09Z</time>
      </trkpt>
      <trkpt lat="44.52304" lon="5.79123">
        <ele>956.65</ele>
        <time>2014-12-15T14:00:13Z</time>
      </trkpt>
      <trkpt lat="44.52309" lon="5.79139">
        <ele>955.69</ele>
        <time>2014-12-15T14:00:23Z</time>
      </trkpt>
      <trkpt lat="44.52311" lon="5.79144">
        <ele>960.01</ele>
        <time>2014-12-15T14:00:27Z</time>
      </trkpt>
      <trkpt lat="44.52312" lon="5.79146">
        <ele>959.53</ele>
        <time>2014-12-15T14:00:28Z</time>
      </trkpt>
      <trkpt lat="44.52317" lon="5.79151">
        <ele>960.01</ele>
        <time>2014-12-15T14:00:34Z</time>
      </trkpt>
      <trkpt lat="44.52319" lon="5.79155">
        <ele>959.05</ele>
        <time>2014-12-15T14:00:37Z</time>
      </trkpt>
      <trkpt lat="44.5232" lon="5.79158">
        <ele>956.65</ele>
        <time>2014-12-15T14:00:39Z</time>
      </trkpt>
      <trkpt lat="44.52323" lon="5.79161">
        <ele>959.53</ele>
        <time>2014-12-15T14:00:43Z</time>
      </trkpt>
      <trkpt lat="44.52327" lon="5.79166">
        <ele>956.65</ele>
        <time>2014-12-15T14:00:48Z</time>
      </trkpt>
      <trkpt lat="44.52328" lon="5.79167">
        <ele>957.13</ele>
        <time>2014-12-15T14:00:49Z</time>
      </trkpt>
      <trkpt lat="44.52328" lon="5.79167">
        <ele>959.53</ele>
        <time>2014-12-15T14:00:50Z</time>
      </trkpt>
      <trkpt lat="44.52331" lon="5.79169">
        <ele>961.46</ele>
        <time>2014-12-15T14:00:53Z</time>
      </trkpt>
      <trkpt lat="44.52345" lon="5.79172">
        <ele>955.21</ele>
        <time>2014-12-15T14:01:06Z</time>
      </trkpt>
      <trkpt lat="44.52346" lon="5.79172">
        <ele>957.61</ele>
        <time>2014-12-15T14:01:07Z</time>
      </trkpt>
      <trkpt lat="44.52347" lon="5.79173">
        <ele>960.49</ele>
        <time>2014-12-15T14:01:08Z</time>
      </trkpt>
      <trkpt lat="44.52348" lon="5.79173">
        <ele>959.05</ele>
        <time>2014-12-15T14:01:09Z</time>
      </trkpt>
      <trkpt lat="44.52354" lon="5.79175">
        <ele>959.53</ele>
        <time>2014-12-15T14:01:15Z</time>
      </trkpt>
      <trkpt lat="44.5237" lon="5.79183">
        <ele>959.53</ele>
        <time>2014-12-15T14:01:29Z</time>
      </trkpt>
      <trkpt lat="44.52374" lon="5.79187">
        <ele>955.21</ele>
        <time>2014-12-15T14:01:34Z</time>
      </trkpt>
      <trkpt lat="44.52381" lon="5.7919">
        <ele>958.57</ele>
        <time>2014-12-15T14:01:40Z</time>
      </trkpt>
      <trkpt lat="44.52383" lon="5.79192">
        <ele>958.57</ele>
        <time>2014-12-15T14:01:41Z</time>
      </trkpt>
      <trkpt lat="44.52386" lon="5.79196">
        <ele>959.05</ele>
        <time>2014-12-15T14:01:44Z</time>
      </trkpt>
      <trkpt lat="44.5239" lon="5.792">
        <ele>958.09</ele>
        <time>2014-12-15T14:01:49Z</time>
      </trkpt>
      <trkpt lat="44.52396" lon="5.79212">
        <ele>959.05</ele>
        <time>2014-12-15T14:01:58Z</time>
      </trkpt>
      <trkpt lat="44.52399" lon="5.79217">
        <ele>955.69</ele>
        <time>2014-12-15T14:02:02Z</time>
      </trkpt>
      <trkpt lat="44.52399" lon="5.79219">
        <ele>956.17</ele>
        <time>2014-12-15T14:02:03Z</time>
      </trkpt>
      <trkpt lat="44.52401" lon="5.79223">
        <ele>960.01</ele>
        <time>2014-12-15T14:02:07Z</time>
      </trkpt>
      <trkpt lat="44.52401" lon="5.79226">
        <ele>960.98</ele>
        <time>2014-12-15T14:02:09Z</time>
      </trkpt>
      <trkpt lat="44.5241" lon="5.79241">
        <ele>961.94</ele>
        <time>2014-12-15T14:02:20Z</time>
      </trkpt>
      <trkpt lat="44.52411" lon="5.79242">
        <ele>961.94</ele>
        <time>2014-12-15T14:02:21Z</time>
      </trkpt>
      <trkpt lat="44.52419" lon="5.79256">
        <ele>963.38</ele>
        <time>2014-12-15T14:02:35Z</time>
      </trkpt>
      <trkpt lat="44.52424" lon="5.79262">
        <ele>956.65</ele>
        <time>2014-12-15T14:02:40Z</time>
      </trkpt>
      <trkpt lat="44.52425" lon="5.79263">
        <ele>959.53</ele>
        <time>2014-12-15T14:02:41Z</time>
      </trkpt>
      <trkpt lat="44.52427" lon="5.79267">
        <ele>961.46</ele>
        <time>2014-12-15T14:02:44Z</time>
      </trkpt>
      <trkpt lat="44.52431" lon="5.79279">
        <ele>958.57</ele>
        <time>2014-12-15T14:02:52Z</time>
      </trkpt>
      <trkpt lat="44.52433" lon="5.79283">
        <ele>962.9</ele>
        <time>2014-12-15T14:02:56Z</time>
      </trkpt>
      <trkpt lat="44.52434" lon="5.79285">
        <ele>966.74</ele>
        <time>2014-12-15T14:02:58Z</time>
      </trkpt>
      <trkpt lat="44.52435" lon="5.79287">
        <ele>966.74</ele>
        <time>2014-12-15T14:02:59Z</time>
      </trkpt>
      <trkpt lat="44.52437" lon="5.79289">
        <ele>961.46</ele>
        <time>2014-12-15T14:03:02Z</time>
      </trkpt>
      <trkpt lat="44.52437" lon="5.7929">
        <ele>961.94</ele>
        <time>2014-12-15T14:03:03Z</time>
      </trkpt>
      <trkpt lat="44.52438" lon="5.79291">
        <ele>965.3</ele>
        <time>2014-12-15T14:03:04Z</time>
      </trkpt>
      <trkpt lat="44.5244" lon="5.79294">
        <ele>966.74</ele>
        <time>2014-12-15T14:03:06Z</time>
      </trkpt>
      <trkpt lat="44.5244" lon="5.79295">
        <ele>961.94</ele>
        <time>2014-12-15T14:03:07Z</time>
      </trkpt>
      <trkpt lat="44.5244" lon="5.79296">
        <ele>963.86</ele>
        <time>2014-12-15T14:03:08Z</time>
      </trkpt>
      <trkpt lat="44.5244" lon="5.79297">
        <ele>964.34</ele>
        <time>2014-12-15T14:03:10Z</time>
      </trkpt>
      <trkpt lat="44.52443" lon="5.79307">
        <ele>968.18</ele>
        <time>2014-12-15T14:03:20Z</time>
      </trkpt>
      <trkpt lat="44.52444" lon="5.79308">
        <ele>962.42</ele>
        <time>2014-12-15T14:03:21Z</time>
      </trkpt>
      <trkpt lat="44.52444" lon="5.79308">
        <ele>965.78</ele>
        <time>2014-12-15T14:03:22Z</time>
      </trkpt>
      <trkpt lat="44.52445" lon="5.79309">
        <ele>962.9</ele>
        <time>2014-12-15T14:03:24Z</time>
      </trkpt>
      <trkpt lat="44.52445" lon="5.79309">
        <ele>966.74</ele>
        <time>2014-12-15T14:03:25Z</time>
      </trkpt>
      <trkpt lat="44.52445" lon="5.7931">
        <ele>965.3</ele>
        <time>2014-12-15T14:03:45Z</time>
      </trkpt>
      <trkpt lat="44.52445" lon="5.7931">
        <ele>963.38</ele>
        <time>2014-12-15T14:03:47Z</time>
      </trkpt>
      <trkpt lat="44.52446" lon="5.79312">
        <ele>961.46</ele>
        <time>2014-12-15T14:03:49Z</time>
      </trkpt>
      <trkpt lat="44.52447" lon="5.79313">
        <ele>965.78</ele>
        <time>2014-12-15T14:03:51Z</time>
      </trkpt>
      <trkpt lat="44.52446" lon="5.79318">
        <ele>970.11</ele>
        <time>2014-12-15T14:03:54Z</time>
      </trkpt>
      <trkpt lat="44.52447" lon="5.79319">
        <ele>966.74</ele>
        <time>2014-12-15T14:03:55Z</time>
      </trkpt>
      <trkpt lat="44.52448" lon="5.79322">
        <ele>964.34</ele>
        <time>2014-12-15T14:04:00Z</time>
      </trkpt>
      <trkpt lat="44.52449" lon="5.79323">
        <ele>967.7</ele>
        <time>2014-12-15T14:04:01Z</time>
      </trkpt>
      <trkpt lat="44.52449" lon="5.79323">
        <ele>967.22</ele>
        <time>2014-12-15T14:04:02Z</time>
      </trkpt>
      <trkpt lat="44.5245" lon="5.79326">
        <ele>966.26</ele>
        <time>2014-12-15T14:04:04Z</time>
      </trkpt>
      <trkpt lat="44.52452" lon="5.7933">
        <ele>967.22</ele>
        <time>2014-12-15T14:04:08Z</time>
      </trkpt>
      <trkpt lat="44.52452" lon="5.79334">
        <ele>965.3</ele>
        <time>2014-12-15T14:04:12Z</time>
      </trkpt>
      <trkpt lat="44.52452" lon="5.79335">
        <ele>965.3</ele>
        <time>2014-12-15T14:04:14Z</time>
      </trkpt>
      <trkpt lat="44.52453" lon="5.79342">
        <ele>965.78</ele>
        <time>2014-12-15T14:04:18Z</time>
      </trkpt>
      <trkpt lat="44.52456" lon="5.79352">
        <ele>964.82</ele>
        <time>2014-12-15T14:04:28Z</time>
      </trkpt>
      <trkpt lat="44.52462" lon="5.79362">
        <ele>964.34</ele>
        <time>2014-12-15T14:04:39Z</time>
      </trkpt>
      <trkpt lat="44.52468" lon="5.7937">
        <ele>962.9</ele>
        <time>2014-12-15T14:04:50Z</time>
      </trkpt>
      <trkpt lat="44.52474" lon="5.79382">
        <ele>961.94</ele>
        <time>2014-12-15T14:05:01Z</time>
      </trkpt>
      <trkpt lat="44.5248" lon="5.79389">
        <ele>960.49</ele>
        <time>2014-12-15T14:05:12Z</time>
      </trkpt>
      <trkpt lat="44.52481" lon="5.7939">
        <ele>960.01</ele>
        <time>2014-12-15T14:05:13Z</time>
      </trkpt>
      <trkpt lat="44.52486" lon="5.794">
        <ele>960.49</ele>
        <time>2014-12-15T14:05:23Z</time>
      </trkpt>
      <trkpt lat="44.52488" lon="5.79403">
        <ele>959.53</ele>
        <time>2014-12-15T14:05:27Z</time>
      </trkpt>
      <trkpt lat="44.52492" lon="5.79414">
        <ele>958.57</ele>
        <time>2014-12-15T14:05:38Z</time>
      </trkpt>
      <trkpt lat="44.52496" lon="5.79427">
        <ele>960.98</ele>
        <time>2014-12-15T14:05:50Z</time>
      </trkpt>
      <trkpt lat="44.52498" lon="5.7943">
        <ele>958.57</ele>
        <time>2014-12-15T14:05:53Z</time>
      </trkpt>
      <trkpt lat="44.52504" lon="5.79441">
        <ele>958.09</ele>
        <time>2014-12-15T14:06:06Z</time>
      </trkpt>
      <trkpt lat="44.52507" lon="5.79445">
        <ele>957.61</ele>
        <time>2014-12-15T14:06:13Z</time>
      </trkpt>
      <trkpt lat="44.52511" lon="5.79451">
        <ele>956.17</ele>
        <time>2014-12-15T14:06:20Z</time>
      </trkpt>
      <trkpt lat="44.5252" lon="5.79464">
        <ele>955.21</ele>
        <time>2014-12-15T14:06:35Z</time>
      </trkpt>
      <trkpt lat="44.52526" lon="5.79472">
        <ele>953.77</ele>
        <time>2014-12-15T14:06:45Z</time>
      </trkpt>
      <trkpt lat="44.52528" lon="5.79477">
        <ele>953.28</ele>
        <time>2014-12-15T14:06:50Z</time>
      </trkpt>
      <trkpt lat="44.52534" lon="5.79486">
        <ele>952.32</ele>
        <time>2014-12-15T14:07:02Z</time>
      </trkpt>
      <trkpt lat="44.52541" lon="5.79495">
        <ele>951.84</ele>
        <time>2014-12-15T14:07:14Z</time>
      </trkpt>
      <trkpt lat="44.52547" lon="5.79503">
        <ele>950.4</ele>
        <time>2014-12-15T14:07:25Z</time>
      </trkpt>
      <trkpt lat="44.52555" lon="5.7951">
        <ele>948</ele>
        <time>2014-12-15T14:07:37Z</time>
      </trkpt>
      <trkpt lat="44.5256" lon="5.79514">
        <ele>947.52</ele>
        <time>2014-12-15T14:07:44Z</time>
      </trkpt>
      <trkpt lat="44.52565" lon="5.7952">
        <ele>947.52</ele>
        <time>2014-12-15T14:07:53Z</time>
      </trkpt>
      <trkpt lat="44.52568" lon="5.79527">
        <ele>946.07</ele>
        <time>2014-12-15T14:08:00Z</time>
      </trkpt>
      <trkpt lat="44.52576" lon="5.79537">
        <ele>946.07</ele>
        <time>2014-12-15T14:08:13Z</time>
      </trkpt>
      <trkpt lat="44.52578" lon="5.79539">
        <ele>945.11</ele>
        <time>2014-12-15T14:08:16Z</time>
      </trkpt>
      <trkpt lat="44.5258" lon="5.79541">
        <ele>941.75</ele>
        <time>2014-12-15T14:08:19Z</time>
      </trkpt>
      <trkpt lat="44.52581" lon="5.79541">
        <ele>942.23</ele>
        <time>2014-12-15T14:08:20Z</time>
      </trkpt>
      <trkpt lat="44.52582" lon="5.79542">
        <ele>944.63</ele>
        <time>2014-12-15T14:08:21Z</time>
      </trkpt>
      <trkpt lat="44.52586" lon="5.79548">
        <ele>942.71</ele>
        <time>2014-12-15T14:08:28Z</time>
      </trkpt>
      <trkpt lat="44.52594" lon="5.79557">
        <ele>943.19</ele>
        <time>2014-12-15T14:08:39Z</time>
      </trkpt>
      <trkpt lat="44.52598" lon="5.79564">
        <ele>942.23</ele>
        <time>2014-12-15T14:08:44Z</time>
      </trkpt>
      <trkpt lat="44.52607" lon="5.79576">
        <ele>944.15</ele>
        <time>2014-12-15T14:08:55Z</time>
      </trkpt>
      <trkpt lat="44.52608" lon="5.79576">
        <ele>941.27</ele>
        <time>2014-12-15T14:08:56Z</time>
      </trkpt>
      <trkpt lat="44.52609" lon="5.79576">
        <ele>941.75</ele>
        <time>2014-12-15T14:08:57Z</time>
      </trkpt>
      <trkpt lat="44.52614" lon="5.79582">
        <ele>941.27</ele>
        <time>2014-12-15T14:09:03Z</time>
      </trkpt>
      <trkpt lat="44.52621" lon="5.7959">
        <ele>943.19</ele>
        <time>2014-12-15T14:09:12Z</time>
      </trkpt>
      <trkpt lat="44.52624" lon="5.79592">
        <ele>941.27</ele>
        <time>2014-12-15T14:09:15Z</time>
      </trkpt>
      <trkpt lat="44.52629" lon="5.79598">
        <ele>940.31</ele>
        <time>2014-12-15T14:09:22Z</time>
      </trkpt>
      <trkpt lat="44.5263" lon="5.79599">
        <ele>943.67</ele>
        <time>2014-12-15T14:09:23Z</time>
      </trkpt>
      <trkpt lat="44.52634" lon="5.79604">
        <ele>941.27</ele>
        <time>2014-12-15T14:09:29Z</time>
      </trkpt>
      <trkpt lat="44.52638" lon="5.79612">
        <ele>941.75</ele>
        <time>2014-12-15T14:09:36Z</time>
      </trkpt>
      <trkpt lat="44.52639" lon="5.79614">
        <ele>942.23</ele>
        <time>2014-12-15T14:09:50Z</time>
      </trkpt>
      <trkpt lat="44.52641" lon="5.79613">
        <ele>941.27</ele>
        <time>2014-12-15T14:09:52Z</time>
      </trkpt>
      <trkpt lat="44.52644" lon="5.79624">
        <ele>942.23</ele>
        <time>2014-12-15T14:10:04Z</time>
      </trkpt>
      <trkpt lat="44.52646" lon="5.79628">
        <ele>939.35</ele>
        <time>2014-12-15T14:10:07Z</time>
      </trkpt>
      <trkpt lat="44.52648" lon="5.7963">
        <ele>943.19</ele>
        <time>2014-12-15T14:10:10Z</time>
      </trkpt>
      <trkpt lat="44.52648" lon="5.79632">
        <ele>942.71</ele>
        <time>2014-12-15T14:10:11Z</time>
      </trkpt>
      <trkpt lat="44.5265" lon="5.79635">
        <ele>939.35</ele>
        <time>2014-12-15T14:10:13Z</time>
      </trkpt>
      <trkpt lat="44.52651" lon="5.79636">
        <ele>939.35</ele>
        <time>2014-12-15T14:10:14Z</time>
      </trkpt>
      <trkpt lat="44.52654" lon="5.79639">
        <ele>942.71</ele>
        <time>2014-12-15T14:10:17Z</time>
      </trkpt>
      <trkpt lat="44.52657" lon="5.79641">
        <ele>946.07</ele>
        <time>2014-12-15T14:10:19Z</time>
      </trkpt>
      <trkpt lat="44.52658" lon="5.79642">
        <ele>945.59</ele>
        <time>2014-12-15T14:10:20Z</time>
      </trkpt>
      <trkpt lat="44.52659" lon="5.79644">
        <ele>938.38</ele>
        <time>2014-12-15T14:10:22Z</time>
      </trkpt>
      <trkpt lat="44.52659" lon="5.79645">
        <ele>939.83</ele>
        <time>2014-12-15T14:10:23Z</time>
      </trkpt>
      <trkpt lat="44.5266" lon="5.79645">
        <ele>943.19</ele>
        <time>2014-12-15T14:10:24Z</time>
      </trkpt>
      <trkpt lat="44.52662" lon="5.79646">
        <ele>943.67</ele>
        <time>2014-12-15T14:10:26Z</time>
      </trkpt>
      <trkpt lat="44.52663" lon="5.79647">
        <ele>939.35</ele>
        <time>2014-12-15T14:10:27Z</time>
      </trkpt>
      <trkpt lat="44.52664" lon="5.79647">
        <ele>939.83</ele>
        <time>2014-12-15T14:10:28Z</time>
      </trkpt>
      <trkpt lat="44.52666" lon="5.79649">
        <ele>946.07</ele>
        <time>2014-12-15T14:10:30Z</time>
      </trkpt>
      <trkpt lat="44.52667" lon="5.7965">
        <ele>938.86</ele>
        <time>2014-12-15T14:10:33Z</time>
      </trkpt>
      <trkpt lat="44.52668" lon="5.7965">
        <ele>939.35</ele>
        <time>2014-12-15T14:10:34Z</time>
      </trkpt>
      <trkpt lat="44.52669" lon="5.79652">
        <ele>943.67</ele>
        <time>2014-12-15T14:10:35Z</time>
      </trkpt>
      <trkpt lat="44.52671" lon="5.79654">
        <ele>947.52</ele>
        <time>2014-12-15T14:10:37Z</time>
      </trkpt>
      <trkpt lat="44.52672" lon="5.79654">
        <ele>947.52</ele>
        <time>2014-12-15T14:10:38Z</time>
      </trkpt>
      <trkpt lat="44.52672" lon="5.79655">
        <ele>943.19</ele>
        <time>2014-12-15T14:10:39Z</time>
      </trkpt>
      <trkpt lat="44.52675" lon="5.79658">
        <ele>946.07</ele>
        <time>2014-12-15T14:10:42Z</time>
      </trkpt>
      <trkpt lat="44.52676" lon="5.79659">
        <ele>948</ele>
        <time>2014-12-15T14:10:44Z</time>
      </trkpt>
      <trkpt lat="44.52679" lon="5.79662">
        <ele>946.07</ele>
        <time>2014-12-15T14:10:48Z</time>
      </trkpt>
      <trkpt lat="44.52687" lon="5.7967">
        <ele>947.52</ele>
        <time>2014-12-15T14:10:59Z</time>
      </trkpt>
      <trkpt lat="44.52691" lon="5.79674">
        <ele>941.27</ele>
        <time>2014-12-15T14:11:03Z</time>
      </trkpt>
      <trkpt lat="44.52692" lon="5.79674">
        <ele>941.75</ele>
        <time>2014-12-15T14:11:04Z</time>
      </trkpt>
      <trkpt lat="44.52693" lon="5.79675">
        <ele>947.04</ele>
        <time>2014-12-15T14:11:06Z</time>
      </trkpt>
      <trkpt lat="44.52696" lon="5.79677">
        <ele>943.19</ele>
        <time>2014-12-15T14:11:09Z</time>
      </trkpt>
      <trkpt lat="44.52697" lon="5.79677">
        <ele>945.59</ele>
        <time>2014-12-15T14:11:10Z</time>
      </trkpt>
      <trkpt lat="44.52697" lon="5.79678">
        <ele>948.96</ele>
        <time>2014-12-15T14:11:11Z</time>
      </trkpt>
      <trkpt lat="44.52698" lon="5.79678">
        <ele>948</ele>
        <time>2014-12-15T14:11:12Z</time>
      </trkpt>
      <trkpt lat="44.52701" lon="5.7968">
        <ele>946.07</ele>
        <time>2014-12-15T14:11:15Z</time>
      </trkpt>
      <trkpt lat="44.52701" lon="5.79681">
        <ele>947.04</ele>
        <time>2014-12-15T14:11:16Z</time>
      </trkpt>
      <trkpt lat="44.52704" lon="5.79686">
        <ele>947.52</ele>
        <time>2014-12-15T14:11:22Z</time>
      </trkpt>
      <trkpt lat="44.52708" lon="5.79689">
        <ele>947.04</ele>
        <time>2014-12-15T14:11:41Z</time>
      </trkpt>
      <trkpt lat="44.52709" lon="5.79689">
        <ele>946.07</ele>
        <time>2014-12-15T14:11:54Z</time>
      </trkpt>
      <trkpt lat="44.52714" lon="5.79692">
        <ele>947.52</ele>
        <time>2014-12-15T14:12:02Z</time>
      </trkpt>
      <trkpt lat="44.52719" lon="5.79694">
        <ele>946.56</ele>
        <time>2014-12-15T14:12:08Z</time>
      </trkpt>
      <trkpt lat="44.52721" lon="5.79695">
        <ele>945.11</ele>
        <time>2014-12-15T14:12:10Z</time>
      </trkpt>
      <trkpt lat="44.52731" lon="5.79699">
        <ele>946.07</ele>
        <time>2014-12-15T14:12:23Z</time>
      </trkpt>
      <trkpt lat="44.5274" lon="5.79703">
        <ele>945.59</ele>
        <time>2014-12-15T14:12:35Z</time>
      </trkpt>
      <trkpt lat="44.52741" lon="5.79704">
        <ele>944.63</ele>
        <time>2014-12-15T14:12:37Z</time>
      </trkpt>
      <trkpt lat="44.52746" lon="5.79706">
        <ele>944.63</ele>
        <time>2014-12-15T14:12:46Z</time>
      </trkpt>
      <trkpt lat="44.52752" lon="5.79705">
        <ele>943.19</ele>
        <time>2014-12-15T14:12:55Z</time>
      </trkpt>
      <trkpt lat="44.52765" lon="5.79707">
        <ele>941.27</ele>
        <time>2014-12-15T14:13:09Z</time>
      </trkpt>
      <trkpt lat="44.5277" lon="5.79708">
        <ele>938.38</ele>
        <time>2014-12-15T14:13:14Z</time>
      </trkpt>
      <trkpt lat="44.52782" lon="5.79709">
        <ele>938.86</ele>
        <time>2014-12-15T14:13:27Z</time>
      </trkpt>
      <trkpt lat="44.52793" lon="5.79714">
        <ele>936.94</ele>
        <time>2014-12-15T14:13:40Z</time>
      </trkpt>
      <trkpt lat="44.52804" lon="5.79714">
        <ele>934.54</ele>
        <time>2014-12-15T14:13:53Z</time>
      </trkpt>
      <trkpt lat="44.52805" lon="5.79715">
        <ele>934.54</ele>
        <time>2014-12-15T14:13:54Z</time>
      </trkpt>
      <trkpt lat="44.52819" lon="5.79718">
        <ele>935.02</ele>
        <time>2014-12-15T14:14:07Z</time>
      </trkpt>
      <trkpt lat="44.52827" lon="5.79719">
        <ele>933.1</ele>
        <time>2014-12-15T14:14:21Z</time>
      </trkpt>
      <trkpt lat="44.5284" lon="5.7972">
        <ele>931.65</ele>
        <time>2014-12-15T14:14:35Z</time>
      </trkpt>
      <trkpt lat="44.52841" lon="5.7972">
        <ele>932.62</ele>
        <time>2014-12-15T14:14:37Z</time>
      </trkpt>
      <trkpt lat="44.52843" lon="5.7972">
        <ele>930.69</ele>
        <time>2014-12-15T14:14:39Z</time>
      </trkpt>
      <trkpt lat="44.52853" lon="5.79725">
        <ele>927.81</ele>
        <time>2014-12-15T14:14:50Z</time>
      </trkpt>
      <trkpt lat="44.52855" lon="5.79726">
        <ele>929.25</ele>
        <time>2014-12-15T14:14:53Z</time>
      </trkpt>
      <trkpt lat="44.52857" lon="5.79726">
        <ele>927.81</ele>
        <time>2014-12-15T14:14:56Z</time>
      </trkpt>
      <trkpt lat="44.52859" lon="5.79728">
        <ele>928.29</ele>
        <time>2014-12-15T14:14:59Z</time>
      </trkpt>
      <trkpt lat="44.52864" lon="5.79729">
        <ele>926.37</ele>
        <time>2014-12-15T14:15:06Z</time>
      </trkpt>
      <trkpt lat="44.52872" lon="5.79733">
        <ele>924.45</ele>
        <time>2014-12-15T14:15:19Z</time>
      </trkpt>
      <trkpt lat="44.52877" lon="5.79734">
        <ele>923.48</ele>
        <time>2014-12-15T14:15:25Z</time>
      </trkpt>
      <trkpt lat="44.52884" lon="5.79734">
        <ele>922.52</ele>
        <time>2014-12-15T14:15:37Z</time>
      </trkpt>
      <trkpt lat="44.52885" lon="5.79734">
        <ele>921.08</ele>
        <time>2014-12-15T14:15:39Z</time>
      </trkpt>
      <trkpt lat="44.52893" lon="5.79739">
        <ele>920.6</ele>
        <time>2014-12-15T14:15:55Z</time>
      </trkpt>
      <trkpt lat="44.52899" lon="5.79741">
        <ele>917.72</ele>
        <time>2014-12-15T14:16:02Z</time>
      </trkpt>
      <trkpt lat="44.52908" lon="5.79735">
        <ele>915.31</ele>
        <time>2014-12-15T14:16:14Z</time>
      </trkpt>
      <trkpt lat="44.52912" lon="5.79732">
        <ele>915.31</ele>
        <time>2014-12-15T14:16:19Z</time>
      </trkpt>
      <trkpt lat="44.52913" lon="5.79731">
        <ele>913.87</ele>
        <time>2014-12-15T14:16:22Z</time>
      </trkpt>
      <trkpt lat="44.52916" lon="5.7973">
        <ele>913.39</ele>
        <time>2014-12-15T14:16:25Z</time>
      </trkpt>
      <trkpt lat="44.5292" lon="5.79729">
        <ele>912.91</ele>
        <time>2014-12-15T14:16:29Z</time>
      </trkpt>
      <trkpt lat="44.52922" lon="5.79729">
        <ele>911.47</ele>
        <time>2014-12-15T14:16:32Z</time>
      </trkpt>
      <trkpt lat="44.52931" lon="5.79734">
        <ele>910.51</ele>
        <time>2014-12-15T14:16:45Z</time>
      </trkpt>
      <trkpt lat="44.52938" lon="5.79741">
        <ele>908.1</ele>
        <time>2014-12-15T14:16:57Z</time>
      </trkpt>
      <trkpt lat="44.5294" lon="5.79741">
        <ele>906.66</ele>
        <time>2014-12-15T14:16:59Z</time>
      </trkpt>
      <trkpt lat="44.52946" lon="5.79748">
        <ele>905.7</ele>
        <time>2014-12-15T14:17:09Z</time>
      </trkpt>
      <trkpt lat="44.52954" lon="5.79756">
        <ele>904.26</ele>
        <time>2014-12-15T14:17:20Z</time>
      </trkpt>
      <trkpt lat="44.52961" lon="5.79765">
        <ele>900.89</ele>
        <time>2014-12-15T14:17:33Z</time>
      </trkpt>
      <trkpt lat="44.52967" lon="5.79777">
        <ele>897.53</ele>
        <time>2014-12-15T14:17:46Z</time>
      </trkpt>
      <trkpt lat="44.52971" lon="5.79783">
        <ele>897.05</ele>
        <time>2014-12-15T14:17:58Z</time>
      </trkpt>
      <trkpt lat="44.52976" lon="5.79793">
        <ele>893.68</ele>
        <time>2014-12-15T14:18:09Z</time>
      </trkpt>
      <trkpt lat="44.52976" lon="5.79794">
        <ele>893.68</ele>
        <time>2014-12-15T14:18:10Z</time>
      </trkpt>
      <trkpt lat="44.52983" lon="5.79806">
        <ele>890.8</ele>
        <time>2014-12-15T14:18:25Z</time>
      </trkpt>
      <trkpt lat="44.52993" lon="5.79807">
        <ele>889.36</ele>
        <time>2014-12-15T14:18:36Z</time>
      </trkpt>
      <trkpt lat="44.53" lon="5.79808">
        <ele>888.4</ele>
        <time>2014-12-15T14:18:41Z</time>
      </trkpt>
      <trkpt lat="44.53004" lon="5.79808">
        <ele>887.43</ele>
        <time>2014-12-15T14:18:45Z</time>
      </trkpt>
      <trkpt lat="44.53008" lon="5.79809">
        <ele>885.99</ele>
        <time>2014-12-15T14:18:48Z</time>
      </trkpt>
      <trkpt lat="44.53019" lon="5.79814">
        <ele>884.07</ele>
        <time>2014-12-15T14:19:02Z</time>
      </trkpt>
      <trkpt lat="44.53026" lon="5.79813">
        <ele>883.59</ele>
        <time>2014-12-15T14:19:12Z</time>
      </trkpt>
      <trkpt lat="44.53028" lon="5.79811">
        <ele>881.67</ele>
        <time>2014-12-15T14:19:16Z</time>
      </trkpt>
      <trkpt lat="44.53029" lon="5.7981">
        <ele>881.67</ele>
        <time>2014-12-15T14:19:17Z</time>
      </trkpt>
      <trkpt lat="44.53037" lon="5.79797">
        <ele>880.22</ele>
        <time>2014-12-15T14:19:28Z</time>
      </trkpt>
      <trkpt lat="44.53038" lon="5.79791">
        <ele>880.22</ele>
        <time>2014-12-15T14:19:33Z</time>
      </trkpt>
      <trkpt lat="44.53038" lon="5.79781">
        <ele>878.78</ele>
        <time>2014-12-15T14:19:41Z</time>
      </trkpt>
      <trkpt lat="44.53038" lon="5.79775">
        <ele>878.3</ele>
        <time>2014-12-15T14:19:50Z</time>
      </trkpt>
      <trkpt lat="44.53041" lon="5.79772">
        <ele>879.74</ele>
        <time>2014-12-15T14:19:53Z</time>
      </trkpt>
      <trkpt lat="44.53044" lon="5.79766">
        <ele>876.86</ele>
        <time>2014-12-15T14:19:58Z</time>
      </trkpt>
      <trkpt lat="44.53045" lon="5.79761">
        <ele>878.3</ele>
        <time>2014-12-15T14:20:01Z</time>
      </trkpt>
      <trkpt lat="44.53045" lon="5.79754">
        <ele>876.86</ele>
        <time>2014-12-15T14:20:06Z</time>
      </trkpt>
      <trkpt lat="44.53045" lon="5.79752">
        <ele>876.38</ele>
        <time>2014-12-15T14:20:08Z</time>
      </trkpt>
      <trkpt lat="44.53047" lon="5.79745">
        <ele>876.38</ele>
        <time>2014-12-15T14:20:14Z</time>
      </trkpt>
      <trkpt lat="44.53049" lon="5.7974">
        <ele>874.46</ele>
        <time>2014-12-15T14:20:18Z</time>
      </trkpt>
      <trkpt lat="44.5305" lon="5.79738">
        <ele>876.38</ele>
        <time>2014-12-15T14:20:19Z</time>
      </trkpt>
      <trkpt lat="44.53051" lon="5.79735">
        <ele>877.34</ele>
        <time>2014-12-15T14:20:21Z</time>
      </trkpt>
      <trkpt lat="44.53052" lon="5.79735">
        <ele>876.38</ele>
        <time>2014-12-15T14:20:23Z</time>
      </trkpt>
      <trkpt lat="44.53053" lon="5.7973">
        <ele>873.98</ele>
        <time>2014-12-15T14:20:48Z</time>
      </trkpt>
      <trkpt lat="44.53053" lon="5.79726">
        <ele>875.42</ele>
        <time>2014-12-15T14:20:53Z</time>
      </trkpt>
      <trkpt lat="44.53053" lon="5.79723">
        <ele>877.82</ele>
        <time>2014-12-15T14:20:55Z</time>
      </trkpt>
      <trkpt lat="44.53053" lon="5.79722">
        <ele>873.5</ele>
        <time>2014-12-15T14:20:56Z</time>
      </trkpt>
      <trkpt lat="44.53053" lon="5.79721">
        <ele>874.46</ele>
        <time>2014-12-15T14:20:57Z</time>
      </trkpt>
      <trkpt lat="44.53053" lon="5.79719">
        <ele>879.26</ele>
        <time>2014-12-15T14:20:59Z</time>
      </trkpt>
      <trkpt lat="44.53053" lon="5.79718">
        <ele>876.86</ele>
        <time>2014-12-15T14:21:02Z</time>
      </trkpt>
      <trkpt lat="44.53052" lon="5.79711">
        <ele>877.34</ele>
        <time>2014-12-15T14:21:08Z</time>
      </trkpt>
      <trkpt lat="44.5305" lon="5.79699">
        <ele>878.3</ele>
        <time>2014-12-15T14:21:18Z</time>
      </trkpt>
      <trkpt lat="44.53049" lon="5.79697">
        <ele>880.71</ele>
        <time>2014-12-15T14:21:20Z</time>
      </trkpt>
      <trkpt lat="44.53048" lon="5.79692">
        <ele>873.98</ele>
        <time>2014-12-15T14:21:23Z</time>
      </trkpt>
      <trkpt lat="44.53048" lon="5.79691">
        <ele>873.98</ele>
        <time>2014-12-15T14:21:24Z</time>
      </trkpt>
      <trkpt lat="44.53049" lon="5.79689">
        <ele>879.26</ele>
        <time>2014-12-15T14:21:26Z</time>
      </trkpt>
      <trkpt lat="44.53049" lon="5.79685">
        <ele>883.59</ele>
        <time>2014-12-15T14:21:28Z</time>
      </trkpt>
      <trkpt lat="44.53048" lon="5.79684">
        <ele>880.22</ele>
        <time>2014-12-15T14:21:29Z</time>
      </trkpt>
      <trkpt lat="44.53048" lon="5.79683">
        <ele>877.34</ele>
        <time>2014-12-15T14:21:30Z</time>
      </trkpt>
      <trkpt lat="44.53048" lon="5.79683">
        <ele>880.71</ele>
        <time>2014-12-15T14:21:31Z</time>
      </trkpt>
      <trkpt lat="44.53043" lon="5.79684">
        <ele>879.26</ele>
        <time>2014-12-15T14:21:52Z</time>
      </trkpt>
      <trkpt lat="44.53044" lon="5.79687">
        <ele>881.19</ele>
        <time>2014-12-15T14:22:10Z</time>
      </trkpt>
      <trkpt lat="44.53045" lon="5.79683">
        <ele>881.19</ele>
        <time>2014-12-15T14:22:17Z</time>
      </trkpt>
      <trkpt lat="44.53045" lon="5.79683">
        <ele>880.71</ele>
        <time>2014-12-15T14:22:19Z</time>
      </trkpt>
      <trkpt lat="44.53045" lon="5.79683">
        <ele>881.19</ele>
        <time>2014-12-15T14:22:50Z</time>
      </trkpt>
      <trkpt lat="44.53045" lon="5.79683">
        <ele>880.22</ele>
        <time>2014-12-15T14:23:16Z</time>
      </trkpt>
      <trkpt lat="44.53044" lon="5.79679">
        <ele>880.22</ele>
        <time>2014-12-15T14:23:33Z</time>
      </trkpt>
      <trkpt lat="44.53042" lon="5.79673">
        <ele>881.67</ele>
        <time>2014-12-15T14:23:37Z</time>
      </trkpt>
      <trkpt lat="44.53035" lon="5.79659">
        <ele>884.07</ele>
        <time>2014-12-15T14:23:50Z</time>
      </trkpt>
      <trkpt lat="44.53031" lon="5.79654">
        <ele>883.59</ele>
        <time>2014-12-15T14:24:00Z</time>
      </trkpt>
      <trkpt lat="44.53026" lon="5.79649">
        <ele>885.51</ele>
        <time>2014-12-15T14:24:49Z</time>
      </trkpt>
      <trkpt lat="44.53024" lon="5.79646">
        <ele>885.99</ele>
        <time>2014-12-15T14:24:51Z</time>
      </trkpt>
      <trkpt lat="44.53022" lon="5.79645">
        <ele>884.07</ele>
        <time>2014-12-15T14:24:55Z</time>
      </trkpt>
      <trkpt lat="44.53019" lon="5.79643">
        <ele>884.55</ele>
        <time>2014-12-15T14:24:58Z</time>
      </trkpt>
      <trkpt lat="44.53015" lon="5.79635">
        <ele>885.99</ele>
        <time>2014-12-15T14:25:03Z</time>
      </trkpt>
      <trkpt lat="44.53012" lon="5.79629">
        <ele>886.47</ele>
        <time>2014-12-15T14:25:09Z</time>
      </trkpt>
      <trkpt lat="44.53007" lon="5.79616">
        <ele>883.11</ele>
        <time>2014-12-15T14:25:16Z</time>
      </trkpt>
      <trkpt lat="44.53006" lon="5.79615">
        <ele>883.59</ele>
        <time>2014-12-15T14:25:17Z</time>
      </trkpt>
      <trkpt lat="44.53007" lon="5.79613">
        <ele>883.59</ele>
        <time>2014-12-15T14:25:20Z</time>
      </trkpt>
      <trkpt lat="44.53007" lon="5.79609">
        <ele>885.51</ele>
        <time>2014-12-15T14:25:22Z</time>
      </trkpt>
      <trkpt lat="44.53006" lon="5.79605">
        <ele>886.47</ele>
        <time>2014-12-15T14:25:24Z</time>
      </trkpt>
      <trkpt lat="44.53006" lon="5.79602">
        <ele>887.43</ele>
        <time>2014-12-15T14:25:26Z</time>
      </trkpt>
      <trkpt lat="44.53002" lon="5.7959">
        <ele>887.91</ele>
        <time>2014-12-15T14:25:32Z</time>
      </trkpt>
      <trkpt lat="44.52998" lon="5.79584">
        <ele>887.43</ele>
        <time>2014-12-15T14:25:38Z</time>
      </trkpt>
      <trkpt lat="44.52998" lon="5.79583">
        <ele>887.43</ele>
        <time>2014-12-15T14:25:39Z</time>
      </trkpt>
      <trkpt lat="44.52996" lon="5.79574">
        <ele>885.99</ele>
        <time>2014-12-15T14:25:44Z</time>
      </trkpt>
      <trkpt lat="44.52995" lon="5.79571">
        <ele>887.91</ele>
        <time>2014-12-15T14:25:46Z</time>
      </trkpt>
      <trkpt lat="44.52994" lon="5.79565">
        <ele>889.36</ele>
        <time>2014-12-15T14:25:50Z</time>
      </trkpt>
      <trkpt lat="44.52992" lon="5.7956">
        <ele>886.95</ele>
        <time>2014-12-15T14:25:53Z</time>
      </trkpt>
      <trkpt lat="44.52982" lon="5.79544">
        <ele>886.47</ele>
        <time>2014-12-15T14:26:04Z</time>
      </trkpt>
      <trkpt lat="44.52979" lon="5.79538">
        <ele>887.91</ele>
        <time>2014-12-15T14:26:07Z</time>
      </trkpt>
      <trkpt lat="44.52975" lon="5.79531">
        <ele>889.84</ele>
        <time>2014-12-15T14:26:15Z</time>
      </trkpt>
      <trkpt lat="44.52972" lon="5.79523">
        <ele>888.4</ele>
        <time>2014-12-15T14:26:19Z</time>
      </trkpt>
      <trkpt lat="44.5297" lon="5.79521">
        <ele>889.36</ele>
        <time>2014-12-15T14:26:21Z</time>
      </trkpt>
      <trkpt lat="44.52967" lon="5.79515">
        <ele>888.88</ele>
        <time>2014-12-15T14:26:26Z</time>
      </trkpt>
      <trkpt lat="44.52959" lon="5.79501">
        <ele>888.4</ele>
        <time>2014-12-15T14:26:36Z</time>
      </trkpt>
      <trkpt lat="44.5295" lon="5.79483">
        <ele>889.36</ele>
        <time>2014-12-15T14:26:49Z</time>
      </trkpt>
      <trkpt lat="44.52947" lon="5.79475">
        <ele>889.84</ele>
        <time>2014-12-15T14:27:07Z</time>
      </trkpt>
      <trkpt lat="44.52944" lon="5.79469">
        <ele>888.88</ele>
        <time>2014-12-15T14:27:12Z</time>
      </trkpt>
      <trkpt lat="44.52942" lon="5.79465">
        <ele>888.4</ele>
        <time>2014-12-15T14:27:16Z</time>
      </trkpt>
      <trkpt lat="44.52941" lon="5.7946">
        <ele>889.36</ele>
        <time>2014-12-15T14:27:20Z</time>
      </trkpt>
      <trkpt lat="44.52938" lon="5.79451">
        <ele>888.4</ele>
        <time>2014-12-15T14:27:28Z</time>
      </trkpt>
      <trkpt lat="44.52936" lon="5.79446">
        <ele>889.84</ele>
        <time>2014-12-15T14:27:32Z</time>
      </trkpt>
      <trkpt lat="44.52931" lon="5.79434">
        <ele>886.95</ele>
        <time>2014-12-15T14:27:41Z</time>
      </trkpt>
      <trkpt lat="44.5293" lon="5.7943">
        <ele>890.32</ele>
        <time>2014-12-15T14:27:46Z</time>
      </trkpt>
      <trkpt lat="44.52922" lon="5.79417">
        <ele>887.91</ele>
        <time>2014-12-15T14:27:55Z</time>
      </trkpt>
      <trkpt lat="44.52913" lon="5.79402">
        <ele>889.36</ele>
        <time>2014-12-15T14:28:08Z</time>
      </trkpt>
      <trkpt lat="44.52906" lon="5.79391">
        <ele>890.32</ele>
        <time>2014-12-15T14:28:18Z</time>
      </trkpt>
      <trkpt lat="44.52904" lon="5.79387">
        <ele>888.88</ele>
        <time>2014-12-15T14:28:21Z</time>
      </trkpt>
      <trkpt lat="44.52894" lon="5.79373">
        <ele>888.88</ele>
        <time>2014-12-15T14:28:34Z</time>
      </trkpt>
      <trkpt lat="44.52889" lon="5.79369">
        <ele>887.43</ele>
        <time>2014-12-15T14:28:38Z</time>
      </trkpt>
      <trkpt lat="44.52886" lon="5.79363">
        <ele>889.36</ele>
        <time>2014-12-15T14:28:43Z</time>
      </trkpt>
      <trkpt lat="44.52878" lon="5.79353">
        <ele>888.88</ele>
        <time>2014-12-15T14:28:54Z</time>
      </trkpt>
      <trkpt lat="44.52874" lon="5.79348">
        <ele>890.32</ele>
        <time>2014-12-15T14:28:57Z</time>
      </trkpt>
      <trkpt lat="44.52869" lon="5.79337">
        <ele>888.88</ele>
        <time>2014-12-15T14:29:07Z</time>
      </trkpt>
      <trkpt lat="44.52863" lon="5.79328">
        <ele>887.43</ele>
        <time>2014-12-15T14:29:13Z</time>
      </trkpt>
      <trkpt lat="44.52855" lon="5.7931">
        <ele>890.8</ele>
        <time>2014-12-15T14:29:28Z</time>
      </trkpt>
      <trkpt lat="44.52852" lon="5.79303">
        <ele>889.36</ele>
        <time>2014-12-15T14:29:33Z</time>
      </trkpt>
      <trkpt lat="44.52844" lon="5.79291">
        <ele>886.95</ele>
        <time>2014-12-15T14:29:42Z</time>
      </trkpt>
      <trkpt lat="44.52842" lon="5.79285">
        <ele>890.8</ele>
        <time>2014-12-15T14:29:47Z</time>
      </trkpt>
      <trkpt lat="44.52833" lon="5.79271">
        <ele>889.84</ele>
        <time>2014-12-15T14:29:59Z</time>
      </trkpt>
      <trkpt lat="44.5283" lon="5.79268">
        <ele>887.91</ele>
        <time>2014-12-15T14:30:03Z</time>
      </trkpt>
      <trkpt lat="44.52828" lon="5.79264">
        <ele>889.36</ele>
        <time>2014-12-15T14:30:07Z</time>
      </trkpt>
      <trkpt lat="44.52824" lon="5.79256">
        <ele>889.84</ele>
        <time>2014-12-15T14:30:14Z</time>
      </trkpt>
      <trkpt lat="44.52823" lon="5.79253">
        <ele>888.4</ele>
        <time>2014-12-15T14:30:16Z</time>
      </trkpt>
      <trkpt lat="44.5282" lon="5.79244">
        <ele>889.84</ele>
        <time>2014-12-15T14:30:24Z</time>
      </trkpt>
      <trkpt lat="44.52818" lon="5.79235">
        <ele>888.88</ele>
        <time>2014-12-15T14:30:32Z</time>
      </trkpt>
      <trkpt lat="44.52815" lon="5.79228">
        <ele>889.84</ele>
        <time>2014-12-15T14:30:38Z</time>
      </trkpt>
      <trkpt lat="44.52811" lon="5.79219">
        <ele>887.91</ele>
        <time>2014-12-15T14:30:43Z</time>
      </trkpt>
      <trkpt lat="44.52809" lon="5.79214">
        <ele>890.32</ele>
        <time>2014-12-15T14:30:46Z</time>
      </trkpt>
      <trkpt lat="44.52806" lon="5.79207">
        <ele>890.32</ele>
        <time>2014-12-15T14:30:51Z</time>
      </trkpt>
      <trkpt lat="44.52802" lon="5.79196">
        <ele>888.4</ele>
        <time>2014-12-15T14:31:03Z</time>
      </trkpt>
      <trkpt lat="44.528" lon="5.79192">
        <ele>888.4</ele>
        <time>2014-12-15T14:31:06Z</time>
      </trkpt>
      <trkpt lat="44.52797" lon="5.79184">
        <ele>889.84</ele>
        <time>2014-12-15T14:31:10Z</time>
      </trkpt>
      <trkpt lat="44.52796" lon="5.79179">
        <ele>890.32</ele>
        <time>2014-12-15T14:31:14Z</time>
      </trkpt>
      <trkpt lat="44.52793" lon="5.79162">
        <ele>889.36</ele>
        <time>2014-12-15T14:31:28Z</time>
      </trkpt>
      <trkpt lat="44.52794" lon="5.79145">
        <ele>885.99</ele>
        <time>2014-12-15T14:31:40Z</time>
      </trkpt>
      <trkpt lat="44.52794" lon="5.79142">
        <ele>889.36</ele>
        <time>2014-12-15T14:31:42Z</time>
      </trkpt>
      <trkpt lat="44.52794" lon="5.7914">
        <ele>889.36</ele>
        <time>2014-12-15T14:31:43Z</time>
      </trkpt>
      <trkpt lat="44.52795" lon="5.79132">
        <ele>886.47</ele>
        <time>2014-12-15T14:31:47Z</time>
      </trkpt>
      <trkpt lat="44.52795" lon="5.79129">
        <ele>887.43</ele>
        <time>2014-12-15T14:31:49Z</time>
      </trkpt>
      <trkpt lat="44.52795" lon="5.79123">
        <ele>889.36</ele>
        <time>2014-12-15T14:31:52Z</time>
      </trkpt>
      <trkpt lat="44.52798" lon="5.79105">
        <ele>890.32</ele>
        <time>2014-12-15T14:32:04Z</time>
      </trkpt>
      <trkpt lat="44.528" lon="5.791">
        <ele>891.28</ele>
        <time>2014-12-15T14:32:08Z</time>
      </trkpt>
      <trkpt lat="44.528" lon="5.79098">
        <ele>889.36</ele>
        <time>2014-12-15T14:32:10Z</time>
      </trkpt>
      <trkpt lat="44.52799" lon="5.79092">
        <ele>889.84</ele>
        <time>2014-12-15T14:32:14Z</time>
      </trkpt>
      <trkpt lat="44.528" lon="5.79089">
        <ele>889.84</ele>
        <time>2014-12-15T14:32:17Z</time>
      </trkpt>
      <trkpt lat="44.52805" lon="5.79078">
        <ele>888.88</ele>
        <time>2014-12-15T14:32:25Z</time>
      </trkpt>
      <trkpt lat="44.52806" lon="5.79073">
        <ele>889.36</ele>
        <time>2014-12-15T14:32:28Z</time>
      </trkpt>
      <trkpt lat="44.52806" lon="5.79065">
        <ele>887.43</ele>
        <time>2014-12-15T14:32:33Z</time>
      </trkpt>
      <trkpt lat="44.52808" lon="5.79051">
        <ele>888.88</ele>
        <time>2014-12-15T14:32:45Z</time>
      </trkpt>
      <trkpt lat="44.52809" lon="5.79034">
        <ele>890.32</ele>
        <time>2014-12-15T14:32:57Z</time>
      </trkpt>
      <trkpt lat="44.52809" lon="5.7903">
        <ele>888.4</ele>
        <time>2014-12-15T14:32:59Z</time>
      </trkpt>
      <trkpt lat="44.52809" lon="5.79027">
        <ele>888.88</ele>
        <time>2014-12-15T14:33:03Z</time>
      </trkpt>
      <trkpt lat="44.52808" lon="5.79016">
        <ele>889.36</ele>
        <time>2014-12-15T14:33:11Z</time>
      </trkpt>
      <trkpt lat="44.52808" lon="5.79007">
        <ele>887.91</ele>
        <time>2014-12-15T14:33:16Z</time>
      </trkpt>
      <trkpt lat="44.52808" lon="5.79005">
        <ele>887.91</ele>
        <time>2014-12-15T14:33:17Z</time>
      </trkpt>
      <trkpt lat="44.52806" lon="5.79003">
        <ele>887.43</ele>
        <time>2014-12-15T14:33:19Z</time>
      </trkpt>
      <trkpt lat="44.52809" lon="5.78989">
        <ele>889.36</ele>
        <time>2014-12-15T14:33:27Z</time>
      </trkpt>
      <trkpt lat="44.52809" lon="5.78986">
        <ele>889.84</ele>
        <time>2014-12-15T14:33:30Z</time>
      </trkpt>
      <trkpt lat="44.52808" lon="5.78979">
        <ele>891.76</ele>
        <time>2014-12-15T14:33:33Z</time>
      </trkpt>
      <trkpt lat="44.52806" lon="5.78967">
        <ele>889.84</ele>
        <time>2014-12-15T14:33:42Z</time>
      </trkpt>
      <trkpt lat="44.52806" lon="5.7896">
        <ele>889.84</ele>
        <time>2014-12-15T14:33:46Z</time>
      </trkpt>
      <trkpt lat="44.52808" lon="5.78949">
        <ele>891.28</ele>
        <time>2014-12-15T14:33:52Z</time>
      </trkpt>
      <trkpt lat="44.52809" lon="5.78944">
        <ele>890.32</ele>
        <time>2014-12-15T14:33:57Z</time>
      </trkpt>
      <trkpt lat="44.5281" lon="5.78941">
        <ele>889.36</ele>
        <time>2014-12-15T14:33:59Z</time>
      </trkpt>
      <trkpt lat="44.5281" lon="5.78928">
        <ele>889.36</ele>
        <time>2014-12-15T14:34:07Z</time>
      </trkpt>
      <trkpt lat="44.52812" lon="5.78919">
        <ele>891.76</ele>
        <time>2014-12-15T14:34:14Z</time>
      </trkpt>
      <trkpt lat="44.52815" lon="5.78911">
        <ele>893.2</ele>
        <time>2014-12-15T14:34:18Z</time>
      </trkpt>
      <trkpt lat="44.52817" lon="5.78893">
        <ele>894.16</ele>
        <time>2014-12-15T14:34:29Z</time>
      </trkpt>
      <trkpt lat="44.52818" lon="5.78888">
        <ele>893.68</ele>
        <time>2014-12-15T14:34:34Z</time>
      </trkpt>
      <trkpt lat="44.52819" lon="5.78884">
        <ele>893.2</ele>
        <time>2014-12-15T14:34:37Z</time>
      </trkpt>
      <trkpt lat="44.52819" lon="5.78879">
        <ele>892.72</ele>
        <time>2014-12-15T14:34:40Z</time>
      </trkpt>
      <trkpt lat="44.52819" lon="5.78879">
        <ele>892.72</ele>
        <time>2014-12-15T14:34:41Z</time>
      </trkpt>
      <trkpt lat="44.52818" lon="5.78876">
        <ele>894.64</ele>
        <time>2014-12-15T14:34:43Z</time>
      </trkpt>
      <trkpt lat="44.52817" lon="5.78872">
        <ele>895.61</ele>
        <time>2014-12-15T14:34:45Z</time>
      </trkpt>
      <trkpt lat="44.52816" lon="5.78868">
        <ele>892.24</ele>
        <time>2014-12-15T14:34:47Z</time>
      </trkpt>
      <trkpt lat="44.52816" lon="5.78866">
        <ele>893.68</ele>
        <time>2014-12-15T14:34:49Z</time>
      </trkpt>
      <trkpt lat="44.52816" lon="5.78863">
        <ele>891.76</ele>
        <time>2014-12-15T14:34:52Z</time>
      </trkpt>
      <trkpt lat="44.52817" lon="5.78861">
        <ele>895.61</ele>
        <time>2014-12-15T14:34:54Z</time>
      </trkpt>
      <trkpt lat="44.52819" lon="5.78858">
        <ele>892.24</ele>
        <time>2014-12-15T14:34:57Z</time>
      </trkpt>
      <trkpt lat="44.52819" lon="5.78852">
        <ele>898.01</ele>
        <time>2014-12-15T14:35:01Z</time>
      </trkpt>
      <trkpt lat="44.5282" lon="5.78849">
        <ele>894.16</ele>
        <time>2014-12-15T14:35:03Z</time>
      </trkpt>
      <trkpt lat="44.52821" lon="5.78849">
        <ele>892.24</ele>
        <time>2014-12-15T14:35:05Z</time>
      </trkpt>
      <trkpt lat="44.52823" lon="5.78847">
        <ele>897.53</ele>
        <time>2014-12-15T14:35:07Z</time>
      </trkpt>
      <trkpt lat="44.52825" lon="5.78845">
        <ele>898.49</ele>
        <time>2014-12-15T14:35:09Z</time>
      </trkpt>
      <trkpt lat="44.52825" lon="5.78844">
        <ele>894.64</ele>
        <time>2014-12-15T14:35:10Z</time>
      </trkpt>
      <trkpt lat="44.52825" lon="5.78843">
        <ele>897.05</ele>
        <time>2014-12-15T14:35:12Z</time>
      </trkpt>
      <trkpt lat="44.52828" lon="5.78842">
        <ele>895.61</ele>
        <time>2014-12-15T14:35:14Z</time>
      </trkpt>
      <trkpt lat="44.5283" lon="5.78839">
        <ele>898.01</ele>
        <time>2014-12-15T14:35:18Z</time>
      </trkpt>
      <trkpt lat="44.52831" lon="5.78834">
        <ele>896.57</ele>
        <time>2014-12-15T14:35:23Z</time>
      </trkpt>
      <trkpt lat="44.52834" lon="5.78831">
        <ele>898.49</ele>
        <time>2014-12-15T14:35:26Z</time>
      </trkpt>
      <trkpt lat="44.52837" lon="5.78827">
        <ele>897.05</ele>
        <time>2014-12-15T14:35:30Z</time>
      </trkpt>
      <trkpt lat="44.52843" lon="5.78817">
        <ele>898.49</ele>
        <time>2014-12-15T14:35:40Z</time>
      </trkpt>
      <trkpt lat="44.52844" lon="5.78814">
        <ele>897.53</ele>
        <time>2014-12-15T14:35:43Z</time>
      </trkpt>
      <trkpt lat="44.5285" lon="5.78802">
        <ele>898.97</ele>
        <time>2014-12-15T14:35:53Z</time>
      </trkpt>
      <trkpt lat="44.52859" lon="5.7879">
        <ele>897.53</ele>
        <time>2014-12-15T14:36:03Z</time>
      </trkpt>
      <trkpt lat="44.52859" lon="5.78787">
        <ele>897.05</ele>
        <time>2014-12-15T14:36:07Z</time>
      </trkpt>
      <trkpt lat="44.52862" lon="5.78771">
        <ele>895.12</ele>
        <time>2014-12-15T14:36:17Z</time>
      </trkpt>
      <trkpt lat="44.52861" lon="5.78769">
        <ele>898.01</ele>
        <time>2014-12-15T14:36:19Z</time>
      </trkpt>
      <trkpt lat="44.52867" lon="5.78757">
        <ele>896.09</ele>
        <time>2014-12-15T14:36:26Z</time>
      </trkpt>
      <trkpt lat="44.52868" lon="5.78754">
        <ele>898.01</ele>
        <time>2014-12-15T14:36:29Z</time>
      </trkpt>
      <trkpt lat="44.5287" lon="5.78745">
        <ele>897.53</ele>
        <time>2014-12-15T14:36:36Z</time>
      </trkpt>
      <trkpt lat="44.52871" lon="5.78743">
        <ele>898.97</ele>
        <time>2014-12-15T14:36:38Z</time>
      </trkpt>
      <trkpt lat="44.52873" lon="5.78736">
        <ele>897.53</ele>
        <time>2014-12-15T14:36:42Z</time>
      </trkpt>
      <trkpt lat="44.52874" lon="5.78734">
        <ele>897.05</ele>
        <time>2014-12-15T14:36:45Z</time>
      </trkpt>
      <trkpt lat="44.52877" lon="5.78723">
        <ele>896.57</ele>
        <time>2014-12-15T14:36:52Z</time>
      </trkpt>
      <trkpt lat="44.52878" lon="5.7872">
        <ele>898.49</ele>
        <time>2014-12-15T14:36:54Z</time>
      </trkpt>
      <trkpt lat="44.5288" lon="5.78716">
        <ele>898.01</ele>
        <time>2014-12-15T14:36:57Z</time>
      </trkpt>
      <trkpt lat="44.52884" lon="5.78709">
        <ele>898.01</ele>
        <time>2014-12-15T14:37:03Z</time>
      </trkpt>
      <trkpt lat="44.52887" lon="5.78701">
        <ele>896.57</ele>
        <time>2014-12-15T14:37:10Z</time>
      </trkpt>
      <trkpt lat="44.52888" lon="5.78696">
        <ele>898.01</ele>
        <time>2014-12-15T14:37:13Z</time>
      </trkpt>
      <trkpt lat="44.5289" lon="5.78692">
        <ele>897.05</ele>
        <time>2014-12-15T14:37:17Z</time>
      </trkpt>
      <trkpt lat="44.52897" lon="5.78683">
        <ele>896.09</ele>
        <time>2014-12-15T14:37:25Z</time>
      </trkpt>
      <trkpt lat="44.52899" lon="5.78679">
        <ele>898.01</ele>
        <time>2014-12-15T14:37:28Z</time>
      </trkpt>
      <trkpt lat="44.52899" lon="5.78676">
        <ele>898.01</ele>
        <time>2014-12-15T14:37:32Z</time>
      </trkpt>
      <trkpt lat="44.52901" lon="5.78663">
        <ele>897.53</ele>
        <time>2014-12-15T14:37:41Z</time>
      </trkpt>
      <trkpt lat="44.52906" lon="5.78653">
        <ele>897.53</ele>
        <time>2014-12-15T14:37:49Z</time>
      </trkpt>
      <trkpt lat="44.52909" lon="5.78639">
        <ele>897.53</ele>
        <time>2014-12-15T14:37:59Z</time>
      </trkpt>
      <trkpt lat="44.52909" lon="5.78634">
        <ele>898.49</ele>
        <time>2014-12-15T14:38:01Z</time>
      </trkpt>
      <trkpt lat="44.5291" lon="5.78629">
        <ele>896.09</ele>
        <time>2014-12-15T14:38:05Z</time>
      </trkpt>
      <trkpt lat="44.52913" lon="5.78615">
        <ele>897.53</ele>
        <time>2014-12-15T14:38:15Z</time>
      </trkpt>
      <trkpt lat="44.52915" lon="5.7861">
        <ele>897.53</ele>
        <time>2014-12-15T14:38:18Z</time>
      </trkpt>
      <trkpt lat="44.52914" lon="5.78607">
        <ele>896.57</ele>
        <time>2014-12-15T14:38:20Z</time>
      </trkpt>
      <trkpt lat="44.52913" lon="5.78604">
        <ele>897.05</ele>
        <time>2014-12-15T14:38:22Z</time>
      </trkpt>
      <trkpt lat="44.52912" lon="5.7859">
        <ele>896.57</ele>
        <time>2014-12-15T14:38:33Z</time>
      </trkpt>
      <trkpt lat="44.52915" lon="5.78588">
        <ele>895.12</ele>
        <time>2014-12-15T14:38:36Z</time>
      </trkpt>
      <trkpt lat="44.52917" lon="5.78578">
        <ele>895.61</ele>
        <time>2014-12-15T14:38:45Z</time>
      </trkpt>
      <trkpt lat="44.52916" lon="5.78576">
        <ele>895.61</ele>
        <time>2014-12-15T14:38:47Z</time>
      </trkpt>
      <trkpt lat="44.52912" lon="5.78571">
        <ele>895.61</ele>
        <time>2014-12-15T14:38:51Z</time>
      </trkpt>
      <trkpt lat="44.52902" lon="5.78558">
        <ele>895.12</ele>
        <time>2014-12-15T14:39:04Z</time>
      </trkpt>
      <trkpt lat="44.52899" lon="5.78555">
        <ele>895.12</ele>
        <time>2014-12-15T14:39:08Z</time>
      </trkpt>
      <trkpt lat="44.52896" lon="5.78552">
        <ele>894.64</ele>
        <time>2014-12-15T14:39:12Z</time>
      </trkpt>
      <trkpt lat="44.52882" lon="5.78543">
        <ele>893.68</ele>
        <time>2014-12-15T14:39:24Z</time>
      </trkpt>
      <trkpt lat="44.52878" lon="5.7854">
        <ele>894.16</ele>
        <time>2014-12-15T14:39:29Z</time>
      </trkpt>
      <trkpt lat="44.52867" lon="5.78531">
        <ele>893.68</ele>
        <time>2014-12-15T14:39:42Z</time>
      </trkpt>
      <trkpt lat="44.52853" lon="5.78526">
        <ele>893.2</ele>
        <time>2014-12-15T14:39:54Z</time>
      </trkpt>
      <trkpt lat="44.52844" lon="5.78521">
        <ele>892.24</ele>
        <time>2014-12-15T14:40:03Z</time>
      </trkpt>
      <trkpt lat="44.52836" lon="5.78517">
        <ele>892.72</ele>
        <time>2014-12-15T14:40:12Z</time>
      </trkpt>
      <trkpt lat="44.52826" lon="5.78511">
        <ele>889.36</ele>
        <time>2014-12-15T14:40:21Z</time>
      </trkpt>
      <trkpt lat="44.52824" lon="5.7851">
        <ele>891.28</ele>
        <time>2014-12-15T14:40:24Z</time>
      </trkpt>
      <trkpt lat="44.52816" lon="5.78506">
        <ele>890.32</ele>
        <time>2014-12-15T14:40:31Z</time>
      </trkpt>
      <trkpt lat="44.52814" lon="5.78505">
        <ele>890.8</ele>
        <time>2014-12-15T14:40:33Z</time>
      </trkpt>
      <trkpt lat="44.52806" lon="5.785">
        <ele>891.28</ele>
        <time>2014-12-15T14:40:39Z</time>
      </trkpt>
      <trkpt lat="44.52795" lon="5.78495">
        <ele>887.91</ele>
        <time>2014-12-15T14:40:50Z</time>
      </trkpt>
      <trkpt lat="44.52792" lon="5.78495">
        <ele>891.28</ele>
        <time>2014-12-15T14:40:53Z</time>
      </trkpt>
      <trkpt lat="44.5278" lon="5.78488">
        <ele>890.8</ele>
        <time>2014-12-15T14:41:04Z</time>
      </trkpt>
      <trkpt lat="44.52769" lon="5.78481">
        <ele>891.76</ele>
        <time>2014-12-15T14:41:14Z</time>
      </trkpt>
      <trkpt lat="44.52768" lon="5.78481">
        <ele>890.8</ele>
        <time>2014-12-15T14:41:16Z</time>
      </trkpt>
      <trkpt lat="44.5276" lon="5.78475">
        <ele>888.4</ele>
        <time>2014-12-15T14:41:25Z</time>
      </trkpt>
      <trkpt lat="44.52754" lon="5.78473">
        <ele>889.84</ele>
        <time>2014-12-15T14:41:32Z</time>
      </trkpt>
      <trkpt lat="44.52746" lon="5.78469">
        <ele>889.36</ele>
        <time>2014-12-15T14:41:38Z</time>
      </trkpt>
      <trkpt lat="44.5274" lon="5.78467">
        <ele>888.88</ele>
        <time>2014-12-15T14:41:46Z</time>
      </trkpt>
      <trkpt lat="44.52734" lon="5.78467">
        <ele>888.4</ele>
        <time>2014-12-15T14:42:00Z</time>
      </trkpt>
      <trkpt lat="44.52734" lon="5.78467">
        <ele>889.84</ele>
        <time>2014-12-15T14:42:02Z</time>
      </trkpt>
      <trkpt lat="44.52721" lon="5.78465">
        <ele>891.28</ele>
        <time>2014-12-15T14:42:15Z</time>
      </trkpt>
      <trkpt lat="44.5272" lon="5.78464">
        <ele>890.32</ele>
        <time>2014-12-15T14:42:16Z</time>
      </trkpt>
      <trkpt lat="44.52712" lon="5.78457">
        <ele>888.4</ele>
        <time>2014-12-15T14:42:22Z</time>
      </trkpt>
      <trkpt lat="44.52706" lon="5.78453">
        <ele>889.36</ele>
        <time>2014-12-15T14:42:28Z</time>
      </trkpt>
      <trkpt lat="44.52698" lon="5.78449">
        <ele>889.84</ele>
        <time>2014-12-15T14:42:35Z</time>
      </trkpt>
      <trkpt lat="44.52681" lon="5.78443">
        <ele>888.88</ele>
        <time>2014-12-15T14:42:50Z</time>
      </trkpt>
      <trkpt lat="44.52667" lon="5.78436">
        <ele>889.84</ele>
        <time>2014-12-15T14:43:03Z</time>
      </trkpt>
      <trkpt lat="44.52663" lon="5.78433">
        <ele>888.4</ele>
        <time>2014-12-15T14:43:08Z</time>
      </trkpt>
      <trkpt lat="44.52658" lon="5.7843">
        <ele>889.36</ele>
        <time>2014-12-15T14:43:13Z</time>
      </trkpt>
      <trkpt lat="44.52653" lon="5.78424">
        <ele>887.91</ele>
        <time>2014-12-15T14:43:19Z</time>
      </trkpt>
      <trkpt lat="44.52653" lon="5.78424">
        <ele>887.91</ele>
        <time>2014-12-15T14:43:20Z</time>
      </trkpt>
      <trkpt lat="44.52639" lon="5.78413">
        <ele>887.43</ele>
        <time>2014-12-15T14:43:32Z</time>
      </trkpt>
      <trkpt lat="44.52634" lon="5.78411">
        <ele>887.91</ele>
        <time>2014-12-15T14:43:37Z</time>
      </trkpt>
      <trkpt lat="44.52628" lon="5.78407">
        <ele>886.47</ele>
        <time>2014-12-15T14:43:41Z</time>
      </trkpt>
      <trkpt lat="44.52616" lon="5.78395">
        <ele>886.95</ele>
        <time>2014-12-15T14:43:53Z</time>
      </trkpt>
      <trkpt lat="44.5261" lon="5.78388">
        <ele>883.59</ele>
        <time>2014-12-15T14:44:01Z</time>
      </trkpt>
      <trkpt lat="44.52607" lon="5.78384">
        <ele>887.43</ele>
        <time>2014-12-15T14:44:04Z</time>
      </trkpt>
      <trkpt lat="44.52605" lon="5.78381">
        <ele>886.47</ele>
        <time>2014-12-15T14:44:07Z</time>
      </trkpt>
      <trkpt lat="44.52603" lon="5.7838">
        <ele>885.51</ele>
        <time>2014-12-15T14:44:09Z</time>
      </trkpt>
      <trkpt lat="44.52601" lon="5.78375">
        <ele>888.88</ele>
        <time>2014-12-15T14:44:16Z</time>
      </trkpt>
      <trkpt lat="44.52598" lon="5.78369">
        <ele>886.95</ele>
        <time>2014-12-15T14:44:21Z</time>
      </trkpt>
      <trkpt lat="44.52596" lon="5.78365">
        <ele>888.4</ele>
        <time>2014-12-15T14:44:24Z</time>
      </trkpt>
      <trkpt lat="44.52588" lon="5.78356">
        <ele>887.91</ele>
        <time>2014-12-15T14:44:35Z</time>
      </trkpt>
      <trkpt lat="44.52579" lon="5.78348">
        <ele>888.4</ele>
        <time>2014-12-15T14:44:42Z</time>
      </trkpt>
      <trkpt lat="44.5257" lon="5.78339">
        <ele>884.55</ele>
        <time>2014-12-15T14:44:53Z</time>
      </trkpt>
      <trkpt lat="44.52565" lon="5.78332">
        <ele>888.4</ele>
        <time>2014-12-15T14:44:59Z</time>
      </trkpt>
      <trkpt lat="44.52565" lon="5.78331">
        <ele>888.4</ele>
        <time>2014-12-15T14:45:00Z</time>
      </trkpt>
      <trkpt lat="44.5256" lon="5.78318">
        <ele>886.95</ele>
        <time>2014-12-15T14:45:08Z</time>
      </trkpt>
      <trkpt lat="44.52557" lon="5.78307">
        <ele>886.95</ele>
        <time>2014-12-15T14:45:16Z</time>
      </trkpt>
      <trkpt lat="44.52555" lon="5.78293">
        <ele>886.95</ele>
        <time>2014-12-15T14:45:25Z</time>
      </trkpt>
      <trkpt lat="44.52552" lon="5.78274">
        <ele>885.99</ele>
        <time>2014-12-15T14:45:37Z</time>
      </trkpt>
      <trkpt lat="44.52551" lon="5.7826">
        <ele>885.03</ele>
        <time>2014-12-15T14:45:48Z</time>
      </trkpt>
      <trkpt lat="44.52551" lon="5.78253">
        <ele>885.99</ele>
        <time>2014-12-15T14:45:52Z</time>
      </trkpt>
      <trkpt lat="44.52551" lon="5.78241">
        <ele>886.47</ele>
        <time>2014-12-15T14:46:00Z</time>
      </trkpt>
      <trkpt lat="44.52549" lon="5.78235">
        <ele>884.55</ele>
        <time>2014-12-15T14:46:04Z</time>
      </trkpt>
      <trkpt lat="44.52548" lon="5.78233">
        <ele>885.03</ele>
        <time>2014-12-15T14:46:06Z</time>
      </trkpt>
      <trkpt lat="44.52549" lon="5.78229">
        <ele>885.03</ele>
        <time>2014-12-15T14:46:08Z</time>
      </trkpt>
      <trkpt lat="44.52545" lon="5.7822">
        <ele>884.55</ele>
        <time>2014-12-15T14:46:15Z</time>
      </trkpt>
      <trkpt lat="44.52542" lon="5.78212">
        <ele>882.63</ele>
        <time>2014-12-15T14:46:21Z</time>
      </trkpt>
      <trkpt lat="44.52539" lon="5.78205">
        <ele>885.03</ele>
        <time>2014-12-15T14:46:26Z</time>
      </trkpt>
      <trkpt lat="44.52538" lon="5.78203">
        <ele>884.55</ele>
        <time>2014-12-15T14:46:28Z</time>
      </trkpt>
      <trkpt lat="44.52537" lon="5.78202">
        <ele>883.59</ele>
        <time>2014-12-15T14:46:30Z</time>
      </trkpt>
      <trkpt lat="44.52534" lon="5.78189">
        <ele>883.59</ele>
        <time>2014-12-15T14:46:38Z</time>
      </trkpt>
      <trkpt lat="44.52532" lon="5.7818">
        <ele>882.63</ele>
        <time>2014-12-15T14:46:45Z</time>
      </trkpt>
      <trkpt lat="44.52528" lon="5.78175">
        <ele>882.15</ele>
        <time>2014-12-15T14:46:49Z</time>
      </trkpt>
      <trkpt lat="44.52524" lon="5.78169">
        <ele>882.15</ele>
        <time>2014-12-15T14:46:54Z</time>
      </trkpt>
      <trkpt lat="44.52523" lon="5.78166">
        <ele>882.15</ele>
        <time>2014-12-15T14:46:57Z</time>
      </trkpt>
      <trkpt lat="44.52518" lon="5.78153">
        <ele>881.19</ele>
        <time>2014-12-15T14:47:06Z</time>
      </trkpt>
      <trkpt lat="44.52513" lon="5.7814">
        <ele>881.19</ele>
        <time>2014-12-15T14:47:13Z</time>
      </trkpt>
      <trkpt lat="44.5251" lon="5.78126">
        <ele>880.71</ele>
        <time>2014-12-15T14:47:24Z</time>
      </trkpt>
      <trkpt lat="44.52509" lon="5.78124">
        <ele>881.19</ele>
        <time>2014-12-15T14:47:25Z</time>
      </trkpt>
      <trkpt lat="44.52507" lon="5.78118">
        <ele>878.3</ele>
        <time>2014-12-15T14:47:30Z</time>
      </trkpt>
      <trkpt lat="44.52506" lon="5.78116">
        <ele>880.22</ele>
        <time>2014-12-15T14:47:32Z</time>
      </trkpt>
      <trkpt lat="44.52505" lon="5.78115">
        <ele>881.67</ele>
        <time>2014-12-15T14:47:35Z</time>
      </trkpt>
      <trkpt lat="44.52501" lon="5.78104">
        <ele>881.19</ele>
        <time>2014-12-15T14:47:46Z</time>
      </trkpt>
      <trkpt lat="44.52494" lon="5.78096">
        <ele>878.78</ele>
        <time>2014-12-15T14:47:54Z</time>
      </trkpt>
      <trkpt lat="44.52489" lon="5.78091">
        <ele>877.34</ele>
        <time>2014-12-15T14:47:59Z</time>
      </trkpt>
      <trkpt lat="44.52488" lon="5.7809">
        <ele>877.34</ele>
        <time>2014-12-15T14:48:00Z</time>
      </trkpt>
      <trkpt lat="44.52479" lon="5.78082">
        <ele>877.34</ele>
        <time>2014-12-15T14:48:08Z</time>
      </trkpt>
      <trkpt lat="44.52473" lon="5.7807">
        <ele>877.34</ele>
        <time>2014-12-15T14:48:20Z</time>
      </trkpt>
      <trkpt lat="44.52472" lon="5.78066">
        <ele>876.86</ele>
        <time>2014-12-15T14:48:35Z</time>
      </trkpt>
      <trkpt lat="44.52472" lon="5.78066">
        <ele>873.98</ele>
        <time>2014-12-15T14:49:06Z</time>
      </trkpt>
      <trkpt lat="44.52472" lon="5.78066">
        <ele>876.86</ele>
        <time>2014-12-15T14:49:08Z</time>
      </trkpt>
      <trkpt lat="44.52472" lon="5.78066">
        <ele>871.09</ele>
        <time>2014-12-15T14:49:09Z</time>
      </trkpt>
      <trkpt lat="44.52472" lon="5.78066">
        <ele>877.34</ele>
        <time>2014-12-15T14:49:10Z</time>
      </trkpt>
      <trkpt lat="44.5247" lon="5.78066">
        <ele>877.34</ele>
        <time>2014-12-15T14:49:36Z</time>
      </trkpt>
      <trkpt lat="44.5247" lon="5.78066">
        <ele>877.34</ele>
        <time>2014-12-15T14:49:37Z</time>
      </trkpt>
      <trkpt lat="44.5247" lon="5.78066">
        <ele>877.34</ele>
        <time>2014-12-15T14:50:06Z</time>
      </trkpt>
      <trkpt lat="44.52469" lon="5.78065">
        <ele>876.38</ele>
        <time>2014-12-15T14:50:39Z</time>
      </trkpt>
      <trkpt lat="44.52469" lon="5.78065">
        <ele>877.34</ele>
        <time>2014-12-15T14:51:03Z</time>
      </trkpt>
      <trkpt lat="44.52469" lon="5.78065">
        <ele>875.9</ele>
        <time>2014-12-15T14:51:07Z</time>
      </trkpt>
      <trkpt lat="44.52469" lon="5.78065">
        <ele>877.34</ele>
        <time>2014-12-15T14:51:23Z</time>
      </trkpt>
      <trkpt lat="44.52468" lon="5.78062">
        <ele>875.9</ele>
        <time>2014-12-15T14:51:54Z</time>
      </trkpt>
      <trkpt lat="44.52465" lon="5.78059">
        <ele>877.34</ele>
        <time>2014-12-15T14:52:07Z</time>
      </trkpt>
      <trkpt lat="44.52466" lon="5.78059">
        <ele>876.38</ele>
        <time>2014-12-15T14:52:33Z</time>
      </trkpt>
      <trkpt lat="44.52462" lon="5.78053">
        <ele>876.38</ele>
        <time>2014-12-15T14:52:46Z</time>
      </trkpt>
      <trkpt lat="44.52462" lon="5.78052">
        <ele>876.38</ele>
        <time>2014-12-15T14:53:19Z</time>
      </trkpt>
      <trkpt lat="44.52464" lon="5.78054">
        <ele>878.78</ele>
        <time>2014-12-15T14:53:41Z</time>
      </trkpt>
      <trkpt lat="44.52464" lon="5.78055">
        <ele>878.78</ele>
        <time>2014-12-15T14:53:42Z</time>
      </trkpt>
      <trkpt lat="44.52465" lon="5.78056">
        <ele>877.34</ele>
        <time>2014-12-15T14:53:44Z</time>
      </trkpt>
      <trkpt lat="44.52467" lon="5.78064">
        <ele>874.46</ele>
        <time>2014-12-15T14:53:49Z</time>
      </trkpt>
      <trkpt lat="44.52468" lon="5.78065">
        <ele>874.94</ele>
        <time>2014-12-15T14:53:50Z</time>
      </trkpt>
      <trkpt lat="44.52468" lon="5.78067">
        <ele>877.82</ele>
        <time>2014-12-15T14:53:52Z</time>
      </trkpt>
      <trkpt lat="44.52468" lon="5.78074">
        <ele>879.26</ele>
        <time>2014-12-15T14:54:02Z</time>
      </trkpt>
      <trkpt lat="44.52466" lon="5.78072">
        <ele>878.78</ele>
        <time>2014-12-15T14:54:05Z</time>
      </trkpt>
      <trkpt lat="44.52461" lon="5.78068">
        <ele>878.78</ele>
        <time>2014-12-15T14:54:18Z</time>
      </trkpt>
      <trkpt lat="44.52458" lon="5.78062">
        <ele>880.71</ele>
        <time>2014-12-15T14:54:33Z</time>
      </trkpt>
      <trkpt lat="44.52458" lon="5.7806">
        <ele>880.71</ele>
        <time>2014-12-15T14:54:34Z</time>
      </trkpt>
      <trkpt lat="44.52453" lon="5.78055">
        <ele>879.26</ele>
        <time>2014-12-15T14:54:39Z</time>
      </trkpt>
      <trkpt lat="44.52452" lon="5.78051">
        <ele>879.74</ele>
        <time>2014-12-15T14:54:44Z</time>
      </trkpt>
      <trkpt lat="44.52446" lon="5.78044">
        <ele>879.26</ele>
        <time>2014-12-15T14:54:50Z</time>
      </trkpt>
      <trkpt lat="44.5244" lon="5.78029">
        <ele>876.38</ele>
        <time>2014-12-15T14:55:00Z</time>
      </trkpt>
      <trkpt lat="44.52438" lon="5.78025">
        <ele>878.3</ele>
        <time>2014-12-15T14:55:03Z</time>
      </trkpt>
      <trkpt lat="44.52436" lon="5.78017">
        <ele>877.82</ele>
        <time>2014-12-15T14:55:11Z</time>
      </trkpt>
      <trkpt lat="44.52431" lon="5.78008">
        <ele>877.34</ele>
        <time>2014-12-15T14:55:17Z</time>
      </trkpt>
      <trkpt lat="44.5243" lon="5.78002">
        <ele>876.38</ele>
        <time>2014-12-15T14:55:22Z</time>
      </trkpt>
      <trkpt lat="44.52429" lon="5.77997">
        <ele>876.38</ele>
        <time>2014-12-15T14:55:25Z</time>
      </trkpt>
      <trkpt lat="44.52425" lon="5.77983">
        <ele>870.13</ele>
        <time>2014-12-15T14:55:33Z</time>
      </trkpt>
      <trkpt lat="44.52425" lon="5.77982">
        <ele>874.46</ele>
        <time>2014-12-15T14:55:34Z</time>
      </trkpt>
      <trkpt lat="44.52425" lon="5.77979">
        <ele>874.94</ele>
        <time>2014-12-15T14:55:36Z</time>
      </trkpt>
      <trkpt lat="44.52424" lon="5.77972">
        <ele>871.09</ele>
        <time>2014-12-15T14:55:41Z</time>
      </trkpt>
      <trkpt lat="44.52422" lon="5.77966">
        <ele>874.46</ele>
        <time>2014-12-15T14:55:45Z</time>
      </trkpt>
      <trkpt lat="44.52422" lon="5.77961">
        <ele>873.98</ele>
        <time>2014-12-15T14:55:48Z</time>
      </trkpt>
      <trkpt lat="44.5242" lon="5.77952">
        <ele>873.01</ele>
        <time>2014-12-15T14:55:52Z</time>
      </trkpt>
      <trkpt lat="44.52417" lon="5.77948">
        <ele>874.46</ele>
        <time>2014-12-15T14:55:55Z</time>
      </trkpt>
      <trkpt lat="44.52416" lon="5.77947">
        <ele>874.94</ele>
        <time>2014-12-15T14:55:56Z</time>
      </trkpt>
      <trkpt lat="44.52412" lon="5.77937">
        <ele>874.46</ele>
        <time>2014-12-15T14:56:02Z</time>
      </trkpt>
      <trkpt lat="44.52408" lon="5.77927">
        <ele>869.17</ele>
        <time>2014-12-15T14:56:07Z</time>
      </trkpt>
      <trkpt lat="44.52407" lon="5.77926">
        <ele>869.65</ele>
        <time>2014-12-15T14:56:08Z</time>
      </trkpt>
      <trkpt lat="44.52406" lon="5.77923">
        <ele>874.46</ele>
        <time>2014-12-15T14:56:10Z</time>
      </trkpt>
      <trkpt lat="44.52404" lon="5.77917">
        <ele>870.13</ele>
        <time>2014-12-15T14:56:15Z</time>
      </trkpt>
      <trkpt lat="44.52404" lon="5.77916">
        <ele>871.09</ele>
        <time>2014-12-15T14:56:16Z</time>
      </trkpt>
      <trkpt lat="44.52402" lon="5.77913">
        <ele>873.5</ele>
        <time>2014-12-15T14:56:19Z</time>
      </trkpt>
      <trkpt lat="44.52398" lon="5.77905">
        <ele>873.5</ele>
        <time>2014-12-15T14:56:24Z</time>
      </trkpt>
      <trkpt lat="44.52395" lon="5.77901">
        <ele>874.94</ele>
        <time>2014-12-15T14:56:26Z</time>
      </trkpt>
      <trkpt lat="44.5239" lon="5.77893">
        <ele>870.13</ele>
        <time>2014-12-15T14:56:30Z</time>
      </trkpt>
      <trkpt lat="44.52385" lon="5.77888">
        <ele>872.53</ele>
        <time>2014-12-15T14:56:36Z</time>
      </trkpt>
      <trkpt lat="44.52376" lon="5.77878">
        <ele>873.01</ele>
        <time>2014-12-15T14:56:44Z</time>
      </trkpt>
      <trkpt lat="44.52372" lon="5.77872">
        <ele>870.61</ele>
        <time>2014-12-15T14:56:47Z</time>
      </trkpt>
      <trkpt lat="44.5237" lon="5.77869">
        <ele>874.46</ele>
        <time>2014-12-15T14:56:50Z</time>
      </trkpt>
      <trkpt lat="44.52369" lon="5.77868">
        <ele>874.46</ele>
        <time>2014-12-15T14:56:51Z</time>
      </trkpt>
      <trkpt lat="44.52368" lon="5.77867">
        <ele>873.5</ele>
        <time>2014-12-15T14:56:53Z</time>
      </trkpt>
      <trkpt lat="44.52363" lon="5.77854">
        <ele>871.09</ele>
        <time>2014-12-15T14:57:02Z</time>
      </trkpt>
      <trkpt lat="44.52361" lon="5.77851">
        <ele>869.65</ele>
        <time>2014-12-15T14:57:04Z</time>
      </trkpt>
      <trkpt lat="44.52359" lon="5.77847">
        <ele>871.57</ele>
        <time>2014-12-15T14:57:07Z</time>
      </trkpt>
      <trkpt lat="44.52357" lon="5.77844">
        <ele>870.13</ele>
        <time>2014-12-15T14:57:11Z</time>
      </trkpt>
      <trkpt lat="44.52352" lon="5.77834">
        <ele>869.17</ele>
        <time>2014-12-15T14:57:17Z</time>
      </trkpt>
      <trkpt lat="44.52343" lon="5.77821">
        <ele>869.65</ele>
        <time>2014-12-15T14:57:27Z</time>
      </trkpt>
      <trkpt lat="44.52342" lon="5.77819">
        <ele>868.21</ele>
        <time>2014-12-15T14:57:29Z</time>
      </trkpt>
      <trkpt lat="44.52334" lon="5.778">
        <ele>868.69</ele>
        <time>2014-12-15T14:57:40Z</time>
      </trkpt>
      <trkpt lat="44.52332" lon="5.77794">
        <ele>865.32</ele>
        <time>2014-12-15T14:57:43Z</time>
      </trkpt>
      <trkpt lat="44.5233" lon="5.77791">
        <ele>868.69</ele>
        <time>2014-12-15T14:57:47Z</time>
      </trkpt>
      <trkpt lat="44.5233" lon="5.7779">
        <ele>868.21</ele>
        <time>2014-12-15T14:57:48Z</time>
      </trkpt>
      <trkpt lat="44.5233" lon="5.77788">
        <ele>867.73</ele>
        <time>2014-12-15T14:57:49Z</time>
      </trkpt>
      <trkpt lat="44.52328" lon="5.77783">
        <ele>866.29</ele>
        <time>2014-12-15T14:57:52Z</time>
      </trkpt>
      <trkpt lat="44.52327" lon="5.77779">
        <ele>868.69</ele>
        <time>2014-12-15T14:57:54Z</time>
      </trkpt>
      <trkpt lat="44.52323" lon="5.77762">
        <ele>869.65</ele>
        <time>2014-12-15T14:58:01Z</time>
      </trkpt>
      <trkpt lat="44.52324" lon="5.77755">
        <ele>865.32</ele>
        <time>2014-12-15T14:58:05Z</time>
      </trkpt>
      <trkpt lat="44.52324" lon="5.77752">
        <ele>866.29</ele>
        <time>2014-12-15T14:58:09Z</time>
      </trkpt>
      <trkpt lat="44.52324" lon="5.77749">
        <ele>867.25</ele>
        <time>2014-12-15T14:58:11Z</time>
      </trkpt>
      <trkpt lat="44.52324" lon="5.77748">
        <ele>867.73</ele>
        <time>2014-12-15T14:58:12Z</time>
      </trkpt>
      <trkpt lat="44.52323" lon="5.7773">
        <ele>868.21</ele>
        <time>2014-12-15T14:58:19Z</time>
      </trkpt>
      <trkpt lat="44.5232" lon="5.77723">
        <ele>865.8</ele>
        <time>2014-12-15T14:58:25Z</time>
      </trkpt>
      <trkpt lat="44.52317" lon="5.77721">
        <ele>866.77</ele>
        <time>2014-12-15T14:58:28Z</time>
      </trkpt>
      <trkpt lat="44.52315" lon="5.77717">
        <ele>868.69</ele>
        <time>2014-12-15T14:58:31Z</time>
      </trkpt>
      <trkpt lat="44.52313" lon="5.77714">
        <ele>870.13</ele>
        <time>2014-12-15T14:58:33Z</time>
      </trkpt>
      <trkpt lat="44.52311" lon="5.77712">
        <ele>868.69</ele>
        <time>2014-12-15T14:58:34Z</time>
      </trkpt>
      <trkpt lat="44.52307" lon="5.77707">
        <ele>867.73</ele>
        <time>2014-12-15T14:58:39Z</time>
      </trkpt>
      <trkpt lat="44.52305" lon="5.77705">
        <ele>865.8</ele>
        <time>2014-12-15T14:58:48Z</time>
      </trkpt>
      <trkpt lat="44.52295" lon="5.77694">
        <ele>868.21</ele>
        <time>2014-12-15T14:58:58Z</time>
      </trkpt>
      <trkpt lat="44.5229" lon="5.77687">
        <ele>865.32</ele>
        <time>2014-12-15T14:59:08Z</time>
      </trkpt>
      <trkpt lat="44.52289" lon="5.77684">
        <ele>866.77</ele>
        <time>2014-12-15T14:59:14Z</time>
      </trkpt>
      <trkpt lat="44.52287" lon="5.7768">
        <ele>865.32</ele>
        <time>2014-12-15T14:59:20Z</time>
      </trkpt>
      <trkpt lat="44.52285" lon="5.77674">
        <ele>862.44</ele>
        <time>2014-12-15T14:59:25Z</time>
      </trkpt>
      <trkpt lat="44.52283" lon="5.7767">
        <ele>864.84</ele>
        <time>2014-12-15T14:59:29Z</time>
      </trkpt>
      <trkpt lat="44.5228" lon="5.77668">
        <ele>868.69</ele>
        <time>2014-12-15T14:59:32Z</time>
      </trkpt>
      <trkpt lat="44.5228" lon="5.77668">
        <ele>868.69</ele>
        <time>2014-12-15T14:59:33Z</time>
      </trkpt>
      <trkpt lat="44.52278" lon="5.77664">
        <ele>866.77</ele>
        <time>2014-12-15T14:59:36Z</time>
      </trkpt>
      <trkpt lat="44.52277" lon="5.77656">
        <ele>865.8</ele>
        <time>2014-12-15T14:59:40Z</time>
      </trkpt>
      <trkpt lat="44.52277" lon="5.77651">
        <ele>866.29</ele>
        <time>2014-12-15T14:59:45Z</time>
      </trkpt>
      <trkpt lat="44.52278" lon="5.77647">
        <ele>863.4</ele>
        <time>2014-12-15T14:59:49Z</time>
      </trkpt>
      <trkpt lat="44.5228" lon="5.77643">
        <ele>864.84</ele>
        <time>2014-12-15T14:59:52Z</time>
      </trkpt>
      <trkpt lat="44.5228" lon="5.77637">
        <ele>864.36</ele>
        <time>2014-12-15T14:59:57Z</time>
      </trkpt>
      <trkpt lat="44.52278" lon="5.7763">
        <ele>864.36</ele>
        <time>2014-12-15T15:00:03Z</time>
      </trkpt>
      <trkpt lat="44.52277" lon="5.77623">
        <ele>865.32</ele>
        <time>2014-12-15T15:00:08Z</time>
      </trkpt>
      <trkpt lat="44.52274" lon="5.77613">
        <ele>863.4</ele>
        <time>2014-12-15T15:00:14Z</time>
      </trkpt>
      <trkpt lat="44.52273" lon="5.77608">
        <ele>863.4</ele>
        <time>2014-12-15T15:00:16Z</time>
      </trkpt>
      <trkpt lat="44.52271" lon="5.77603">
        <ele>859.56</ele>
        <time>2014-12-15T15:00:19Z</time>
      </trkpt>
      <trkpt lat="44.52271" lon="5.77602">
        <ele>861.48</ele>
        <time>2014-12-15T15:00:20Z</time>
      </trkpt>
      <trkpt lat="44.52268" lon="5.77597">
        <ele>866.29</ele>
        <time>2014-12-15T15:00:24Z</time>
      </trkpt>
      <trkpt lat="44.52267" lon="5.77595">
        <ele>865.32</ele>
        <time>2014-12-15T15:00:25Z</time>
      </trkpt>
      <trkpt lat="44.52264" lon="5.77587">
        <ele>864.84</ele>
        <time>2014-12-15T15:00:30Z</time>
      </trkpt>
      <trkpt lat="44.52257" lon="5.77576">
        <ele>865.32</ele>
        <time>2014-12-15T15:00:41Z</time>
      </trkpt>
      <trkpt lat="44.52255" lon="5.77574">
        <ele>863.88</ele>
        <time>2014-12-15T15:00:43Z</time>
      </trkpt>
      <trkpt lat="44.52254" lon="5.77571">
        <ele>865.32</ele>
        <time>2014-12-15T15:00:48Z</time>
      </trkpt>
      <trkpt lat="44.5225" lon="5.77565">
        <ele>863.88</ele>
        <time>2014-12-15T15:00:52Z</time>
      </trkpt>
      <trkpt lat="44.52247" lon="5.77562">
        <ele>859.56</ele>
        <time>2014-12-15T15:00:55Z</time>
      </trkpt>
      <trkpt lat="44.52246" lon="5.77561">
        <ele>860.04</ele>
        <time>2014-12-15T15:00:56Z</time>
      </trkpt>
      <trkpt lat="44.52244" lon="5.77559">
        <ele>866.29</ele>
        <time>2014-12-15T15:00:58Z</time>
      </trkpt>
      <trkpt lat="44.52244" lon="5.77558">
        <ele>866.29</ele>
        <time>2014-12-15T15:00:59Z</time>
      </trkpt>
      <trkpt lat="44.52241" lon="5.77556">
        <ele>862.44</ele>
        <time>2014-12-15T15:01:02Z</time>
      </trkpt>
      <trkpt lat="44.52238" lon="5.7755">
        <ele>862.92</ele>
        <time>2014-12-15T15:01:07Z</time>
      </trkpt>
      <trkpt lat="44.52238" lon="5.77549">
        <ele>862.92</ele>
        <time>2014-12-15T15:01:08Z</time>
      </trkpt>
      <trkpt lat="44.52238" lon="5.77544">
        <ele>868.21</ele>
        <time>2014-12-15T15:01:11Z</time>
      </trkpt>
      <trkpt lat="44.52237" lon="5.77541">
        <ele>862.92</ele>
        <time>2014-12-15T15:01:13Z</time>
      </trkpt>
      <trkpt lat="44.52237" lon="5.7754">
        <ele>866.29</ele>
        <time>2014-12-15T15:01:14Z</time>
      </trkpt>
      <trkpt lat="44.52237" lon="5.77532">
        <ele>870.61</ele>
        <time>2014-12-15T15:01:19Z</time>
      </trkpt>
      <trkpt lat="44.52236" lon="5.77531">
        <ele>866.77</ele>
        <time>2014-12-15T15:01:22Z</time>
      </trkpt>
      <trkpt lat="44.52236" lon="5.77527">
        <ele>869.65</ele>
        <time>2014-12-15T15:01:24Z</time>
      </trkpt>
      <trkpt lat="44.52236" lon="5.77524">
        <ele>868.69</ele>
        <time>2014-12-15T15:01:28Z</time>
      </trkpt>
      <trkpt lat="44.52235" lon="5.77513">
        <ele>867.73</ele>
        <time>2014-12-15T15:01:38Z</time>
      </trkpt>
      <trkpt lat="44.52235" lon="5.77511">
        <ele>868.69</ele>
        <time>2014-12-15T15:01:41Z</time>
      </trkpt>
      <trkpt lat="44.52234" lon="5.77507">
        <ele>866.77</ele>
        <time>2014-12-15T15:01:44Z</time>
      </trkpt>
      <trkpt lat="44.52234" lon="5.77507">
        <ele>870.61</ele>
        <time>2014-12-15T15:01:45Z</time>
      </trkpt>
      <trkpt lat="44.52234" lon="5.77501">
        <ele>865.8</ele>
        <time>2014-12-15T15:01:48Z</time>
      </trkpt>
      <trkpt lat="44.52234" lon="5.775">
        <ele>866.77</ele>
        <time>2014-12-15T15:01:49Z</time>
      </trkpt>
      <trkpt lat="44.52233" lon="5.77498">
        <ele>870.61</ele>
        <time>2014-12-15T15:01:51Z</time>
      </trkpt>
      <trkpt lat="44.52233" lon="5.77497">
        <ele>871.09</ele>
        <time>2014-12-15T15:01:52Z</time>
      </trkpt>
      <trkpt lat="44.52234" lon="5.77494">
        <ele>872.05</ele>
        <time>2014-12-15T15:01:54Z</time>
      </trkpt>
      <trkpt lat="44.52234" lon="5.77489">
        <ele>870.13</ele>
        <time>2014-12-15T15:01:58Z</time>
      </trkpt>
      <trkpt lat="44.52235" lon="5.77475">
        <ele>872.05</ele>
        <time>2014-12-15T15:02:10Z</time>
      </trkpt>
      <trkpt lat="44.52233" lon="5.77465">
        <ele>872.53</ele>
        <time>2014-12-15T15:02:17Z</time>
      </trkpt>
      <trkpt lat="44.52236" lon="5.77459">
        <ele>866.29</ele>
        <time>2014-12-15T15:02:21Z</time>
      </trkpt>
      <trkpt lat="44.52236" lon="5.77458">
        <ele>868.69</ele>
        <time>2014-12-15T15:02:22Z</time>
      </trkpt>
      <trkpt lat="44.52236" lon="5.77456">
        <ele>870.61</ele>
        <time>2014-12-15T15:02:24Z</time>
      </trkpt>
      <trkpt lat="44.52237" lon="5.77452">
        <ele>873.01</ele>
        <time>2014-12-15T15:02:27Z</time>
      </trkpt>
      <trkpt lat="44.5224" lon="5.77446">
        <ele>872.05</ele>
        <time>2014-12-15T15:02:33Z</time>
      </trkpt>
      <trkpt lat="44.52241" lon="5.77441">
        <ele>871.09</ele>
        <time>2014-12-15T15:02:36Z</time>
      </trkpt>
      <trkpt lat="44.52241" lon="5.77432">
        <ele>873.98</ele>
        <time>2014-12-15T15:02:43Z</time>
      </trkpt>
      <trkpt lat="44.52241" lon="5.7743">
        <ele>871.09</ele>
        <time>2014-12-15T15:02:45Z</time>
      </trkpt>
      <trkpt lat="44.52241" lon="5.77429">
        <ele>871.09</ele>
        <time>2014-12-15T15:02:46Z</time>
      </trkpt>
      <trkpt lat="44.52241" lon="5.77419">
        <ele>873.01</ele>
        <time>2014-12-15T15:02:51Z</time>
      </trkpt>
      <trkpt lat="44.52241" lon="5.77403">
        <ele>870.13</ele>
        <time>2014-12-15T15:03:00Z</time>
      </trkpt>
      <trkpt lat="44.52241" lon="5.77402">
        <ele>870.13</ele>
        <time>2014-12-15T15:03:01Z</time>
      </trkpt>
      <trkpt lat="44.52239" lon="5.77397">
        <ele>874.46</ele>
        <time>2014-12-15T15:03:06Z</time>
      </trkpt>
      <trkpt lat="44.52238" lon="5.77394">
        <ele>875.42</ele>
        <time>2014-12-15T15:03:07Z</time>
      </trkpt>
      <trkpt lat="44.52236" lon="5.7739">
        <ele>869.65</ele>
        <time>2014-12-15T15:03:10Z</time>
      </trkpt>
      <trkpt lat="44.52236" lon="5.77389">
        <ele>872.05</ele>
        <time>2014-12-15T15:03:11Z</time>
      </trkpt>
      <trkpt lat="44.52235" lon="5.77388">
        <ele>872.05</ele>
        <time>2014-12-15T15:03:12Z</time>
      </trkpt>
      <trkpt lat="44.52234" lon="5.77377">
        <ele>871.57</ele>
        <time>2014-12-15T15:03:18Z</time>
      </trkpt>
      <trkpt lat="44.52232" lon="5.77372">
        <ele>874.94</ele>
        <time>2014-12-15T15:03:22Z</time>
      </trkpt>
      <trkpt lat="44.52232" lon="5.7737">
        <ele>875.9</ele>
        <time>2014-12-15T15:03:24Z</time>
      </trkpt>
      <trkpt lat="44.5223" lon="5.77366">
        <ele>873.5</ele>
        <time>2014-12-15T15:03:27Z</time>
      </trkpt>
      <trkpt lat="44.52226" lon="5.77352">
        <ele>873.98</ele>
        <time>2014-12-15T15:03:38Z</time>
      </trkpt>
      <trkpt lat="44.52225" lon="5.77349">
        <ele>874.94</ele>
        <time>2014-12-15T15:03:41Z</time>
      </trkpt>
      <trkpt lat="44.52222" lon="5.7734">
        <ele>871.09</ele>
        <time>2014-12-15T15:03:46Z</time>
      </trkpt>
      <trkpt lat="44.52222" lon="5.77339">
        <ele>872.05</ele>
        <time>2014-12-15T15:03:47Z</time>
      </trkpt>
      <trkpt lat="44.52221" lon="5.77334">
        <ele>875.42</ele>
        <time>2014-12-15T15:03:52Z</time>
      </trkpt>
      <trkpt lat="44.52221" lon="5.77329">
        <ele>876.38</ele>
        <time>2014-12-15T15:03:55Z</time>
      </trkpt>
      <trkpt lat="44.5222" lon="5.77327">
        <ele>874.94</ele>
        <time>2014-12-15T15:03:57Z</time>
      </trkpt>
      <trkpt lat="44.52211" lon="5.77314">
        <ele>873.01</ele>
        <time>2014-12-15T15:04:06Z</time>
      </trkpt>
      <trkpt lat="44.52209" lon="5.77311">
        <ele>874.94</ele>
        <time>2014-12-15T15:04:08Z</time>
      </trkpt>
      <trkpt lat="44.52208" lon="5.77306">
        <ele>877.82</ele>
        <time>2014-12-15T15:04:12Z</time>
      </trkpt>
      <trkpt lat="44.52208" lon="5.77303">
        <ele>876.38</ele>
        <time>2014-12-15T15:04:14Z</time>
      </trkpt>
      <trkpt lat="44.52207" lon="5.773">
        <ele>874.94</ele>
        <time>2014-12-15T15:04:17Z</time>
      </trkpt>
      <trkpt lat="44.52206" lon="5.77298">
        <ele>871.09</ele>
        <time>2014-12-15T15:04:18Z</time>
      </trkpt>
      <trkpt lat="44.52205" lon="5.77296">
        <ele>872.05</ele>
        <time>2014-12-15T15:04:19Z</time>
      </trkpt>
      <trkpt lat="44.52205" lon="5.77294">
        <ele>875.9</ele>
        <time>2014-12-15T15:04:21Z</time>
      </trkpt>
      <trkpt lat="44.52204" lon="5.77293">
        <ele>875.42</ele>
        <time>2014-12-15T15:04:22Z</time>
      </trkpt>
      <trkpt lat="44.52204" lon="5.77291">
        <ele>875.42</ele>
        <time>2014-12-15T15:04:23Z</time>
      </trkpt>
      <trkpt lat="44.52202" lon="5.77287">
        <ele>877.34</ele>
        <time>2014-12-15T15:04:25Z</time>
      </trkpt>
      <trkpt lat="44.52201" lon="5.77278">
        <ele>878.78</ele>
        <time>2014-12-15T15:04:29Z</time>
      </trkpt>
      <trkpt lat="44.52199" lon="5.77276">
        <ele>876.86</ele>
        <time>2014-12-15T15:04:42Z</time>
      </trkpt>
      <trkpt lat="44.52198" lon="5.77275">
        <ele>875.9</ele>
        <time>2014-12-15T15:05:18Z</time>
      </trkpt>
      <trkpt lat="44.52196" lon="5.7727">
        <ele>876.38</ele>
        <time>2014-12-15T15:05:26Z</time>
      </trkpt>
      <trkpt lat="44.52196" lon="5.77267">
        <ele>874.46</ele>
        <time>2014-12-15T15:05:30Z</time>
      </trkpt>
      <trkpt lat="44.52192" lon="5.77257">
        <ele>878.3</ele>
        <time>2014-12-15T15:05:40Z</time>
      </trkpt>
      <trkpt lat="44.52192" lon="5.77257">
        <ele>878.3</ele>
        <time>2014-12-15T15:05:41Z</time>
      </trkpt>
      <trkpt lat="44.5219" lon="5.77256">
        <ele>876.86</ele>
        <time>2014-12-15T15:05:43Z</time>
      </trkpt>
      <trkpt lat="44.52188" lon="5.77253">
        <ele>875.9</ele>
        <time>2014-12-15T15:05:58Z</time>
      </trkpt>
      <trkpt lat="44.52187" lon="5.77252">
        <ele>876.86</ele>
        <time>2014-12-15T15:06:13Z</time>
      </trkpt>
      <trkpt lat="44.52186" lon="5.7725">
        <ele>877.82</ele>
        <time>2014-12-15T15:06:15Z</time>
      </trkpt>
      <trkpt lat="44.52185" lon="5.77248">
        <ele>878.78</ele>
        <time>2014-12-15T15:06:17Z</time>
      </trkpt>
      <trkpt lat="44.52183" lon="5.77246">
        <ele>876.86</ele>
        <time>2014-12-15T15:06:19Z</time>
      </trkpt>
      <trkpt lat="44.5218" lon="5.77237">
        <ele>879.26</ele>
        <time>2014-12-15T15:06:27Z</time>
      </trkpt>
      <trkpt lat="44.52179" lon="5.7723">
        <ele>875.42</ele>
        <time>2014-12-15T15:06:30Z</time>
      </trkpt>
      <trkpt lat="44.52177" lon="5.77225">
        <ele>875.9</ele>
        <time>2014-12-15T15:06:33Z</time>
      </trkpt>
      <trkpt lat="44.52175" lon="5.77224">
        <ele>876.86</ele>
        <time>2014-12-15T15:06:35Z</time>
      </trkpt>
      <trkpt lat="44.52172" lon="5.77215">
        <ele>877.82</ele>
        <time>2014-12-15T15:06:40Z</time>
      </trkpt>
      <trkpt lat="44.52169" lon="5.77211">
        <ele>880.22</ele>
        <time>2014-12-15T15:06:44Z</time>
      </trkpt>
      <trkpt lat="44.52163" lon="5.77198">
        <ele>880.22</ele>
        <time>2014-12-15T15:06:54Z</time>
      </trkpt>
      <trkpt lat="44.5216" lon="5.77187">
        <ele>877.82</ele>
        <time>2014-12-15T15:07:01Z</time>
      </trkpt>
      <trkpt lat="44.52159" lon="5.77187">
        <ele>877.82</ele>
        <time>2014-12-15T15:07:02Z</time>
      </trkpt>
      <trkpt lat="44.52154" lon="5.77174">
        <ele>877.82</ele>
        <time>2014-12-15T15:07:10Z</time>
      </trkpt>
      <trkpt lat="44.52153" lon="5.77167">
        <ele>881.67</ele>
        <time>2014-12-15T15:07:14Z</time>
      </trkpt>
      <trkpt lat="44.5215" lon="5.77164">
        <ele>881.19</ele>
        <time>2014-12-15T15:07:16Z</time>
      </trkpt>
      <trkpt lat="44.52147" lon="5.7716">
        <ele>875.9</ele>
        <time>2014-12-15T15:07:20Z</time>
      </trkpt>
      <trkpt lat="44.52148" lon="5.77156">
        <ele>879.74</ele>
        <time>2014-12-15T15:07:23Z</time>
      </trkpt>
      <trkpt lat="44.52148" lon="5.77156">
        <ele>879.74</ele>
        <time>2014-12-15T15:07:25Z</time>
      </trkpt>
      <trkpt lat="44.52146" lon="5.7715">
        <ele>876.86</ele>
        <time>2014-12-15T15:07:29Z</time>
      </trkpt>
      <trkpt lat="44.52144" lon="5.77146">
        <ele>877.82</ele>
        <time>2014-12-15T15:07:33Z</time>
      </trkpt>
      <trkpt lat="44.52141" lon="5.77135">
        <ele>881.67</ele>
        <time>2014-12-15T15:07:39Z</time>
      </trkpt>
      <trkpt lat="44.5214" lon="5.77133">
        <ele>881.19</ele>
        <time>2014-12-15T15:07:40Z</time>
      </trkpt>
      <trkpt lat="44.52133" lon="5.77126">
        <ele>878.3</ele>
        <time>2014-12-15T15:07:46Z</time>
      </trkpt>
      <trkpt lat="44.52127" lon="5.77124">
        <ele>880.71</ele>
        <time>2014-12-15T15:07:52Z</time>
      </trkpt>
      <trkpt lat="44.52119" lon="5.77119">
        <ele>879.26</ele>
        <time>2014-12-15T15:07:59Z</time>
      </trkpt>
      <trkpt lat="44.52115" lon="5.77116">
        <ele>875.42</ele>
        <time>2014-12-15T15:08:01Z</time>
      </trkpt>
      <trkpt lat="44.52114" lon="5.77114">
        <ele>875.9</ele>
        <time>2014-12-15T15:08:02Z</time>
      </trkpt>
      <trkpt lat="44.52112" lon="5.77111">
        <ele>875.9</ele>
        <time>2014-12-15T15:08:04Z</time>
      </trkpt>
      <trkpt lat="44.5211" lon="5.77109">
        <ele>879.26</ele>
        <time>2014-12-15T15:08:07Z</time>
      </trkpt>
      <trkpt lat="44.52109" lon="5.77109">
        <ele>880.22</ele>
        <time>2014-12-15T15:08:08Z</time>
      </trkpt>
      <trkpt lat="44.52106" lon="5.77101">
        <ele>877.82</ele>
        <time>2014-12-15T15:08:12Z</time>
      </trkpt>
      <trkpt lat="44.52098" lon="5.77091">
        <ele>880.22</ele>
        <time>2014-12-15T15:08:23Z</time>
      </trkpt>
      <trkpt lat="44.52095" lon="5.77087">
        <ele>877.82</ele>
        <time>2014-12-15T15:08:26Z</time>
      </trkpt>
      <trkpt lat="44.52082" lon="5.77069">
        <ele>879.74</ele>
        <time>2014-12-15T15:08:39Z</time>
      </trkpt>
      <trkpt lat="44.52081" lon="5.77063">
        <ele>878.78</ele>
        <time>2014-12-15T15:08:43Z</time>
      </trkpt>
      <trkpt lat="44.52076" lon="5.77057">
        <ele>876.86</ele>
        <time>2014-12-15T15:08:47Z</time>
      </trkpt>
      <trkpt lat="44.52072" lon="5.77053">
        <ele>878.3</ele>
        <time>2014-12-15T15:08:53Z</time>
      </trkpt>
      <trkpt lat="44.52069" lon="5.77048">
        <ele>873.01</ele>
        <time>2014-12-15T15:08:57Z</time>
      </trkpt>
      <trkpt lat="44.52068" lon="5.77047">
        <ele>876.86</ele>
        <time>2014-12-15T15:08:58Z</time>
      </trkpt>
      <trkpt lat="44.52063" lon="5.77045">
        <ele>877.82</ele>
        <time>2014-12-15T15:09:03Z</time>
      </trkpt>
      <trkpt lat="44.52062" lon="5.77044">
        <ele>878.78</ele>
        <time>2014-12-15T15:09:04Z</time>
      </trkpt>
      <trkpt lat="44.5206" lon="5.77044">
        <ele>880.22</ele>
        <time>2014-12-15T15:09:06Z</time>
      </trkpt>
      <trkpt lat="44.5205" lon="5.77035">
        <ele>883.11</ele>
        <time>2014-12-15T15:09:15Z</time>
      </trkpt>
      <trkpt lat="44.52048" lon="5.77033">
        <ele>881.67</ele>
        <time>2014-12-15T15:09:17Z</time>
      </trkpt>
      <trkpt lat="44.52045" lon="5.77031">
        <ele>879.26</ele>
        <time>2014-12-15T15:09:20Z</time>
      </trkpt>
      <trkpt lat="44.52041" lon="5.77028">
        <ele>884.55</ele>
        <time>2014-12-15T15:09:25Z</time>
      </trkpt>
      <trkpt lat="44.52041" lon="5.77027">
        <ele>884.07</ele>
        <time>2014-12-15T15:09:26Z</time>
      </trkpt>
      <trkpt lat="44.5204" lon="5.77017">
        <ele>882.63</ele>
        <time>2014-12-15T15:09:35Z</time>
      </trkpt>
      <trkpt lat="44.52035" lon="5.77011">
        <ele>882.15</ele>
        <time>2014-12-15T15:09:39Z</time>
      </trkpt>
      <trkpt lat="44.5203" lon="5.77005">
        <ele>882.15</ele>
        <time>2014-12-15T15:10:02Z</time>
      </trkpt>
      <trkpt lat="44.5203" lon="5.77004">
        <ele>881.67</ele>
        <time>2014-12-15T15:10:03Z</time>
      </trkpt>
      <trkpt lat="44.5203" lon="5.76996">
        <ele>880.22</ele>
        <time>2014-12-15T15:10:12Z</time>
      </trkpt>
      <trkpt lat="44.5203" lon="5.76989">
        <ele>880.22</ele>
        <time>2014-12-15T15:10:22Z</time>
      </trkpt>
      <trkpt lat="44.52028" lon="5.76985">
        <ele>879.74</ele>
        <time>2014-12-15T15:10:27Z</time>
      </trkpt>
      <trkpt lat="44.52028" lon="5.76981">
        <ele>879.74</ele>
        <time>2014-12-15T15:10:31Z</time>
      </trkpt>
      <trkpt lat="44.52029" lon="5.76974">
        <ele>876.86</ele>
        <time>2014-12-15T15:10:43Z</time>
      </trkpt>
      <trkpt lat="44.52023" lon="5.76959">
        <ele>876.38</ele>
        <time>2014-12-15T15:10:56Z</time>
      </trkpt>
      <trkpt lat="44.5202" lon="5.76955">
        <ele>875.9</ele>
        <time>2014-12-15T15:10:58Z</time>
      </trkpt>
      <trkpt lat="44.52012" lon="5.76942">
        <ele>873.98</ele>
        <time>2014-12-15T15:11:09Z</time>
      </trkpt>
      <trkpt lat="44.52011" lon="5.76938">
        <ele>872.53</ele>
        <time>2014-12-15T15:11:19Z</time>
      </trkpt>
      <trkpt lat="44.52008" lon="5.76933">
        <ele>872.53</ele>
        <time>2014-12-15T15:11:31Z</time>
      </trkpt>
      <trkpt lat="44.52004" lon="5.76921">
        <ele>870.13</ele>
        <time>2014-12-15T15:11:46Z</time>
      </trkpt>
      <trkpt lat="44.51996" lon="5.76902">
        <ele>867.25</ele>
        <time>2014-12-15T15:12:04Z</time>
      </trkpt>
      <trkpt lat="44.51993" lon="5.76896">
        <ele>866.77</ele>
        <time>2014-12-15T15:12:11Z</time>
      </trkpt>
      <trkpt lat="44.51991" lon="5.7689">
        <ele>867.73</ele>
        <time>2014-12-15T15:12:17Z</time>
      </trkpt>
      <trkpt lat="44.51991" lon="5.76887">
        <ele>866.29</ele>
        <time>2014-12-15T15:12:19Z</time>
      </trkpt>
      <trkpt lat="44.5199" lon="5.76873">
        <ele>864.84</ele>
        <time>2014-12-15T15:12:31Z</time>
      </trkpt>
      <trkpt lat="44.51986" lon="5.7686">
        <ele>864.36</ele>
        <time>2014-12-15T15:12:40Z</time>
      </trkpt>
      <trkpt lat="44.5198" lon="5.76847">
        <ele>864.36</ele>
        <time>2014-12-15T15:12:54Z</time>
      </trkpt>
      <trkpt lat="44.5198" lon="5.76836">
        <ele>861</ele>
        <time>2014-12-15T15:13:06Z</time>
      </trkpt>
      <trkpt lat="44.5198" lon="5.76836">
        <ele>861.48</ele>
        <time>2014-12-15T15:13:07Z</time>
      </trkpt>
      <trkpt lat="44.51979" lon="5.76822">
        <ele>860.52</ele>
        <time>2014-12-15T15:13:17Z</time>
      </trkpt>
      <trkpt lat="44.51979" lon="5.76806">
        <ele>858.59</ele>
        <time>2014-12-15T15:13:29Z</time>
      </trkpt>
      <trkpt lat="44.51976" lon="5.76792">
        <ele>855.71</ele>
        <time>2014-12-15T15:13:40Z</time>
      </trkpt>
      <trkpt lat="44.51975" lon="5.76787">
        <ele>855.71</ele>
        <time>2014-12-15T15:13:46Z</time>
      </trkpt>
      <trkpt lat="44.51967" lon="5.76771">
        <ele>853.79</ele>
        <time>2014-12-15T15:13:58Z</time>
      </trkpt>
      <trkpt lat="44.51965" lon="5.76765">
        <ele>855.23</ele>
        <time>2014-12-15T15:14:01Z</time>
      </trkpt>
      <trkpt lat="44.51959" lon="5.76757">
        <ele>856.19</ele>
        <time>2014-12-15T15:14:10Z</time>
      </trkpt>
      <trkpt lat="44.51955" lon="5.7675">
        <ele>854.75</ele>
        <time>2014-12-15T15:14:19Z</time>
      </trkpt>
      <trkpt lat="44.51951" lon="5.76742">
        <ele>852.83</ele>
        <time>2014-12-15T15:14:25Z</time>
      </trkpt>
      <trkpt lat="44.51947" lon="5.76736">
        <ele>850.9</ele>
        <time>2014-12-15T15:14:34Z</time>
      </trkpt>
      <trkpt lat="44.51943" lon="5.76723">
        <ele>851.38</ele>
        <time>2014-12-15T15:14:42Z</time>
      </trkpt>
      <trkpt lat="44.51943" lon="5.76723">
        <ele>852.35</ele>
        <time>2014-12-15T15:14:44Z</time>
      </trkpt>
      <trkpt lat="44.51937" lon="5.76702">
        <ele>850.9</ele>
        <time>2014-12-15T15:14:57Z</time>
      </trkpt>
      <trkpt lat="44.51936" lon="5.76695">
        <ele>852.35</ele>
        <time>2014-12-15T15:15:01Z</time>
      </trkpt>
      <trkpt lat="44.51936" lon="5.76689">
        <ele>852.35</ele>
        <time>2014-12-15T15:15:05Z</time>
      </trkpt>
      <trkpt lat="44.51929" lon="5.76676">
        <ele>851.38</ele>
        <time>2014-12-15T15:15:14Z</time>
      </trkpt>
      <trkpt lat="44.51925" lon="5.76671">
        <ele>850.9</ele>
        <time>2014-12-15T15:15:20Z</time>
      </trkpt>
      <trkpt lat="44.51923" lon="5.76667">
        <ele>850.42</ele>
        <time>2014-12-15T15:15:22Z</time>
      </trkpt>
      <trkpt lat="44.51918" lon="5.7666">
        <ele>849.46</ele>
        <time>2014-12-15T15:15:35Z</time>
      </trkpt>
      <trkpt lat="44.51916" lon="5.76655">
        <ele>848.02</ele>
        <time>2014-12-15T15:15:50Z</time>
      </trkpt>
      <trkpt lat="44.51915" lon="5.76652">
        <ele>847.06</ele>
        <time>2014-12-15T15:15:54Z</time>
      </trkpt>
      <trkpt lat="44.51914" lon="5.76649">
        <ele>848.02</ele>
        <time>2014-12-15T15:15:56Z</time>
      </trkpt>
      <trkpt lat="44.51912" lon="5.76641">
        <ele>848.5</ele>
        <time>2014-12-15T15:16:04Z</time>
      </trkpt>
      <trkpt lat="44.51911" lon="5.7664">
        <ele>847.06</ele>
        <time>2014-12-15T15:16:06Z</time>
      </trkpt>
      <trkpt lat="44.51907" lon="5.76635">
        <ele>845.14</ele>
        <time>2014-12-15T15:16:21Z</time>
      </trkpt>
      <trkpt lat="44.51899" lon="5.76623">
        <ele>843.21</ele>
        <time>2014-12-15T15:16:34Z</time>
      </trkpt>
      <trkpt lat="44.51897" lon="5.76611">
        <ele>839.37</ele>
        <time>2014-12-15T15:16:42Z</time>
      </trkpt>
      <trkpt lat="44.51895" lon="5.76604">
        <ele>842.25</ele>
        <time>2014-12-15T15:16:47Z</time>
      </trkpt>
      <trkpt lat="44.51892" lon="5.76597">
        <ele>842.25</ele>
        <time>2014-12-15T15:16:52Z</time>
      </trkpt>
      <trkpt lat="44.5189" lon="5.76593">
        <ele>839.85</ele>
        <time>2014-12-15T15:16:58Z</time>
      </trkpt>
      <trkpt lat="44.51886" lon="5.76591">
        <ele>836.48</ele>
        <time>2014-12-15T15:17:02Z</time>
      </trkpt>
      <trkpt lat="44.51886" lon="5.7659">
        <ele>842.25</ele>
        <time>2014-12-15T15:17:03Z</time>
      </trkpt>
      <trkpt lat="44.51883" lon="5.76585">
        <ele>844.66</ele>
        <time>2014-12-15T15:17:09Z</time>
      </trkpt>
      <trkpt lat="44.51883" lon="5.76584">
        <ele>840.81</ele>
        <time>2014-12-15T15:17:11Z</time>
      </trkpt>
      <trkpt lat="44.51881" lon="5.76583">
        <ele>843.69</ele>
        <time>2014-12-15T15:17:14Z</time>
      </trkpt>
      <trkpt lat="44.51878" lon="5.7658">
        <ele>841.77</ele>
        <time>2014-12-15T15:17:18Z</time>
      </trkpt>
      <trkpt lat="44.51877" lon="5.76577">
        <ele>844.66</ele>
        <time>2014-12-15T15:17:20Z</time>
      </trkpt>
      <trkpt lat="44.51875" lon="5.76573">
        <ele>841.29</ele>
        <time>2014-12-15T15:17:23Z</time>
      </trkpt>
      <trkpt lat="44.51873" lon="5.76568">
        <ele>843.69</ele>
        <time>2014-12-15T15:17:27Z</time>
      </trkpt>
      <trkpt lat="44.51869" lon="5.76562">
        <ele>843.21</ele>
        <time>2014-12-15T15:17:32Z</time>
      </trkpt>
      <trkpt lat="44.51867" lon="5.76548">
        <ele>842.25</ele>
        <time>2014-12-15T15:17:44Z</time>
      </trkpt>
      <trkpt lat="44.51866" lon="5.76541">
        <ele>839.37</ele>
        <time>2014-12-15T15:17:50Z</time>
      </trkpt>
      <trkpt lat="44.51863" lon="5.76537">
        <ele>840.33</ele>
        <time>2014-12-15T15:17:54Z</time>
      </trkpt>
      <trkpt lat="44.5186" lon="5.76532">
        <ele>840.33</ele>
        <time>2014-12-15T15:17:58Z</time>
      </trkpt>
      <trkpt lat="44.51857" lon="5.76517">
        <ele>838.89</ele>
        <time>2014-12-15T15:18:11Z</time>
      </trkpt>
      <trkpt lat="44.51854" lon="5.76511">
        <ele>837.93</ele>
        <time>2014-12-15T15:18:22Z</time>
      </trkpt>
      <trkpt lat="44.51854" lon="5.76511">
        <ele>842.25</ele>
        <time>2014-12-15T15:18:30Z</time>
      </trkpt>
      <trkpt lat="44.51854" lon="5.76511">
        <ele>841.29</ele>
        <time>2014-12-15T15:18:31Z</time>
      </trkpt>
      <trkpt lat="44.51854" lon="5.76508">
        <ele>840.33</ele>
        <time>2014-12-15T15:18:33Z</time>
      </trkpt>
      <trkpt lat="44.51854" lon="5.76506">
        <ele>838.89</ele>
        <time>2014-12-15T15:18:36Z</time>
      </trkpt>
      <trkpt lat="44.51852" lon="5.76499">
        <ele>838.41</ele>
        <time>2014-12-15T15:18:54Z</time>
      </trkpt>
      <trkpt lat="44.51852" lon="5.76491">
        <ele>835.04</ele>
        <time>2014-12-15T15:19:05Z</time>
      </trkpt>
      <trkpt lat="44.51845" lon="5.76471">
        <ele>835.04</ele>
        <time>2014-12-15T15:19:17Z</time>
      </trkpt>
      <trkpt lat="44.51835" lon="5.76463">
        <ele>835.52</ele>
        <time>2014-12-15T15:19:29Z</time>
      </trkpt>
      <trkpt lat="44.51831" lon="5.76453">
        <ele>836.96</ele>
        <time>2014-12-15T15:19:35Z</time>
      </trkpt>
      <trkpt lat="44.51826" lon="5.76447">
        <ele>836.96</ele>
        <time>2014-12-15T15:19:42Z</time>
      </trkpt>
      <trkpt lat="44.51826" lon="5.76445">
        <ele>835.52</ele>
        <time>2014-12-15T15:19:45Z</time>
      </trkpt>
      <trkpt lat="44.51825" lon="5.76444">
        <ele>839.37</ele>
        <time>2014-12-15T15:19:46Z</time>
      </trkpt>
      <trkpt lat="44.51825" lon="5.76443">
        <ele>837.93</ele>
        <time>2014-12-15T15:19:47Z</time>
      </trkpt>
      <trkpt lat="44.51825" lon="5.76441">
        <ele>836.48</ele>
        <time>2014-12-15T15:19:50Z</time>
      </trkpt>
      <trkpt lat="44.51824" lon="5.76432">
        <ele>835.52</ele>
        <time>2014-12-15T15:19:57Z</time>
      </trkpt>
      <trkpt lat="44.5182" lon="5.76415">
        <ele>836.48</ele>
        <time>2014-12-15T15:20:09Z</time>
      </trkpt>
      <trkpt lat="44.5182" lon="5.76413">
        <ele>835.04</ele>
        <time>2014-12-15T15:20:12Z</time>
      </trkpt>
      <trkpt lat="44.5182" lon="5.76407">
        <ele>836</ele>
        <time>2014-12-15T15:20:16Z</time>
      </trkpt>
      <trkpt lat="44.5182" lon="5.76402">
        <ele>834.08</ele>
        <time>2014-12-15T15:20:20Z</time>
      </trkpt>
      <trkpt lat="44.51818" lon="5.76395">
        <ele>836.48</ele>
        <time>2014-12-15T15:20:26Z</time>
      </trkpt>
      <trkpt lat="44.51817" lon="5.76392">
        <ele>834.56</ele>
        <time>2014-12-15T15:20:28Z</time>
      </trkpt>
      <trkpt lat="44.51815" lon="5.76388">
        <ele>837.93</ele>
        <time>2014-12-15T15:20:33Z</time>
      </trkpt>
      <trkpt lat="44.51814" lon="5.76384">
        <ele>836</ele>
        <time>2014-12-15T15:20:36Z</time>
      </trkpt>
      <trkpt lat="44.51814" lon="5.76367">
        <ele>835.52</ele>
        <time>2014-12-15T15:20:49Z</time>
      </trkpt>
      <trkpt lat="44.51812" lon="5.76348">
        <ele>834.56</ele>
        <time>2014-12-15T15:21:03Z</time>
      </trkpt>
      <trkpt lat="44.51809" lon="5.76337">
        <ele>833.6</ele>
        <time>2014-12-15T15:21:14Z</time>
      </trkpt>
      <trkpt lat="44.51807" lon="5.76335">
        <ele>833.12</ele>
        <time>2014-12-15T15:21:16Z</time>
      </trkpt>
      <trkpt lat="44.51806" lon="5.76334">
        <ele>833.6</ele>
        <time>2014-12-15T15:21:24Z</time>
      </trkpt>
      <trkpt lat="44.51804" lon="5.76329">
        <ele>832.64</ele>
        <time>2014-12-15T15:21:42Z</time>
      </trkpt>
      <trkpt lat="44.51804" lon="5.76325">
        <ele>833.6</ele>
        <time>2014-12-15T15:21:47Z</time>
      </trkpt>
      <trkpt lat="44.518" lon="5.76306">
        <ele>832.16</ele>
        <time>2014-12-15T15:22:01Z</time>
      </trkpt>
      <trkpt lat="44.51796" lon="5.76291">
        <ele>831.2</ele>
        <time>2014-12-15T15:22:13Z</time>
      </trkpt>
      <trkpt lat="44.51792" lon="5.76277">
        <ele>829.76</ele>
        <time>2014-12-15T15:22:24Z</time>
      </trkpt>
      <trkpt lat="44.51791" lon="5.76272">
        <ele>828.31</ele>
        <time>2014-12-15T15:22:27Z</time>
      </trkpt>
      <trkpt lat="44.51787" lon="5.76263">
        <ele>830.24</ele>
        <time>2014-12-15T15:22:32Z</time>
      </trkpt>
      <trkpt lat="44.51783" lon="5.76241">
        <ele>829.27</ele>
        <time>2014-12-15T15:22:45Z</time>
      </trkpt>
      <trkpt lat="44.51784" lon="5.76235">
        <ele>828.31</ele>
        <time>2014-12-15T15:22:49Z</time>
      </trkpt>
      <trkpt lat="44.51782" lon="5.76229">
        <ele>828.79</ele>
        <time>2014-12-15T15:22:52Z</time>
      </trkpt>
      <trkpt lat="44.51782" lon="5.76224">
        <ele>828.79</ele>
        <time>2014-12-15T15:22:55Z</time>
      </trkpt>
      <trkpt lat="44.51784" lon="5.7621">
        <ele>826.87</ele>
        <time>2014-12-15T15:23:06Z</time>
      </trkpt>
      <trkpt lat="44.51785" lon="5.76196">
        <ele>825.91</ele>
        <time>2014-12-15T15:23:19Z</time>
      </trkpt>
      <trkpt lat="44.51784" lon="5.76185">
        <ele>824.95</ele>
        <time>2014-12-15T15:23:30Z</time>
      </trkpt>
      <trkpt lat="44.51781" lon="5.76179">
        <ele>821.58</ele>
        <time>2014-12-15T15:23:38Z</time>
      </trkpt>
      <trkpt lat="44.51781" lon="5.76179">
        <ele>825.43</ele>
        <time>2014-12-15T15:23:39Z</time>
      </trkpt>
      <trkpt lat="44.51781" lon="5.76177">
        <ele>823.51</ele>
        <time>2014-12-15T15:23:41Z</time>
      </trkpt>
      <trkpt lat="44.51775" lon="5.76164">
        <ele>821.58</ele>
        <time>2014-12-15T15:23:55Z</time>
      </trkpt>
      <trkpt lat="44.51772" lon="5.76159">
        <ele>820.62</ele>
        <time>2014-12-15T15:24:00Z</time>
      </trkpt>
      <trkpt lat="44.5177" lon="5.76148">
        <ele>818.7</ele>
        <time>2014-12-15T15:24:10Z</time>
      </trkpt>
      <trkpt lat="44.51767" lon="5.76147">
        <ele>817.74</ele>
        <time>2014-12-15T15:24:13Z</time>
      </trkpt>
      <trkpt lat="44.51766" lon="5.76136">
        <ele>817.26</ele>
        <time>2014-12-15T15:24:24Z</time>
      </trkpt>
      <trkpt lat="44.51765" lon="5.76131">
        <ele>814.85</ele>
        <time>2014-12-15T15:24:36Z</time>
      </trkpt>
      <trkpt lat="44.51763" lon="5.76124">
        <ele>814.85</ele>
        <time>2014-12-15T15:24:57Z</time>
      </trkpt>
      <trkpt lat="44.5176" lon="5.76118">
        <ele>813.41</ele>
        <time>2014-12-15T15:25:06Z</time>
      </trkpt>
      <trkpt lat="44.51759" lon="5.76116">
        <ele>811.97</ele>
        <time>2014-12-15T15:25:19Z</time>
      </trkpt>
      <trkpt lat="44.51758" lon="5.76115">
        <ele>811.97</ele>
        <time>2014-12-15T15:25:20Z</time>
      </trkpt>
      <trkpt lat="44.51755" lon="5.76104">
        <ele>810.53</ele>
        <time>2014-12-15T15:25:32Z</time>
      </trkpt>
      <trkpt lat="44.51753" lon="5.761">
        <ele>809.09</ele>
        <time>2014-12-15T15:25:35Z</time>
      </trkpt>
      <trkpt lat="44.51753" lon="5.76093">
        <ele>808.61</ele>
        <time>2014-12-15T15:25:47Z</time>
      </trkpt>
      <trkpt lat="44.51749" lon="5.76088">
        <ele>807.64</ele>
        <time>2014-12-15T15:26:08Z</time>
      </trkpt>
      <trkpt lat="44.51742" lon="5.76081">
        <ele>806.2</ele>
        <time>2014-12-15T15:26:18Z</time>
      </trkpt>
      <trkpt lat="44.51741" lon="5.76078">
        <ele>803.8</ele>
        <time>2014-12-15T15:26:20Z</time>
      </trkpt>
      <trkpt lat="44.51741" lon="5.76077">
        <ele>807.16</ele>
        <time>2014-12-15T15:26:21Z</time>
      </trkpt>
      <trkpt lat="44.51739" lon="5.76073">
        <ele>806.2</ele>
        <time>2014-12-15T15:26:38Z</time>
      </trkpt>
      <trkpt lat="44.51739" lon="5.76072">
        <ele>805.24</ele>
        <time>2014-12-15T15:26:44Z</time>
      </trkpt>
      <trkpt lat="44.51735" lon="5.76067">
        <ele>809.09</ele>
        <time>2014-12-15T15:26:50Z</time>
      </trkpt>
      <trkpt lat="44.51734" lon="5.76066">
        <ele>807.16</ele>
        <time>2014-12-15T15:26:51Z</time>
      </trkpt>
      <trkpt lat="44.51734" lon="5.76065">
        <ele>803.32</ele>
        <time>2014-12-15T15:26:52Z</time>
      </trkpt>
      <trkpt lat="44.51734" lon="5.76064">
        <ele>806.68</ele>
        <time>2014-12-15T15:26:53Z</time>
      </trkpt>
      <trkpt lat="44.51734" lon="5.76062">
        <ele>807.64</ele>
        <time>2014-12-15T15:26:55Z</time>
      </trkpt>
      <trkpt lat="44.51733" lon="5.76058">
        <ele>806.2</ele>
        <time>2014-12-15T15:26:59Z</time>
      </trkpt>
      <trkpt lat="44.51729" lon="5.7605">
        <ele>805.72</ele>
        <time>2014-12-15T15:27:09Z</time>
      </trkpt>
      <trkpt lat="44.51728" lon="5.76044">
        <ele>807.16</ele>
        <time>2014-12-15T15:27:11Z</time>
      </trkpt>
      <trkpt lat="44.51726" lon="5.76041">
        <ele>803.32</ele>
        <time>2014-12-15T15:27:15Z</time>
      </trkpt>
      <trkpt lat="44.51726" lon="5.76041">
        <ele>805.24</ele>
        <time>2014-12-15T15:27:16Z</time>
      </trkpt>
      <trkpt lat="44.51725" lon="5.76038">
        <ele>806.68</ele>
        <time>2014-12-15T15:27:18Z</time>
      </trkpt>
      <trkpt lat="44.51723" lon="5.76029">
        <ele>805.24</ele>
        <time>2014-12-15T15:27:28Z</time>
      </trkpt>
      <trkpt lat="44.51721" lon="5.76016">
        <ele>803.8</ele>
        <time>2014-12-15T15:27:37Z</time>
      </trkpt>
      <trkpt lat="44.51716" lon="5.76007">
        <ele>803.32</ele>
        <time>2014-12-15T15:27:48Z</time>
      </trkpt>
      <trkpt lat="44.51713" lon="5.76">
        <ele>804.76</ele>
        <time>2014-12-15T15:27:51Z</time>
      </trkpt>
      <trkpt lat="44.5171" lon="5.75996">
        <ele>808.13</ele>
        <time>2014-12-15T15:27:54Z</time>
      </trkpt>
      <trkpt lat="44.51709" lon="5.75993">
        <ele>804.76</ele>
        <time>2014-12-15T15:27:57Z</time>
      </trkpt>
      <trkpt lat="44.51707" lon="5.75987">
        <ele>798.03</ele>
        <time>2014-12-15T15:28:08Z</time>
      </trkpt>
      <trkpt lat="44.51707" lon="5.75987">
        <ele>807.64</ele>
        <time>2014-12-15T15:28:09Z</time>
      </trkpt>
      <trkpt lat="44.51707" lon="5.75987">
        <ele>805.24</ele>
        <time>2014-12-15T15:28:10Z</time>
      </trkpt>
      <trkpt lat="44.51705" lon="5.75986">
        <ele>806.2</ele>
        <time>2014-12-15T15:28:17Z</time>
      </trkpt>
      <trkpt lat="44.51704" lon="5.75986">
        <ele>804.28</ele>
        <time>2014-12-15T15:28:20Z</time>
      </trkpt>
      <trkpt lat="44.51698" lon="5.75975">
        <ele>804.76</ele>
        <time>2014-12-15T15:28:31Z</time>
      </trkpt>
      <trkpt lat="44.51691" lon="5.75969">
        <ele>804.28</ele>
        <time>2014-12-15T15:28:39Z</time>
      </trkpt>
      <trkpt lat="44.51688" lon="5.75965">
        <ele>805.72</ele>
        <time>2014-12-15T15:28:42Z</time>
      </trkpt>
      <trkpt lat="44.51684" lon="5.75959">
        <ele>802.84</ele>
        <time>2014-12-15T15:28:46Z</time>
      </trkpt>
      <trkpt lat="44.51675" lon="5.75946">
        <ele>806.2</ele>
        <time>2014-12-15T15:28:55Z</time>
      </trkpt>
      <trkpt lat="44.51673" lon="5.75943">
        <ele>802.36</ele>
        <time>2014-12-15T15:28:58Z</time>
      </trkpt>
      <trkpt lat="44.51671" lon="5.75942">
        <ele>803.8</ele>
        <time>2014-12-15T15:29:00Z</time>
      </trkpt>
      <trkpt lat="44.51666" lon="5.75936">
        <ele>804.28</ele>
        <time>2014-12-15T15:29:07Z</time>
      </trkpt>
      <trkpt lat="44.51657" lon="5.75922">
        <ele>806.2</ele>
        <time>2014-12-15T15:29:21Z</time>
      </trkpt>
      <trkpt lat="44.51656" lon="5.75921">
        <ele>806.2</ele>
        <time>2014-12-15T15:29:22Z</time>
      </trkpt>
      <trkpt lat="44.51654" lon="5.75918">
        <ele>804.28</ele>
        <time>2014-12-15T15:29:24Z</time>
      </trkpt>
      <trkpt lat="44.51651" lon="5.75913">
        <ele>805.24</ele>
        <time>2014-12-15T15:29:31Z</time>
      </trkpt>
      <trkpt lat="44.5165" lon="5.75911">
        <ele>804.28</ele>
        <time>2014-12-15T15:29:33Z</time>
      </trkpt>
      <trkpt lat="44.51649" lon="5.75907">
        <ele>803.32</ele>
        <time>2014-12-15T15:29:38Z</time>
      </trkpt>
      <trkpt lat="44.51647" lon="5.75899">
        <ele>800.92</ele>
        <time>2014-12-15T15:29:42Z</time>
      </trkpt>
      <trkpt lat="44.51646" lon="5.75897">
        <ele>800.92</ele>
        <time>2014-12-15T15:29:43Z</time>
      </trkpt>
      <trkpt lat="44.51645" lon="5.75891">
        <ele>802.84</ele>
        <time>2014-12-15T15:29:47Z</time>
      </trkpt>
      <trkpt lat="44.51638" lon="5.75878">
        <ele>800.92</ele>
        <time>2014-12-15T15:29:59Z</time>
      </trkpt>
      <trkpt lat="44.51635" lon="5.75867">
        <ele>799.47</ele>
        <time>2014-12-15T15:30:08Z</time>
      </trkpt>
      <trkpt lat="44.51634" lon="5.75858">
        <ele>798.03</ele>
        <time>2014-12-15T15:30:18Z</time>
      </trkpt>
      <trkpt lat="44.51628" lon="5.75846">
        <ele>796.59</ele>
        <time>2014-12-15T15:30:28Z</time>
      </trkpt>
      <trkpt lat="44.51626" lon="5.7584">
        <ele>795.63</ele>
        <time>2014-12-15T15:30:33Z</time>
      </trkpt>
      <trkpt lat="44.5162" lon="5.75827">
        <ele>794.67</ele>
        <time>2014-12-15T15:30:44Z</time>
      </trkpt>
      <trkpt lat="44.51614" lon="5.75819">
        <ele>792.74</ele>
        <time>2014-12-15T15:30:55Z</time>
      </trkpt>
      <trkpt lat="44.5161" lon="5.75807">
        <ele>791.3</ele>
        <time>2014-12-15T15:31:07Z</time>
      </trkpt>
      <trkpt lat="44.51607" lon="5.75795">
        <ele>789.86</ele>
        <time>2014-12-15T15:31:19Z</time>
      </trkpt>
      <trkpt lat="44.51601" lon="5.75782">
        <ele>786.98</ele>
        <time>2014-12-15T15:31:29Z</time>
      </trkpt>
      <trkpt lat="44.51597" lon="5.75775">
        <ele>786.02</ele>
        <time>2014-12-15T15:31:39Z</time>
      </trkpt>
      <trkpt lat="44.51592" lon="5.75763">
        <ele>785.05</ele>
        <time>2014-12-15T15:31:49Z</time>
      </trkpt>
      <trkpt lat="44.51588" lon="5.75752">
        <ele>783.13</ele>
        <time>2014-12-15T15:32:01Z</time>
      </trkpt>
      <trkpt lat="44.51587" lon="5.7575">
        <ele>782.65</ele>
        <time>2014-12-15T15:32:02Z</time>
      </trkpt>
      <trkpt lat="44.51584" lon="5.75744">
        <ele>779.77</ele>
        <time>2014-12-15T15:32:12Z</time>
      </trkpt>
      <trkpt lat="44.51584" lon="5.75743">
        <ele>780.25</ele>
        <time>2014-12-15T15:32:13Z</time>
      </trkpt>
      <trkpt lat="44.51583" lon="5.75739">
        <ele>778.32</ele>
        <time>2014-12-15T15:32:28Z</time>
      </trkpt>
      <trkpt lat="44.5158" lon="5.75733">
        <ele>776.88</ele>
        <time>2014-12-15T15:32:38Z</time>
      </trkpt>
      <trkpt lat="44.51576" lon="5.75721">
        <ele>776.4</ele>
        <time>2014-12-15T15:32:48Z</time>
      </trkpt>
      <trkpt lat="44.51575" lon="5.75713">
        <ele>772.56</ele>
        <time>2014-12-15T15:32:59Z</time>
      </trkpt>
      <trkpt lat="44.51569" lon="5.75704">
        <ele>773.04</ele>
        <time>2014-12-15T15:33:10Z</time>
      </trkpt>
      <trkpt lat="44.51568" lon="5.75701">
        <ele>771.11</ele>
        <time>2014-12-15T15:33:20Z</time>
      </trkpt>
      <trkpt lat="44.51564" lon="5.75687">
        <ele>769.67</ele>
        <time>2014-12-15T15:33:35Z</time>
      </trkpt>
      <trkpt lat="44.51562" lon="5.75675">
        <ele>766.79</ele>
        <time>2014-12-15T15:33:48Z</time>
      </trkpt>
      <trkpt lat="44.51561" lon="5.75665">
        <ele>765.83</ele>
        <time>2014-12-15T15:34:06Z</time>
      </trkpt>
      <trkpt lat="44.51554" lon="5.75659">
        <ele>763.9</ele>
        <time>2014-12-15T15:34:20Z</time>
      </trkpt>
      <trkpt lat="44.51553" lon="5.75658">
        <ele>760.06</ele>
        <time>2014-12-15T15:34:35Z</time>
      </trkpt>
      <trkpt lat="44.5155" lon="5.75654">
        <ele>760.06</ele>
        <time>2014-12-15T15:34:51Z</time>
      </trkpt>
      <trkpt lat="44.51548" lon="5.75646">
        <ele>756.69</ele>
        <time>2014-12-15T15:34:59Z</time>
      </trkpt>
      <trkpt lat="44.51539" lon="5.75629">
        <ele>757.66</ele>
        <time>2014-12-15T15:35:16Z</time>
      </trkpt>
      <trkpt lat="44.51535" lon="5.75627">
        <ele>754.29</ele>
        <time>2014-12-15T15:35:27Z</time>
      </trkpt>
      <trkpt lat="44.51531" lon="5.75623">
        <ele>755.73</ele>
        <time>2014-12-15T15:35:33Z</time>
      </trkpt>
      <trkpt lat="44.51522" lon="5.7562">
        <ele>757.66</ele>
        <time>2014-12-15T15:35:44Z</time>
      </trkpt>
      <trkpt lat="44.51519" lon="5.75618">
        <ele>756.21</ele>
        <time>2014-12-15T15:35:47Z</time>
      </trkpt>
      <trkpt lat="44.5151" lon="5.75613">
        <ele>756.69</ele>
        <time>2014-12-15T15:35:57Z</time>
      </trkpt>
      <trkpt lat="44.5151" lon="5.75613">
        <ele>756.69</ele>
        <time>2014-12-15T15:35:58Z</time>
      </trkpt>
      <trkpt lat="44.51506" lon="5.7561">
        <ele>754.77</ele>
        <time>2014-12-15T15:36:01Z</time>
      </trkpt>
      <trkpt lat="44.51502" lon="5.75606">
        <ele>758.62</ele>
        <time>2014-12-15T15:36:05Z</time>
      </trkpt>
      <trkpt lat="44.51495" lon="5.75605">
        <ele>759.1</ele>
        <time>2014-12-15T15:36:09Z</time>
      </trkpt>
      <trkpt lat="44.51485" lon="5.75603">
        <ele>760.06</ele>
        <time>2014-12-15T15:36:20Z</time>
      </trkpt>
      <trkpt lat="44.51483" lon="5.75603">
        <ele>759.58</ele>
        <time>2014-12-15T15:36:22Z</time>
      </trkpt>
      <trkpt lat="44.51481" lon="5.75604">
        <ele>758.14</ele>
        <time>2014-12-15T15:36:24Z</time>
      </trkpt>
      <trkpt lat="44.51477" lon="5.75604">
        <ele>760.54</ele>
        <time>2014-12-15T15:36:27Z</time>
      </trkpt>
      <trkpt lat="44.51475" lon="5.75605">
        <ele>756.69</ele>
        <time>2014-12-15T15:36:29Z</time>
      </trkpt>
      <trkpt lat="44.51474" lon="5.75605">
        <ele>757.18</ele>
        <time>2014-12-15T15:36:30Z</time>
      </trkpt>
      <trkpt lat="44.51472" lon="5.75605">
        <ele>758.62</ele>
        <time>2014-12-15T15:36:33Z</time>
      </trkpt>
      <trkpt lat="44.51469" lon="5.75605">
        <ele>760.54</ele>
        <time>2014-12-15T15:36:35Z</time>
      </trkpt>
      <trkpt lat="44.51467" lon="5.75609">
        <ele>764.39</ele>
        <time>2014-12-15T15:36:38Z</time>
      </trkpt>
      <trkpt lat="44.51461" lon="5.75616">
        <ele>760.54</ele>
        <time>2014-12-15T15:36:45Z</time>
      </trkpt>
      <trkpt lat="44.5146" lon="5.75618">
        <ele>756.69</ele>
        <time>2014-12-15T15:36:47Z</time>
      </trkpt>
      <trkpt lat="44.51459" lon="5.75621">
        <ele>761.5</ele>
        <time>2014-12-15T15:36:50Z</time>
      </trkpt>
      <trkpt lat="44.51458" lon="5.75622">
        <ele>761.5</ele>
        <time>2014-12-15T15:36:51Z</time>
      </trkpt>
      <trkpt lat="44.51451" lon="5.75632">
        <ele>764.87</ele>
        <time>2014-12-15T15:37:01Z</time>
      </trkpt>
      <trkpt lat="44.51448" lon="5.75635">
        <ele>761.98</ele>
        <time>2014-12-15T15:37:11Z</time>
      </trkpt>
      <trkpt lat="44.51447" lon="5.75635">
        <ele>762.46</ele>
        <time>2014-12-15T15:37:12Z</time>
      </trkpt>
      <trkpt lat="44.51446" lon="5.75638">
        <ele>760.06</ele>
        <time>2014-12-15T15:37:14Z</time>
      </trkpt>
      <trkpt lat="44.51445" lon="5.7564">
        <ele>761.98</ele>
        <time>2014-12-15T15:37:16Z</time>
      </trkpt>
      <trkpt lat="44.51443" lon="5.75641">
        <ele>764.87</ele>
        <time>2014-12-15T15:37:18Z</time>
      </trkpt>
      <trkpt lat="44.51442" lon="5.75642">
        <ele>762.94</ele>
        <time>2014-12-15T15:37:19Z</time>
      </trkpt>
      <trkpt lat="44.51439" lon="5.75645">
        <ele>764.39</ele>
        <time>2014-12-15T15:37:22Z</time>
      </trkpt>
      <trkpt lat="44.51431" lon="5.75655">
        <ele>763.42</ele>
        <time>2014-12-15T15:37:30Z</time>
      </trkpt>
      <trkpt lat="44.51426" lon="5.75658">
        <ele>764.87</ele>
        <time>2014-12-15T15:37:36Z</time>
      </trkpt>
      <trkpt lat="44.51421" lon="5.7566">
        <ele>763.9</ele>
        <time>2014-12-15T15:37:41Z</time>
      </trkpt>
      <trkpt lat="44.51411" lon="5.75665">
        <ele>765.83</ele>
        <time>2014-12-15T15:37:52Z</time>
      </trkpt>
      <trkpt lat="44.51411" lon="5.75665">
        <ele>765.83</ele>
        <time>2014-12-15T15:37:53Z</time>
      </trkpt>
      <trkpt lat="44.51402" lon="5.7567">
        <ele>763.42</ele>
        <time>2014-12-15T15:38:02Z</time>
      </trkpt>
      <trkpt lat="44.514" lon="5.75671">
        <ele>767.27</ele>
        <time>2014-12-15T15:38:04Z</time>
      </trkpt>
      <trkpt lat="44.51398" lon="5.75672">
        <ele>767.27</ele>
        <time>2014-12-15T15:38:05Z</time>
      </trkpt>
      <trkpt lat="44.51394" lon="5.75672">
        <ele>765.83</ele>
        <time>2014-12-15T15:38:11Z</time>
      </trkpt>
      <trkpt lat="44.51384" lon="5.75676">
        <ele>770.15</ele>
        <time>2014-12-15T15:38:20Z</time>
      </trkpt>
      <trkpt lat="44.51383" lon="5.75677">
        <ele>769.67</ele>
        <time>2014-12-15T15:38:21Z</time>
      </trkpt>
      <trkpt lat="44.51382" lon="5.75678">
        <ele>764.87</ele>
        <time>2014-12-15T15:38:23Z</time>
      </trkpt>
      <trkpt lat="44.51379" lon="5.7568">
        <ele>766.79</ele>
        <time>2014-12-15T15:38:26Z</time>
      </trkpt>
      <trkpt lat="44.51378" lon="5.75681">
        <ele>767.75</ele>
        <time>2014-12-15T15:38:27Z</time>
      </trkpt>
      <trkpt lat="44.51375" lon="5.75682">
        <ele>770.15</ele>
        <time>2014-12-15T15:38:30Z</time>
      </trkpt>
      <trkpt lat="44.51366" lon="5.75688">
        <ele>769.67</ele>
        <time>2014-12-15T15:38:41Z</time>
      </trkpt>
      <trkpt lat="44.51358" lon="5.75695">
        <ele>769.67</ele>
        <time>2014-12-15T15:38:53Z</time>
      </trkpt>
      <trkpt lat="44.51354" lon="5.757">
        <ele>769.19</ele>
        <time>2014-12-15T15:38:58Z</time>
      </trkpt>
      <trkpt lat="44.51348" lon="5.75708">
        <ele>772.56</ele>
        <time>2014-12-15T15:39:06Z</time>
      </trkpt>
      <trkpt lat="44.51344" lon="5.75714">
        <ele>771.6</ele>
        <time>2014-12-15T15:39:11Z</time>
      </trkpt>
      <trkpt lat="44.51341" lon="5.75717">
        <ele>769.67</ele>
        <time>2014-12-15T15:39:14Z</time>
      </trkpt>
      <trkpt lat="44.51339" lon="5.75721">
        <ele>771.6</ele>
        <time>2014-12-15T15:39:18Z</time>
      </trkpt>
      <trkpt lat="44.51337" lon="5.75727">
        <ele>768.23</ele>
        <time>2014-12-15T15:39:23Z</time>
      </trkpt>
      <trkpt lat="44.51336" lon="5.75728">
        <ele>768.71</ele>
        <time>2014-12-15T15:39:24Z</time>
      </trkpt>
      <trkpt lat="44.51336" lon="5.7573">
        <ele>773.04</ele>
        <time>2014-12-15T15:39:26Z</time>
      </trkpt>
      <trkpt lat="44.51335" lon="5.75731">
        <ele>773.04</ele>
        <time>2014-12-15T15:39:27Z</time>
      </trkpt>
      <trkpt lat="44.51332" lon="5.75734">
        <ele>769.19</ele>
        <time>2014-12-15T15:39:31Z</time>
      </trkpt>
      <trkpt lat="44.51332" lon="5.75737">
        <ele>772.56</ele>
        <time>2014-12-15T15:39:33Z</time>
      </trkpt>
      <trkpt lat="44.51329" lon="5.75741">
        <ele>775.44</ele>
        <time>2014-12-15T15:39:37Z</time>
      </trkpt>
      <trkpt lat="44.51327" lon="5.75745">
        <ele>772.56</ele>
        <time>2014-12-15T15:39:41Z</time>
      </trkpt>
      <trkpt lat="44.51322" lon="5.75752">
        <ele>776.4</ele>
        <time>2014-12-15T15:39:48Z</time>
      </trkpt>
      <trkpt lat="44.51322" lon="5.75753">
        <ele>774.96</ele>
        <time>2014-12-15T15:39:49Z</time>
      </trkpt>
      <trkpt lat="44.51316" lon="5.75764">
        <ele>775.44</ele>
        <time>2014-12-15T15:40:02Z</time>
      </trkpt>
      <trkpt lat="44.51319" lon="5.75776">
        <ele>776.4</ele>
        <time>2014-12-15T15:40:11Z</time>
      </trkpt>
      <trkpt lat="44.51321" lon="5.7578">
        <ele>776.4</ele>
        <time>2014-12-15T15:40:15Z</time>
      </trkpt>
      <trkpt lat="44.51326" lon="5.75791">
        <ele>775.44</ele>
        <time>2014-12-15T15:40:25Z</time>
      </trkpt>
      <trkpt lat="44.51327" lon="5.75794">
        <ele>778.32</ele>
        <time>2014-12-15T15:40:28Z</time>
      </trkpt>
      <trkpt lat="44.51327" lon="5.75795">
        <ele>774.48</ele>
        <time>2014-12-15T15:40:29Z</time>
      </trkpt>
      <trkpt lat="44.51327" lon="5.75796">
        <ele>774.96</ele>
        <time>2014-12-15T15:40:30Z</time>
      </trkpt>
      <trkpt lat="44.51327" lon="5.75796">
        <ele>777.36</ele>
        <time>2014-12-15T15:40:31Z</time>
      </trkpt>
      <trkpt lat="44.51325" lon="5.75807">
        <ele>777.36</ele>
        <time>2014-12-15T15:40:37Z</time>
      </trkpt>
      <trkpt lat="44.51321" lon="5.75811">
        <ele>780.25</ele>
        <time>2014-12-15T15:40:41Z</time>
      </trkpt>
      <trkpt lat="44.51321" lon="5.7581">
        <ele>778.81</ele>
        <time>2014-12-15T15:40:43Z</time>
      </trkpt>
      <trkpt lat="44.51321" lon="5.7581">
        <ele>778.32</ele>
        <time>2014-12-15T15:40:45Z</time>
      </trkpt>
      <trkpt lat="44.51317" lon="5.75813">
        <ele>777.36</ele>
        <time>2014-12-15T15:40:48Z</time>
      </trkpt>
      <trkpt lat="44.51308" lon="5.75815">
        <ele>777.84</ele>
        <time>2014-12-15T15:40:57Z</time>
      </trkpt>
      <trkpt lat="44.51297" lon="5.75819">
        <ele>778.32</ele>
        <time>2014-12-15T15:41:07Z</time>
      </trkpt>
      <trkpt lat="44.51295" lon="5.75819">
        <ele>776.88</ele>
        <time>2014-12-15T15:41:09Z</time>
      </trkpt>
      <trkpt lat="44.51293" lon="5.75821">
        <ele>778.81</ele>
        <time>2014-12-15T15:41:12Z</time>
      </trkpt>
      <trkpt lat="44.51289" lon="5.75822">
        <ele>781.21</ele>
        <time>2014-12-15T15:41:17Z</time>
      </trkpt>
      <trkpt lat="44.51287" lon="5.75823">
        <ele>779.29</ele>
        <time>2014-12-15T15:41:19Z</time>
      </trkpt>
      <trkpt lat="44.51286" lon="5.75824">
        <ele>779.77</ele>
        <time>2014-12-15T15:41:21Z</time>
      </trkpt>
      <trkpt lat="44.5128" lon="5.75828">
        <ele>780.73</ele>
        <time>2014-12-15T15:41:25Z</time>
      </trkpt>
      <trkpt lat="44.51277" lon="5.7583">
        <ele>777.36</ele>
        <time>2014-12-15T15:41:30Z</time>
      </trkpt>
      <trkpt lat="44.51265" lon="5.75837">
        <ele>779.77</ele>
        <time>2014-12-15T15:41:41Z</time>
      </trkpt>
      <trkpt lat="44.51257" lon="5.75842">
        <ele>779.77</ele>
        <time>2014-12-15T15:41:48Z</time>
      </trkpt>
      <trkpt lat="44.51252" lon="5.75845">
        <ele>776.88</ele>
        <time>2014-12-15T15:41:52Z</time>
      </trkpt>
      <trkpt lat="44.51248" lon="5.75847">
        <ele>779.77</ele>
        <time>2014-12-15T15:41:57Z</time>
      </trkpt>
      <trkpt lat="44.51247" lon="5.75848">
        <ele>779.29</ele>
        <time>2014-12-15T15:41:58Z</time>
      </trkpt>
      <trkpt lat="44.51236" lon="5.75852">
        <ele>780.25</ele>
        <time>2014-12-15T15:42:08Z</time>
      </trkpt>
      <trkpt lat="44.5123" lon="5.75855">
        <ele>780.73</ele>
        <time>2014-12-15T15:42:12Z</time>
      </trkpt>
      <trkpt lat="44.51228" lon="5.75855">
        <ele>780.25</ele>
        <time>2014-12-15T15:42:15Z</time>
      </trkpt>
      <trkpt lat="44.51221" lon="5.75859">
        <ele>776.88</ele>
        <time>2014-12-15T15:42:22Z</time>
      </trkpt>
      <trkpt lat="44.51219" lon="5.75861">
        <ele>779.77</ele>
        <time>2014-12-15T15:42:25Z</time>
      </trkpt>
      <trkpt lat="44.51211" lon="5.75866">
        <ele>777.36</ele>
        <time>2014-12-15T15:42:31Z</time>
      </trkpt>
      <trkpt lat="44.512" lon="5.75873">
        <ele>777.84</ele>
        <time>2014-12-15T15:42:42Z</time>
      </trkpt>
      <trkpt lat="44.51193" lon="5.75877">
        <ele>780.25</ele>
        <time>2014-12-15T15:42:48Z</time>
      </trkpt>
      <trkpt lat="44.51187" lon="5.75881">
        <ele>777.84</ele>
        <time>2014-12-15T15:42:54Z</time>
      </trkpt>
      <trkpt lat="44.51184" lon="5.75884">
        <ele>780.73</ele>
        <time>2014-12-15T15:42:58Z</time>
      </trkpt>
      <trkpt lat="44.51173" lon="5.7589">
        <ele>781.21</ele>
        <time>2014-12-15T15:43:08Z</time>
      </trkpt>
      <trkpt lat="44.51163" lon="5.75896">
        <ele>780.73</ele>
        <time>2014-12-15T15:43:16Z</time>
      </trkpt>
      <trkpt lat="44.51162" lon="5.75896">
        <ele>781.69</ele>
        <time>2014-12-15T15:43:18Z</time>
      </trkpt>
      <trkpt lat="44.51153" lon="5.75901">
        <ele>781.21</ele>
        <time>2014-12-15T15:43:26Z</time>
      </trkpt>
      <trkpt lat="44.51148" lon="5.75903">
        <ele>780.73</ele>
        <time>2014-12-15T15:43:31Z</time>
      </trkpt>
      <trkpt lat="44.51143" lon="5.75905">
        <ele>782.65</ele>
        <time>2014-12-15T15:43:37Z</time>
      </trkpt>
      <trkpt lat="44.51142" lon="5.75906">
        <ele>782.65</ele>
        <time>2014-12-15T15:43:38Z</time>
      </trkpt>
      <trkpt lat="44.51136" lon="5.7591">
        <ele>781.21</ele>
        <time>2014-12-15T15:43:44Z</time>
      </trkpt>
      <trkpt lat="44.51122" lon="5.7592">
        <ele>781.21</ele>
        <time>2014-12-15T15:43:56Z</time>
      </trkpt>
      <trkpt lat="44.51111" lon="5.75928">
        <ele>777.36</ele>
        <time>2014-12-15T15:44:05Z</time>
      </trkpt>
      <trkpt lat="44.5111" lon="5.75929">
        <ele>777.84</ele>
        <time>2014-12-15T15:44:06Z</time>
      </trkpt>
      <trkpt lat="44.51109" lon="5.7593">
        <ele>779.77</ele>
        <time>2014-12-15T15:44:09Z</time>
      </trkpt>
      <trkpt lat="44.51099" lon="5.7594">
        <ele>778.32</ele>
        <time>2014-12-15T15:44:20Z</time>
      </trkpt>
      <trkpt lat="44.51099" lon="5.7594">
        <ele>777.36</ele>
        <time>2014-12-15T15:44:21Z</time>
      </trkpt>
      <trkpt lat="44.51091" lon="5.75947">
        <ele>774.48</ele>
        <time>2014-12-15T15:44:29Z</time>
      </trkpt>
      <trkpt lat="44.5109" lon="5.75948">
        <ele>777.36</ele>
        <time>2014-12-15T15:44:30Z</time>
      </trkpt>
      <trkpt lat="44.51089" lon="5.75949">
        <ele>778.81</ele>
        <time>2014-12-15T15:44:32Z</time>
      </trkpt>
      <trkpt lat="44.51087" lon="5.75951">
        <ele>781.69</ele>
        <time>2014-12-15T15:44:34Z</time>
      </trkpt>
      <trkpt lat="44.51086" lon="5.75952">
        <ele>780.73</ele>
        <time>2014-12-15T15:44:35Z</time>
      </trkpt>
      <trkpt lat="44.51084" lon="5.75956">
        <ele>783.13</ele>
        <time>2014-12-15T15:44:39Z</time>
      </trkpt>
      <trkpt lat="44.51082" lon="5.75958">
        <ele>777.84</ele>
        <time>2014-12-15T15:44:43Z</time>
      </trkpt>
      <trkpt lat="44.51082" lon="5.75958">
        <ele>778.81</ele>
        <time>2014-12-15T15:44:44Z</time>
      </trkpt>
      <trkpt lat="44.51082" lon="5.75961">
        <ele>779.77</ele>
        <time>2014-12-15T15:44:46Z</time>
      </trkpt>
      <trkpt lat="44.51081" lon="5.75963">
        <ele>780.73</ele>
        <time>2014-12-15T15:44:47Z</time>
      </trkpt>
      <trkpt lat="44.51078" lon="5.75978">
        <ele>782.17</ele>
        <time>2014-12-15T15:44:58Z</time>
      </trkpt>
      <trkpt lat="44.51077" lon="5.75982">
        <ele>781.69</ele>
        <time>2014-12-15T15:45:00Z</time>
      </trkpt>
      <trkpt lat="44.5107" lon="5.76001">
        <ele>782.17</ele>
        <time>2014-12-15T15:45:12Z</time>
      </trkpt>
      <trkpt lat="44.51069" lon="5.76005">
        <ele>783.61</ele>
        <time>2014-12-15T15:45:14Z</time>
      </trkpt>
      <trkpt lat="44.51064" lon="5.76014">
        <ele>778.32</ele>
        <time>2014-12-15T15:45:19Z</time>
      </trkpt>
      <trkpt lat="44.51062" lon="5.76019">
        <ele>781.69</ele>
        <time>2014-12-15T15:45:23Z</time>
      </trkpt>
      <trkpt lat="44.51061" lon="5.7602">
        <ele>781.21</ele>
        <time>2014-12-15T15:45:24Z</time>
      </trkpt>
      <trkpt lat="44.51055" lon="5.76033">
        <ele>782.17</ele>
        <time>2014-12-15T15:45:36Z</time>
      </trkpt>
      <trkpt lat="44.51047" lon="5.76048">
        <ele>782.65</ele>
        <time>2014-12-15T15:45:49Z</time>
      </trkpt>
      <trkpt lat="44.51044" lon="5.76053">
        <ele>784.57</ele>
        <time>2014-12-15T15:45:52Z</time>
      </trkpt>
      <trkpt lat="44.51034" lon="5.76072">
        <ele>784.09</ele>
        <time>2014-12-15T15:46:05Z</time>
      </trkpt>
      <trkpt lat="44.51025" lon="5.76088">
        <ele>782.65</ele>
        <time>2014-12-15T15:46:19Z</time>
      </trkpt>
      <trkpt lat="44.51024" lon="5.76089">
        <ele>781.69</ele>
        <time>2014-12-15T15:46:21Z</time>
      </trkpt>
      <trkpt lat="44.51018" lon="5.76096">
        <ele>779.77</ele>
        <time>2014-12-15T15:46:28Z</time>
      </trkpt>
      <trkpt lat="44.51017" lon="5.76097">
        <ele>779.77</ele>
        <time>2014-12-15T15:46:29Z</time>
      </trkpt>
      <trkpt lat="44.51016" lon="5.76097">
        <ele>783.61</ele>
        <time>2014-12-15T15:46:30Z</time>
      </trkpt>
      <trkpt lat="44.51009" lon="5.76106">
        <ele>781.69</ele>
        <time>2014-12-15T15:46:40Z</time>
      </trkpt>
      <trkpt lat="44.51007" lon="5.76109">
        <ele>785.05</ele>
        <time>2014-12-15T15:46:42Z</time>
      </trkpt>
      <trkpt lat="44.51006" lon="5.7611">
        <ele>784.57</ele>
        <time>2014-12-15T15:46:43Z</time>
      </trkpt>
      <trkpt lat="44.50997" lon="5.76121">
        <ele>787.46</ele>
        <time>2014-12-15T15:46:54Z</time>
      </trkpt>
      <trkpt lat="44.50992" lon="5.76125">
        <ele>784.09</ele>
        <time>2014-12-15T15:46:59Z</time>
      </trkpt>
      <trkpt lat="44.50987" lon="5.76129">
        <ele>786.98</ele>
        <time>2014-12-15T15:47:11Z</time>
      </trkpt>
      <trkpt lat="44.50986" lon="5.76129">
        <ele>782.17</ele>
        <time>2014-12-15T15:47:12Z</time>
      </trkpt>
      <trkpt lat="44.50985" lon="5.7613">
        <ele>785.53</ele>
        <time>2014-12-15T15:47:15Z</time>
      </trkpt>
      <trkpt lat="44.50983" lon="5.76133">
        <ele>786.98</ele>
        <time>2014-12-15T15:47:18Z</time>
      </trkpt>
      <trkpt lat="44.50982" lon="5.76133">
        <ele>786.02</ele>
        <time>2014-12-15T15:47:20Z</time>
      </trkpt>
      <trkpt lat="44.50982" lon="5.76133">
        <ele>786.5</ele>
        <time>2014-12-15T15:47:22Z</time>
      </trkpt>
      <trkpt lat="44.50981" lon="5.76134">
        <ele>787.46</ele>
        <time>2014-12-15T15:47:24Z</time>
      </trkpt>
      <trkpt lat="44.5097" lon="5.76156">
        <ele>787.46</ele>
        <time>2014-12-15T15:47:39Z</time>
      </trkpt>
      <trkpt lat="44.50965" lon="5.76167">
        <ele>790.34</ele>
        <time>2014-12-15T15:47:44Z</time>
      </trkpt>
      <trkpt lat="44.5096" lon="5.76176">
        <ele>789.38</ele>
        <time>2014-12-15T15:47:52Z</time>
      </trkpt>
      <trkpt lat="44.50957" lon="5.76184">
        <ele>784.57</ele>
        <time>2014-12-15T15:47:58Z</time>
      </trkpt>
      <trkpt lat="44.50956" lon="5.76185">
        <ele>789.86</ele>
        <time>2014-12-15T15:47:59Z</time>
      </trkpt>
      <trkpt lat="44.50955" lon="5.76188">
        <ele>789.86</ele>
        <time>2014-12-15T15:48:11Z</time>
      </trkpt>
      <trkpt lat="44.50955" lon="5.76188">
        <ele>788.42</ele>
        <time>2014-12-15T15:48:16Z</time>
      </trkpt>
      <trkpt lat="44.50947" lon="5.76196">
        <ele>788.42</ele>
        <time>2014-12-15T15:48:27Z</time>
      </trkpt>
      <trkpt lat="44.50944" lon="5.76199">
        <ele>791.78</ele>
        <time>2014-12-15T15:48:31Z</time>
      </trkpt>
      <trkpt lat="44.50942" lon="5.76201">
        <ele>787.94</ele>
        <time>2014-12-15T15:48:33Z</time>
      </trkpt>
      <trkpt lat="44.50941" lon="5.76203">
        <ele>786.98</ele>
        <time>2014-12-15T15:48:35Z</time>
      </trkpt>
      <trkpt lat="44.50939" lon="5.76205">
        <ele>791.3</ele>
        <time>2014-12-15T15:48:38Z</time>
      </trkpt>
      <trkpt lat="44.50938" lon="5.76206">
        <ele>791.3</ele>
        <time>2014-12-15T15:48:39Z</time>
      </trkpt>
      <trkpt lat="44.50928" lon="5.76216">
        <ele>790.34</ele>
        <time>2014-12-15T15:48:48Z</time>
      </trkpt>
      <trkpt lat="44.50922" lon="5.76222">
        <ele>795.15</ele>
        <time>2014-12-15T15:48:55Z</time>
      </trkpt>
      <trkpt lat="44.50919" lon="5.76226">
        <ele>791.3</ele>
        <time>2014-12-15T15:48:58Z</time>
      </trkpt>
      <trkpt lat="44.50918" lon="5.76226">
        <ele>789.86</ele>
        <time>2014-12-15T15:49:00Z</time>
      </trkpt>
      <trkpt lat="44.50916" lon="5.76228">
        <ele>793.71</ele>
        <time>2014-12-15T15:49:02Z</time>
      </trkpt>
      <trkpt lat="44.50915" lon="5.76229">
        <ele>795.15</ele>
        <time>2014-12-15T15:49:03Z</time>
      </trkpt>
      <trkpt lat="44.50909" lon="5.76235">
        <ele>794.19</ele>
        <time>2014-12-15T15:49:16Z</time>
      </trkpt>
      <trkpt lat="44.50903" lon="5.76239">
        <ele>796.59</ele>
        <time>2014-12-15T15:49:27Z</time>
      </trkpt>
      <trkpt lat="44.50902" lon="5.76241">
        <ele>797.55</ele>
        <time>2014-12-15T15:49:29Z</time>
      </trkpt>
      <trkpt lat="44.509" lon="5.76244">
        <ele>794.67</ele>
        <time>2014-12-15T15:49:31Z</time>
      </trkpt>
      <trkpt lat="44.509" lon="5.76244">
        <ele>796.11</ele>
        <time>2014-12-15T15:49:32Z</time>
      </trkpt>
      <trkpt lat="44.50899" lon="5.76246">
        <ele>797.07</ele>
        <time>2014-12-15T15:49:34Z</time>
      </trkpt>
      <trkpt lat="44.50899" lon="5.76246">
        <ele>793.71</ele>
        <time>2014-12-15T15:49:35Z</time>
      </trkpt>
      <trkpt lat="44.50898" lon="5.76246">
        <ele>798.51</ele>
        <time>2014-12-15T15:49:37Z</time>
      </trkpt>
      <trkpt lat="44.50895" lon="5.76248">
        <ele>796.11</ele>
        <time>2014-12-15T15:49:40Z</time>
      </trkpt>
      <trkpt lat="44.50894" lon="5.76249">
        <ele>799.95</ele>
        <time>2014-12-15T15:49:42Z</time>
      </trkpt>
      <trkpt lat="44.50891" lon="5.7625">
        <ele>796.59</ele>
        <time>2014-12-15T15:49:44Z</time>
      </trkpt>
      <trkpt lat="44.5089" lon="5.76252">
        <ele>799.95</ele>
        <time>2014-12-15T15:49:47Z</time>
      </trkpt>
      <trkpt lat="44.5089" lon="5.76253">
        <ele>798.51</ele>
        <time>2014-12-15T15:49:48Z</time>
      </trkpt>
      <trkpt lat="44.50886" lon="5.76256">
        <ele>801.88</ele>
        <time>2014-12-15T15:50:02Z</time>
      </trkpt>
      <trkpt lat="44.50882" lon="5.76259">
        <ele>798.03</ele>
        <time>2014-12-15T15:50:06Z</time>
      </trkpt>
      <trkpt lat="44.50879" lon="5.76263">
        <ele>802.36</ele>
        <time>2014-12-15T15:50:10Z</time>
      </trkpt>
      <trkpt lat="44.50879" lon="5.76264">
        <ele>798.99</ele>
        <time>2014-12-15T15:50:12Z</time>
      </trkpt>
      <trkpt lat="44.50877" lon="5.76265">
        <ele>802.84</ele>
        <time>2014-12-15T15:50:14Z</time>
      </trkpt>
      <trkpt lat="44.50876" lon="5.76266">
        <ele>803.32</ele>
        <time>2014-12-15T15:50:15Z</time>
      </trkpt>
      <trkpt lat="44.50876" lon="5.76267">
        <ele>798.99</ele>
        <time>2014-12-15T15:50:16Z</time>
      </trkpt>
      <trkpt lat="44.50876" lon="5.76267">
        <ele>800.92</ele>
        <time>2014-12-15T15:50:17Z</time>
      </trkpt>
      <trkpt lat="44.50875" lon="5.76268">
        <ele>803.8</ele>
        <time>2014-12-15T15:50:19Z</time>
      </trkpt>
      <trkpt lat="44.50874" lon="5.76268">
        <ele>798.99</ele>
        <time>2014-12-15T15:50:20Z</time>
      </trkpt>
      <trkpt lat="44.50874" lon="5.76268">
        <ele>802.36</ele>
        <time>2014-12-15T15:50:21Z</time>
      </trkpt>
      <trkpt lat="44.50867" lon="5.76272">
        <ele>806.2</ele>
        <time>2014-12-15T15:50:29Z</time>
      </trkpt>
      <trkpt lat="44.50866" lon="5.76274">
        <ele>803.32</ele>
        <time>2014-12-15T15:50:31Z</time>
      </trkpt>
      <trkpt lat="44.50865" lon="5.76275">
        <ele>803.8</ele>
        <time>2014-12-15T15:50:32Z</time>
      </trkpt>
      <trkpt lat="44.50862" lon="5.76275">
        <ele>799.47</ele>
        <time>2014-12-15T15:50:35Z</time>
      </trkpt>
      <trkpt lat="44.50862" lon="5.76275">
        <ele>802.84</ele>
        <time>2014-12-15T15:50:36Z</time>
      </trkpt>
      <trkpt lat="44.50861" lon="5.76276">
        <ele>807.16</ele>
        <time>2014-12-15T15:50:38Z</time>
      </trkpt>
      <trkpt lat="44.5086" lon="5.76276">
        <ele>803.8</ele>
        <time>2014-12-15T15:50:39Z</time>
      </trkpt>
      <trkpt lat="44.5086" lon="5.76277">
        <ele>800.44</ele>
        <time>2014-12-15T15:50:40Z</time>
      </trkpt>
      <trkpt lat="44.50859" lon="5.76278">
        <ele>803.32</ele>
        <time>2014-12-15T15:50:41Z</time>
      </trkpt>
      <trkpt lat="44.50857" lon="5.76279">
        <ele>807.16</ele>
        <time>2014-12-15T15:50:43Z</time>
      </trkpt>
      <trkpt lat="44.50856" lon="5.7628">
        <ele>807.16</ele>
        <time>2014-12-15T15:50:44Z</time>
      </trkpt>
      <trkpt lat="44.50856" lon="5.76281">
        <ele>802.84</ele>
        <time>2014-12-15T15:50:45Z</time>
      </trkpt>
      <trkpt lat="44.50855" lon="5.76282">
        <ele>803.8</ele>
        <time>2014-12-15T15:50:46Z</time>
      </trkpt>
      <trkpt lat="44.50855" lon="5.76284">
        <ele>808.13</ele>
        <time>2014-12-15T15:50:48Z</time>
      </trkpt>
      <trkpt lat="44.50854" lon="5.76285">
        <ele>801.88</ele>
        <time>2014-12-15T15:50:49Z</time>
      </trkpt>
      <trkpt lat="44.50854" lon="5.76285">
        <ele>805.72</ele>
        <time>2014-12-15T15:50:50Z</time>
      </trkpt>
      <trkpt lat="44.50854" lon="5.76286">
        <ele>802.36</ele>
        <time>2014-12-15T15:50:52Z</time>
      </trkpt>
      <trkpt lat="44.50853" lon="5.76287">
        <ele>805.24</ele>
        <time>2014-12-15T15:50:53Z</time>
      </trkpt>
      <trkpt lat="44.50853" lon="5.76287">
        <ele>806.68</ele>
        <time>2014-12-15T15:50:55Z</time>
      </trkpt>
      <trkpt lat="44.50851" lon="5.76289">
        <ele>808.13</ele>
        <time>2014-12-15T15:50:58Z</time>
      </trkpt>
      <trkpt lat="44.5085" lon="5.76291">
        <ele>807.16</ele>
        <time>2014-12-15T15:51:00Z</time>
      </trkpt>
      <trkpt lat="44.50849" lon="5.76293">
        <ele>810.05</ele>
        <time>2014-12-15T15:51:02Z</time>
      </trkpt>
      <trkpt lat="44.50848" lon="5.76293">
        <ele>809.09</ele>
        <time>2014-12-15T15:51:03Z</time>
      </trkpt>
      <trkpt lat="44.50848" lon="5.76293">
        <ele>807.64</ele>
        <time>2014-12-15T15:51:05Z</time>
      </trkpt>
      <trkpt lat="44.50846" lon="5.76295">
        <ele>809.09</ele>
        <time>2014-12-15T15:51:08Z</time>
      </trkpt>
      <trkpt lat="44.50843" lon="5.76299">
        <ele>810.05</ele>
        <time>2014-12-15T15:51:14Z</time>
      </trkpt>
      <trkpt lat="44.50843" lon="5.76299">
        <ele>809.09</ele>
        <time>2014-12-15T15:51:15Z</time>
      </trkpt>
      <trkpt lat="44.50842" lon="5.76301">
        <ele>811.49</ele>
        <time>2014-12-15T15:51:18Z</time>
      </trkpt>
      <trkpt lat="44.50842" lon="5.76301">
        <ele>808.61</ele>
        <time>2014-12-15T15:51:19Z</time>
      </trkpt>
      <trkpt lat="44.50842" lon="5.76301">
        <ele>808.61</ele>
        <time>2014-12-15T15:51:20Z</time>
      </trkpt>
      <trkpt lat="44.5084" lon="5.76303">
        <ele>812.45</ele>
        <time>2014-12-15T15:51:22Z</time>
      </trkpt>
      <trkpt lat="44.50839" lon="5.76304">
        <ele>812.45</ele>
        <time>2014-12-15T15:51:23Z</time>
      </trkpt>
      <trkpt lat="44.50838" lon="5.76304">
        <ele>807.16</ele>
        <time>2014-12-15T15:51:24Z</time>
      </trkpt>
      <trkpt lat="44.50838" lon="5.76304">
        <ele>810.53</ele>
        <time>2014-12-15T15:51:25Z</time>
      </trkpt>
      <trkpt lat="44.50832" lon="5.76309">
        <ele>815.82</ele>
        <time>2014-12-15T15:51:37Z</time>
      </trkpt>
      <trkpt lat="44.50832" lon="5.76309">
        <ele>809.57</ele>
        <time>2014-12-15T15:51:38Z</time>
      </trkpt>
      <trkpt lat="44.50832" lon="5.76309">
        <ele>810.53</ele>
        <time>2014-12-15T15:51:39Z</time>
      </trkpt>
      <trkpt lat="44.50832" lon="5.76309">
        <ele>813.41</ele>
        <time>2014-12-15T15:51:40Z</time>
      </trkpt>
      <trkpt lat="44.50831" lon="5.76311">
        <ele>812.93</ele>
        <time>2014-12-15T15:51:41Z</time>
      </trkpt>
      <trkpt lat="44.50828" lon="5.76317">
        <ele>815.34</ele>
        <time>2014-12-15T15:51:53Z</time>
      </trkpt>
      <trkpt lat="44.50824" lon="5.76322">
        <ele>817.74</ele>
        <time>2014-12-15T15:52:01Z</time>
      </trkpt>
      <trkpt lat="44.50824" lon="5.76322">
        <ele>812.45</ele>
        <time>2014-12-15T15:52:05Z</time>
      </trkpt>
      <trkpt lat="44.50824" lon="5.76322">
        <ele>816.3</ele>
        <time>2014-12-15T15:52:06Z</time>
      </trkpt>
      <trkpt lat="44.50821" lon="5.76324">
        <ele>817.26</ele>
        <time>2014-12-15T15:52:08Z</time>
      </trkpt>
      <trkpt lat="44.50819" lon="5.76327">
        <ele>819.18</ele>
        <time>2014-12-15T15:52:16Z</time>
      </trkpt>
      <trkpt lat="44.50816" lon="5.76335">
        <ele>820.62</ele>
        <time>2014-12-15T15:52:29Z</time>
      </trkpt>
      <trkpt lat="44.50816" lon="5.76337">
        <ele>820.62</ele>
        <time>2014-12-15T15:52:33Z</time>
      </trkpt>
      <trkpt lat="44.50814" lon="5.76342">
        <ele>823.51</ele>
        <time>2014-12-15T15:52:45Z</time>
      </trkpt>
      <trkpt lat="44.50812" lon="5.76344">
        <ele>822.55</ele>
        <time>2014-12-15T15:52:49Z</time>
      </trkpt>
      <trkpt lat="44.50809" lon="5.76344">
        <ele>817.74</ele>
        <time>2014-12-15T15:52:53Z</time>
      </trkpt>
      <trkpt lat="44.50808" lon="5.76344">
        <ele>823.51</ele>
        <time>2014-12-15T15:52:55Z</time>
      </trkpt>
      <trkpt lat="44.50804" lon="5.76338">
        <ele>823.99</ele>
        <time>2014-12-15T15:53:07Z</time>
      </trkpt>
      <trkpt lat="44.50802" lon="5.76337">
        <ele>821.1</ele>
        <time>2014-12-15T15:53:11Z</time>
      </trkpt>
      <trkpt lat="44.50802" lon="5.76337">
        <ele>826.87</ele>
        <time>2014-12-15T15:53:12Z</time>
      </trkpt>
      <trkpt lat="44.50802" lon="5.76337">
        <ele>824.95</ele>
        <time>2014-12-15T15:53:13Z</time>
      </trkpt>
      <trkpt lat="44.50802" lon="5.76337">
        <ele>823.03</ele>
        <time>2014-12-15T15:53:16Z</time>
      </trkpt>
      <trkpt lat="44.508" lon="5.76335">
        <ele>823.03</ele>
        <time>2014-12-15T15:53:26Z</time>
      </trkpt>
      <trkpt lat="44.50794" lon="5.76331">
        <ele>824.47</ele>
        <time>2014-12-15T15:53:41Z</time>
      </trkpt>
      <trkpt lat="44.50794" lon="5.76331">
        <ele>822.55</ele>
        <time>2014-12-15T15:54:35Z</time>
      </trkpt>
      <trkpt lat="44.50794" lon="5.76331">
        <ele>825.43</ele>
        <time>2014-12-15T15:54:44Z</time>
      </trkpt>
      <trkpt lat="44.50794" lon="5.76331">
        <ele>822.06</ele>
        <time>2014-12-15T15:54:46Z</time>
      </trkpt>
      <trkpt lat="44.50795" lon="5.76332">
        <ele>819.18</ele>
        <time>2014-12-15T15:55:10Z</time>
      </trkpt>
      <trkpt lat="44.50795" lon="5.76332">
        <ele>823.51</ele>
        <time>2014-12-15T15:55:11Z</time>
      </trkpt>
      <trkpt lat="44.50795" lon="5.76332">
        <ele>823.03</ele>
        <time>2014-12-15T15:56:13Z</time>
      </trkpt>
      <trkpt lat="44.50795" lon="5.76332">
        <ele>818.22</ele>
        <time>2014-12-15T15:56:20Z</time>
      </trkpt>
      <trkpt lat="44.50795" lon="5.76332">
        <ele>827.35</ele>
        <time>2014-12-15T15:56:21Z</time>
      </trkpt>
      <trkpt lat="44.50795" lon="5.76332">
        <ele>826.39</ele>
        <time>2014-12-15T15:56:22Z</time>
      </trkpt>
      <trkpt lat="44.50795" lon="5.76332">
        <ele>819.66</ele>
        <time>2014-12-15T15:56:23Z</time>
      </trkpt>
    </trkseg>
  </trk>
</gpx>